[[{"header":{"parameterUnit":"m.s-1","parameterCategory":1,"la1":30.6,"la2":29.2853,"lo1":-89.7004,"lo2":-87.6739,"dx":0.0162,"dy":0.0183,"nx":112,"ny":82,"refTime":"2023-01-09T06:00:00:Z","depth":0,"parameterNumber":2,"parameterNumberName":"U-component_of_WINDS"},"data":[0.0,0.0,0.0,0.0,0.0,0.0,0.0,0.0,0.0,0.0,0.0,0.0,0.0,0.0,0.0,0.0,0.0,0.0,0.0,0.0,0.0,0.0,0.0,0.0,0.0,0.0,0.0,0.0,0.0,0.0,0.0,0.0,0.0,0.0,0.0,0.0,0.0,0.0,0.0,0.0,0.0,0.0,0.0,0.0,0.0,0.0,0.0,0.0,0.0,0.0,0.0,0.0,0.0,0.0,0.0,0.0,0.0,0.0,0.0,0.0,0.0,0.0,0.0,0.0,0.0,0.0,0.0,0.0,0.0,0.0,0.0,0.0,0.0,0.0,0.0,0.0,0.0,0.0,0.0,0.0,0.0,0.0,0.0,0.0,0.0,0.0,0.0,0.0,0.0,0.0,6.6745,6.7421,6.8774,6.9282,6.8504,6.8436,6.7117,6.4038,0.0,0.0,0.0,0.0,0.0,0.0,0.0,0.0,0.0,0.0,0.0,0.0,0.0,0.0,0.0,0.0,0.0,0.0,0.0,0.0,0.0,0.0,0.0,0.0,0.0,0.0,0.0,0.0,0.0,0.0,0.0,0.0,0.0,0.0,0.0,0.0,0.0,0.0,0.0,0.0,0.0,0.0,0.0,0.0,0.0,0.0,0.0,0.0,0.0,0.0,0.0,0.0,0.0,0.0,0.0,0.0,0.0,0.0,0.0,0.0,0.0,0.0,0.0,0.0,0.0,0.0,0.0,0.0,0.0,0.0,0.0,0.0,0.0,0.0,0.0,0.0,0.0,0.0,0.0,0.0,0.0,0.0,0.0,0.0,0.0,0.0,0.0,0.0,0.0,0.0,0.0,0.0,0.0,0.0,0.0,0.0,0.0,0.0,0.0,0.0,0.0,0.0,0.0,0.0,6.6406,7.0229,7.1379,7.1616,7.0872,7.0804,6.9248,6.5595,0.0,0.0,0.0,0.0,0.0,0.0,0.0,0.0,0.0,0.0,0.0,0.0,0.0,0.0,0.0,0.0,0.0,0.0,0.0,0.0,0.0,0.0,0.0,0.0,0.0,0.0,0.0,0.0,0.0,0.0,0.0,0.0,0.0,0.0,0.0,0.0,0.0,0.0,0.0,0.0,0.0,0.0,0.0,0.0,0.0,0.0,0.0,0.0,0.0,0.0,0.0,0.0,0.0,0.0,0.0,0.0,0.0,0.0,0.0,0.0,0.0,0.0,0.0,0.0,0.0,0.0,0.0,0.0,0.0,0.0,0.0,0.0,0.0,0.0,0.0,0.0,0.0,0.0,0.0,0.0,0.0,0.0,0.0,0.0,0.0,0.0,0.0,0.0,0.0,0.0,0.0,0.0,0.0,0.0,0.0,0.0,0.0,0.0,0.0,0.0,0.0,0.0,0.0,6.7692,7.0094,7.3341,7.3646,7.3308,7.2563,7.1751,6.9722,6.5933,6.4072,0.0,0.0,0.0,0.0,0.0,0.0,0.0,0.0,0.0,0.0,0.0,0.0,0.0,0.0,0.0,0.0,0.0,0.0,0.0,0.0,0.0,0.0,0.0,0.0,0.0,0.0,0.0,0.0,0.0,0.0,0.0,0.0,0.0,0.0,0.0,0.0,0.0,0.0,0.0,0.0,0.0,0.0,0.0,0.0,0.0,0.0,0.0,0.0,0.0,0.0,0.0,0.0,0.0,0.0,0.0,0.0,0.0,0.0,0.0,0.0,0.0,0.0,0.0,0.0,0.0,0.0,0.0,0.0,0.0,0.0,0.0,0.0,0.0,0.0,0.0,0.0,0.0,0.0,0.0,0.0,0.0,0.0,0.0,0.0,0.0,0.0,0.0,0.0,0.0,0.0,0.0,0.0,0.0,0.0,0.0,0.0,0.0,0.0,0.0,0.0,0.0,0.0,7.1312,7.3375,7.5236,7.51,7.4627,7.4052,7.2665,7.0229,6.644,6.5527,0.0,0.0,0.0,0.0,0.0,0.0,0.0,0.0,0.0,0.0,0.0,0.0,0.0,0.0,0.0,0.0,0.0,0.0,0.0,0.0,0.0,0.0,0.0,0.0,0.0,0.0,0.0,0.0,0.0,0.0,0.0,0.0,0.0,0.0,0.0,0.0,0.0,0.0,0.0,0.0,0.0,0.0,0.0,0.0,0.0,0.0,0.0,0.0,0.0,0.0,0.0,0.0,0.0,0.0,0.0,0.0,0.0,0.0,0.0,0.0,0.0,0.0,0.0,0.0,0.0,0.0,0.0,0.0,0.0,0.0,0.0,0.0,0.0,0.0,0.0,0.0,0.0,0.0,0.0,0.0,0.0,0.0,0.0,0.0,0.0,0.0,0.0,0.0,0.0,0.0,0.0,0.0,0.0,0.0,0.0,0.0,0.0,0.0,0.0,0.0,0.0,0.0,7.077,7.3747,7.4593,7.5236,7.5608,7.554,7.4187,7.1718,6.7963,6.7049,0.0,0.0,0.0,0.0,0.0,0.0,0.0,0.0,0.0,0.0,0.0,0.0,0.0,0.0,0.0,0.0,0.0,0.0,0.0,0.0,0.0,0.0,0.0,0.0,0.0,0.0,0.0,0.0,0.0,0.0,0.0,0.0,0.0,0.0,0.0,0.0,0.0,0.0,0.0,0.0,0.0,0.0,0.0,0.0,0.0,0.0,0.0,0.0,0.0,0.0,0.0,0.0,0.0,0.0,0.0,0.0,0.0,0.0,0.0,0.0,0.0,0.0,0.0,0.0,0.0,0.0,0.0,0.0,0.0,0.0,0.0,0.0,0.0,0.0,0.0,0.0,0.0,0.0,0.0,0.0,0.0,0.0,0.0,0.0,0.0,0.0,0.0,0.0,0.0,0.0,0.0,0.0,0.0,0.0,0.0,0.0,0.0,0.0,0.0,0.0,0.0,0.0,7.1819,7.5168,0.0,7.713,7.7468,7.6521,7.5473,7.3071,6.891,0.0,0.0,0.0,0.0,0.0,0.0,0.0,0.0,0.0,0.0,0.0,0.0,0.0,0.0,0.0,0.0,0.0,0.0,0.0,0.0,0.0,0.0,0.0,0.0,0.0,0.0,0.0,0.0,0.0,0.0,0.0,0.0,0.0,0.0,0.0,0.0,0.0,0.0,0.0,0.0,0.0,0.0,0.0,0.0,0.0,0.0,0.0,0.0,0.0,0.0,0.0,0.0,0.0,0.0,0.0,0.0,0.0,0.0,0.0,0.0,0.0,0.0,0.0,0.0,0.0,0.0,0.0,0.0,0.0,0.0,0.0,0.0,0.0,0.0,0.0,0.0,0.0,0.0,0.0,0.0,0.0,0.0,0.0,0.0,0.0,0.0,0.0,0.0,0.0,0.0,0.0,0.0,0.0,0.0,0.0,0.0,0.0,0.0,0.0,0.0,0.0,0.0,6.8098,7.2428,7.5845,0.0,7.8145,7.8348,7.7333,7.6284,7.4018,7.006,0.0,0.0,0.0,0.0,0.0,0.0,0.0,0.0,0.0,0.0,0.0,0.0,0.0,0.0,0.0,0.0,0.0,0.0,0.0,0.0,0.0,0.0,0.0,0.0,0.0,0.0,0.0,0.0,0.0,0.0,0.0,0.0,0.0,0.0,0.0,0.0,0.0,0.0,0.0,0.0,0.0,0.0,0.0,0.0,0.0,0.0,0.0,0.0,0.0,0.0,0.0,0.0,0.0,0.0,0.0,0.0,0.0,0.0,0.0,0.0,0.0,0.0,0.0,0.0,0.0,0.0,0.0,0.0,0.0,0.0,0.0,0.0,0.0,0.0,0.0,0.0,0.0,0.0,0.0,0.0,0.0,0.0,0.0,0.0,0.0,0.0,0.0,0.0,0.0,0.0,0.0,0.0,0.0,0.0,0.0,0.0,0.0,0.0,0.0,0.0,0.0,0.0,6.891,7.236,7.5506,7.7739,7.801,7.801,7.801,7.6589,7.4492,0.0,0.0,0.0,0.0,0.0,0.0,0.0,0.0,0.0,0.0,0.0,0.0,0.0,0.0,0.0,0.0,0.0,0.0,0.0,0.0,0.0,0.0,0.0,0.0,0.0,0.0,0.0,0.0,0.0,0.0,0.0,0.0,0.0,0.0,0.0,0.0,0.0,0.0,0.0,0.0,0.0,0.0,0.0,0.0,0.0,0.0,0.0,0.0,0.0,0.0,0.0,0.0,0.0,0.0,0.0,0.0,0.0,0.0,0.0,0.0,0.0,0.0,0.0,0.0,0.0,0.0,0.0,0.0,0.0,0.0,0.0,0.0,0.0,0.0,0.0,0.0,0.0,0.0,0.0,0.0,0.0,0.0,0.0,0.0,0.0,0.0,0.0,0.0,0.0,0.0,0.0,0.0,0.0,0.0,0.0,0.0,0.0,0.0,0.0,0.0,0.0,0.0,0.0,6.9688,7.3578,7.669,7.7874,7.8923,7.9329,7.8822,7.8382,7.6826,7.3849,0.0,0.0,0.0,0.0,0.0,0.0,0.0,0.0,0.0,0.0,0.0,0.0,0.0,0.0,0.0,0.0,0.0,0.0,0.0,0.0,0.0,0.0,0.0,0.0,0.0,0.0,0.0,0.0,0.0,0.0,0.0,0.0,0.0,0.0,0.0,0.0,0.0,0.0,0.0,0.0,0.0,0.0,0.0,0.0,0.0,0.0,0.0,0.0,0.0,0.0,0.0,0.0,0.0,0.0,0.0,0.0,0.0,0.0,0.0,0.0,0.0,0.0,0.0,0.0,0.0,0.0,0.0,0.0,0.0,0.0,0.0,0.0,0.0,0.0,0.0,0.0,0.0,0.0,0.0,0.0,0.0,0.0,0.0,0.0,0.0,0.0,0.0,0.0,0.0,0.0,0.0,0.0,0.0,0.0,0.0,0.0,0.0,0.0,0.0,0.0,0.0,0.0,7.0838,7.4492,7.7502,7.9126,7.9566,7.9701,7.9566,7.8991,7.7874,7.6082,0.0,0.0,0.0,0.0,0.0,0.0,0.0,0.0,0.0,0.0,0.0,0.0,0.0,0.0,0.0,0.0,0.0,0.0,0.0,0.0,0.0,0.0,0.0,0.0,0.0,0.0,0.0,0.0,0.0,0.0,0.0,0.0,0.0,0.0,0.0,0.0,0.0,0.0,0.0,0.0,0.0,0.0,0.0,0.0,0.0,0.0,0.0,0.0,0.0,0.0,0.0,0.0,0.0,0.0,0.0,0.0,0.0,0.0,0.0,0.0,0.0,0.0,0.0,0.0,0.0,0.0,0.0,0.0,0.0,0.0,0.0,0.0,0.0,0.0,0.0,0.0,0.0,0.0,0.0,0.0,0.0,0.0,0.0,0.0,0.0,0.0,0.0,0.0,0.0,0.0,0.0,0.0,0.0,0.0,0.0,0.0,0.0,0.0,0.0,0.0,0.0,0.0,7.2326,7.5236,7.8145,8.0885,8.0006,7.9464,8.004,7.8923,7.8145,7.801,0.0,0.0,0.0,0.0,0.0,0.0,0.0,0.0,0.0,0.0,0.0,0.0,0.0,0.0,0.0,0.0,0.0,0.0,0.0,0.0,0.0,0.0,0.0,0.0,0.0,0.0,0.0,0.0,0.0,0.0,0.0,0.0,0.0,0.0,0.0,0.0,0.0,0.0,0.0,0.0,0.0,0.0,0.0,0.0,0.0,0.0,0.0,0.0,0.0,0.0,0.0,0.0,0.0,0.0,0.0,0.0,0.0,0.0,0.0,0.0,6.0926,0.0,0.0,0.0,0.0,0.0,0.0,0.0,0.0,0.0,0.0,0.0,0.0,0.0,0.0,0.0,0.0,0.0,0.0,0.0,0.0,0.0,0.0,0.0,0.0,0.0,0.0,0.0,0.0,0.0,0.0,0.0,0.0,0.0,0.0,0.0,0.0,0.0,0.0,0.0,0.0,0.0,7.3916,7.6758,7.9092,8.031,8.0141,7.9803,7.9397,7.9566,7.9228,7.8044,7.7671,0.0,0.0,0.0,0.0,0.0,0.0,0.0,0.0,0.0,0.0,0.0,0.0,0.0,0.0,0.0,0.0,0.0,0.0,0.0,0.0,0.0,0.0,0.0,0.0,0.0,0.0,0.0,0.0,0.0,0.0,0.0,0.0,0.0,0.0,0.0,0.0,0.0,0.0,0.0,0.0,0.0,0.0,0.0,0.0,0.0,0.0,0.0,0.0,0.0,0.0,0.0,0.0,0.0,0.0,0.0,0.0,0.0,0.0,0.0,0.0,6.255,0.0,0.0,0.0,0.0,0.0,0.0,0.0,0.0,0.0,0.0,0.0,0.0,0.0,0.0,0.0,0.0,0.0,0.0,0.0,0.0,0.0,0.0,0.0,0.0,0.0,0.0,0.0,0.0,0.0,0.0,0.0,0.0,0.0,0.0,0.0,0.0,0.0,0.0,0.0,0.0,7.5033,7.7468,7.9532,8.0615,8.0073,7.9803,8.0141,7.987,7.9634,7.9566,7.9228,0.0,0.0,0.0,0.0,0.0,0.0,0.0,0.0,0.0,0.0,0.0,0.0,0.0,0.0,0.0,0.0,0.0,0.0,0.0,0.0,0.0,0.0,0.0,0.0,0.0,0.0,0.0,0.0,0.0,0.0,0.0,0.0,0.0,0.0,0.0,0.0,0.0,0.0,0.0,0.0,0.0,0.0,0.0,0.0,0.0,0.0,0.0,0.0,0.0,0.0,0.0,0.0,0.0,6.8876,6.9079,6.9079,6.9891,7.0567,7.1041,6.918,6.7929,6.7083,6.5256,0.0,0.0,0.0,0.0,0.0,0.0,0.0,0.0,0.0,0.0,0.0,0.0,0.0,0.0,0.0,0.0,0.0,0.0,0.0,0.0,0.0,0.0,0.0,0.0,7.0906,7.1988,7.0906,0.0,0.0,0.0,0.0,0.0,0.0,0.0,0.0,0.0,0.0,0.0,7.5912,7.7908,7.9701,8.0784,7.9938,7.9735,8.0818,7.9938,7.9769,8.0851,8.0445,7.9634,0.0,0.0,0.0,0.0,0.0,0.0,0.0,0.0,0.0,0.0,0.0,0.0,0.0,0.0,0.0,0.0,0.0,0.0,0.0,0.0,0.0,0.0,0.0,0.0,0.0,0.0,0.0,0.0,0.0,0.0,0.0,0.0,5.6224,5.7036,0.0,0.0,0.0,0.0,0.0,0.0,0.0,0.0,0.0,0.0,0.0,0.0,0.0,6.7218,6.732,6.8842,7.0026,7.0872,7.28,7.3747,7.3747,7.4492,7.4864,7.4965,7.4661,0.0,6.8774,6.847,0.0,0.0,0.0,0.0,0.0,0.0,0.0,0.0,0.0,0.0,0.0,0.0,0.0,0.0,0.0,0.0,0.0,0.0,0.0,0.0,0.0,0.0,7.4322,7.5439,7.5946,7.6284,0.0,7.368,7.0838,7.0737,7.1751,0.0,0.0,0.0,0.0,0.0,0.0,0.0,7.6826,7.8686,7.987,7.9431,7.9803,7.987,7.9431,7.9803,7.987,7.9431,7.9904,8.0107,7.9904,7.8077,0.0,0.0,0.0,0.0,0.0,0.0,0.0,0.0,0.0,0.0,0.0,0.0,0.0,0.0,0.0,0.0,0.0,0.0,0.0,0.0,0.0,0.0,0.0,0.0,0.0,0.0,0.0,0.0,0.0,5.6325,5.7848,5.8998,5.9877,6.0419,0.0,0.0,0.0,0.0,0.0,0.0,0.0,0.0,0.0,6.9282,7.006,7.0838,7.1684,7.2732,7.3443,7.3781,7.4762,7.5473,7.5912,7.6217,7.6589,7.6995,7.6995,7.5642,7.3409,7.2563,7.1785,7.1075,0.0,0.0,0.0,0.0,6.7895,6.8132,6.9789,7.0364,7.0466,7.1312,0.0,0.0,0.0,0.0,0.0,0.0,0.0,0.0,0.0,0.0,7.5506,7.6623,7.6893,7.7096,7.7841,7.6454,7.4931,0.0,7.4593,7.5168,7.6555,0.0,0.0,0.0,0.0,7.8957,7.8247,7.8991,7.9634,7.9701,8.0378,8.0682,8.0344,8.0615,8.0682,8.0344,7.987,7.9769,8.0175,7.845,7.7198,0.0,0.0,0.0,0.0,0.0,0.0,0.0,0.0,0.0,0.0,0.0,0.0,0.0,0.0,0.0,0.0,0.0,0.0,0.0,0.0,0.0,0.0,0.0,0.0,0.0,0.0,0.0,0.0,5.893,6.0351,6.167,6.2821,6.3599,0.0,0.0,0.0,0.0,0.0,0.0,6.9857,6.9722,7.05,7.2394,7.3172,7.4086,7.5202,7.5743,7.6082,7.6284,7.6487,7.6995,7.7739,7.7942,7.8416,7.9126,7.9126,7.8822,7.8145,7.6048,7.5067,7.4728,7.3071,7.2428,7.2259,7.0737,7.0195,7.0466,7.236,7.3003,7.3206,7.4289,7.4999,7.5236,7.395,0.0,0.0,0.0,0.0,7.5709,7.5743,7.6014,7.6521,7.7502,7.7739,7.7874,7.8416,7.8416,7.8044,0.0,7.686,7.7266,7.9532,0.0,0.0,0.0,0.0,7.9938,7.9194,7.9431,7.9803,8.0175,8.1021,8.1562,8.1562,8.1562,8.1562,8.1562,8.0378,8.0006,8.075,7.9329,7.8551,7.8551,0.0,0.0,0.0,0.0,0.0,0.0,0.0,0.0,0.0,0.0,0.0,0.0,0.0,0.0,0.0,0.0,0.0,0.0,0.0,0.0,0.0,0.0,0.0,0.0,0.0,0.0,0.0,0.0,0.0,6.6373,6.6542,0.0,0.0,0.0,0.0,6.7827,6.918,7.0669,7.2157,7.3544,7.4661,7.5439,7.6251,7.6724,7.6792,7.6826,7.7198,7.7874,7.8585,7.9329,8.0073,8.075,8.146,8.2205,8.2205,8.2171,8.1866,7.8247,7.6318,7.5642,7.5506,7.5473,7.5574,7.6217,7.6454,7.6555,7.7367,7.7638,7.7671,7.7739,7.7773,7.7671,7.6893,7.6724,0.0,0.0,7.6217,7.6183,7.8314,7.8382,7.8247,7.9701,8.004,8.004,8.0073,7.9532,7.8822,0.0,7.8483,7.8991,7.916,0.0,8.0209,8.0242,8.0209,7.9938,7.9194,8.031,8.0919,8.0276,8.1494,8.234,8.234,8.234,8.234,8.234,8.1629,8.1528,8.2272,8.0885,8.0073,8.0073,8.0006,0.0,0.0,0.0,0.0,0.0,0.0,0.0,0.0,0.0,0.0,0.0,0.0,0.0,0.0,0.0,0.0,0.0,0.0,0.0,0.0,0.0,0.0,0.0,0.0,0.0,0.0,0.0,0.0,6.7489,6.8368,0.0,7.0669,7.121,7.1887,7.2834,7.3409,7.439,7.5912,7.6048,7.642,7.7164,7.8382,7.9025,7.9025,7.9972,8.0581,8.0818,8.0615,8.0885,8.1629,8.1393,8.1697,8.2374,8.19,8.1697,8.1528,7.9769,7.9126,7.9295,7.9295,7.872,7.7942,7.8213,7.801,7.7705,7.845,7.872,7.8855,7.9803,7.9803,7.9464,7.9667,7.9397,7.9025,7.9025,7.8822,7.8686,7.9025,7.9261,7.9532,8.0073,8.0547,8.1021,8.1528,8.1054,8.0581,8.0784,8.0276,8.0107,8.1088,8.1832,8.2306,8.2306,8.1934,8.1528,8.1257,8.1257,8.1359,8.1596,8.2509,8.3118,8.3118,8.3118,8.3118,8.3118,8.1968,8.1629,8.2374,8.1426,8.1122,8.1629,8.1629,8.0987,0.0,0.0,0.0,0.0,0.0,0.0,0.0,0.0,0.0,0.0,0.0,0.0,0.0,0.0,0.0,0.0,0.0,0.0,0.0,0.0,0.0,0.0,0.0,0.0,0.0,0.0,6.8842,6.935,7.0534,7.1887,7.3375,7.4187,7.5033,7.6014,7.6555,7.7401,7.8653,7.8517,7.872,7.9464,8.0175,8.0547,8.0547,8.1291,8.1663,8.1663,8.1156,8.1325,8.2035,8.1765,8.2069,8.278,8.2509,8.2408,8.2374,8.19,8.1968,8.2306,8.1325,8.031,7.9464,7.9464,7.9329,7.9194,7.9972,8.0209,8.0378,8.1359,8.1325,8.1021,8.1528,8.1325,8.0953,8.0953,8.075,8.0513,8.0276,8.0378,8.0615,8.0885,8.1325,8.1799,8.2306,8.2035,8.1832,8.2306,8.1426,8.0953,8.2205,8.2813,8.3219,8.3456,8.2881,8.2509,8.2746,8.234,8.2238,8.2712,8.3422,8.3862,8.3862,8.437,8.4437,8.3896,8.3186,8.278,8.278,8.2543,8.278,8.3524,8.3558,8.3081,8.2094,0.0,0.0,0.0,0.0,0.0,0.0,0.0,0.0,0.0,0.0,0.0,0.0,0.0,0.0,0.0,0.0,0.0,0.0,0.0,0.0,0.0,0.0,0.0,6.8233,6.935,7.0872,7.236,7.3172,7.4187,7.5676,7.6521,7.6995,7.6995,7.8382,7.9498,8.0175,8.0885,8.1596,8.2306,8.1663,8.1325,8.1325,8.0648,8.0344,8.0344,8.0344,8.0716,8.1426,8.2137,8.2881,8.3558,8.4302,8.4606,8.4573,8.4573,8.4539,8.4268,8.146,8.031,8.031,8.031,8.075,8.1426,8.2171,8.2441,8.2441,8.2441,8.2441,8.2441,8.2441,8.2441,8.2408,8.2408,8.19,8.1494,8.2205,8.19,8.1528,8.2272,8.2475,8.2475,8.2509,8.2509,8.2509,8.2543,8.1968,8.1663,8.234,8.2475,8.2746,8.3456,8.2983,0.0,8.3524,8.3592,8.3625,8.3625,8.4302,8.4742,8.4742,8.6095,8.6298,8.4776,8.5418,8.5148,8.3659,8.4268,8.4979,8.5689,8.5723,8.5169,8.3808,0.0,0.0,0.0,0.0,0.0,0.0,0.0,0.0,0.0,0.0,0.0,0.0,0.0,0.0,0.0,0.0,0.0,0.0,0.0,0.0,0.0,0.0,7.2259,7.1312,7.2462,7.395,7.5473,7.5845,7.6555,7.8044,7.8855,7.9295,7.9295,8.0682,8.1122,8.0242,8.0885,8.1156,8.0818,8.1663,8.2103,8.2103,8.2983,8.3422,8.3422,8.3422,8.3524,8.3727,8.393,8.4133,8.4302,8.3964,8.3795,8.3761,8.3253,8.3016,8.305,8.3321,8.3084,8.2577,8.2577,8.2374,8.2137,8.234,8.2746,8.3186,8.3186,8.3186,8.3186,8.3186,8.2813,8.2408,8.2408,8.2272,8.2137,8.2374,8.2644,8.2949,8.3152,8.3625,8.4167,8.4742,8.4877,8.5012,8.5554,8.552,8.4911,8.3456,8.3659,8.4268,8.5046,8.5452,0.0,8.596,8.596,8.6163,8.6704,8.6941,8.7076,8.7076,8.7448,8.7279,8.6332,8.6501,8.6399,8.5993,8.5114,8.4471,8.4133,8.446,8.479,0.0,0.0,0.0,0.0,0.0,0.0,0.0,0.0,0.0,0.0,0.0,0.0,0.0,0.0,0.0,0.0,0.0,0.0,0.0,0.0,0.0,0.0,7.3375,7.4999,7.5202,7.5676,7.6487,7.7671,7.8077,7.8619,7.9498,8.0242,8.0513,8.0209,8.0987,8.1359,8.1122,8.1528,8.1832,8.2035,8.2577,8.2881,8.2881,8.3422,8.3693,8.3693,8.3693,8.3693,8.3693,8.3998,8.4167,8.4133,8.4031,8.3964,8.393,8.3524,8.3321,0.0,0.0,0.0,0.0,0.0,8.3219,8.2915,8.3219,8.3625,8.3964,8.3964,8.3964,8.3964,8.3964,8.3659,8.3389,8.3727,8.3828,8.3896,8.42,8.4606,8.4911,8.4911,8.5249,8.5689,8.6163,8.6264,8.6399,8.6839,8.6907,0.0,8.5554,8.5486,8.5824,8.6602,8.6805,8.7008,8.7313,8.711,8.7076,8.7482,8.755,8.755,8.755,8.8091,0.0,0.0,0.0,8.782,8.782,8.6974,0.0,0.0,0.0,0.0,0.0,0.0,0.0,0.0,8.074,8.0518,0.0,0.0,0.0,0.0,0.0,0.0,0.0,0.0,0.0,0.0,0.0,0.0,0.0,0.0,0.0,0.0,7.6082,7.7604,7.8923,7.8619,7.8483,7.916,7.987,8.0276,8.0209,8.0851,8.1021,8.0378,8.0479,8.1122,8.234,0.0,0.0,0.0,0.0,8.349,8.349,8.2949,8.2678,8.2678,8.2678,8.2712,8.2813,8.3456,8.3795,8.393,8.4606,8.4877,8.4877,8.4877,8.4877,8.4742,8.3355,8.2847,8.3016,8.3625,8.3896,8.3998,8.464,0.0,0.0,8.4877,8.4877,8.4877,8.4877,8.4877,8.5012,8.5723,8.5892,8.6061,8.6738,8.6907,8.6907,8.6907,8.6907,8.6941,8.7008,8.7042,8.7076,8.7144,8.7144,8.738,8.8023,8.7516,8.7279,8.8023,8.7583,8.738,8.8023,8.755,8.7177,8.7279,0.0,0.0,8.7279,8.8463,8.8632,8.7245,8.8361,8.9038,8.897,8.897,8.8632,8.7888,8.7144,8.5835,8.4152,8.3415,8.3087,8.3374,8.3287,8.2855,0.0,0.0,0.0,0.0,0.0,0.0,0.0,0.0,0.0,0.0,0.0,0.0,0.0,0.0,0.0,7.554,7.7299,7.8788,7.9058,7.9498,7.9837,7.9972,8.0648,8.0851,8.0242,8.0851,8.1224,8.1088,8.2171,8.2712,8.2441,8.2949,8.3152,8.2847,8.3253,8.349,8.349,8.3964,8.42,8.42,0.0,0.0,8.5148,8.5283,8.5689,8.6264,8.6399,8.6467,8.6467,8.6467,8.6467,8.6366,8.5486,8.552,8.6061,8.6196,8.6264,8.6264,8.6433,8.6467,8.6467,8.6467,8.6467,8.6467,8.6467,8.6467,0.0,8.6636,8.6704,8.6738,8.6873,8.6907,8.6907,8.6907,8.6907,8.7076,8.7651,8.7786,8.7955,8.8531,8.8666,8.87,8.8835,8.826,8.8023,8.8767,8.8767,8.8734,8.8869,8.8734,8.8903,8.9512,8.9579,8.9579,8.9579,8.9816,8.9613,8.8734,8.8937,8.8801,8.8226,8.8192,8.7854,8.7144,8.6113,8.5801,8.6248,8.5254,8.5254,8.6105,8.401,8.293,0.0,0.0,0.0,0.0,0.0,0.0,0.0,0.0,0.0,0.0,0.0,7.3612,0.0,0.0,7.757,7.7908,7.9228,8.0073,7.9701,8.0615,8.1021,8.0276,8.0851,8.1156,8.0784,8.1426,8.1832,8.1832,8.2543,8.2949,8.2949,8.3287,8.349,8.3524,8.3862,8.4234,8.464,8.5012,8.5384,8.5757,8.5757,8.596,8.6332,8.6332,8.6569,8.6907,8.6907,8.6907,8.6907,8.6907,8.7144,8.7414,8.7042,8.6907,8.6907,8.6907,8.6907,8.6907,8.6907,8.6907,8.6907,8.6907,8.6907,8.6907,8.6907,8.6907,8.6974,8.7347,8.7448,8.755,8.7922,8.7989,8.7989,8.7989,8.7989,8.8091,8.8463,8.8531,8.8632,8.9004,8.9072,8.9072,8.9072,8.8767,8.8666,8.9038,8.9072,8.9072,8.9072,8.9072,8.9241,8.9613,8.9647,8.9647,8.9647,8.9647,8.9478,8.9106,8.9072,8.8903,8.8564,8.8531,8.8192,8.7482,8.6932,8.6653,8.6653,8.6138,8.5917,8.6175,8.4877,8.4318,0.0,0.0,0.0,0.0,0.0,0.0,0.0,0.0,7.2261,7.2576,7.4255,7.6014,7.713,7.8145,7.9194,8.0242,8.0885,8.1122,8.0682,8.1528,8.1799,8.075,8.1156,8.1562,8.1697,8.2137,8.2475,8.2611,8.2611,8.2949,8.3659,8.3862,8.4234,8.4809,8.4979,8.5384,8.5993,8.5993,8.6298,8.6907,8.6907,8.6974,8.711,8.711,8.7211,8.7347,8.7347,8.7347,8.7347,8.7347,8.7685,8.8192,8.8192,8.7854,8.7347,8.7347,8.7347,8.7347,8.7347,8.7347,8.7347,8.7347,8.7347,8.7347,8.7347,8.7347,8.7448,8.8057,8.8192,8.8328,8.8937,8.9072,8.9072,8.9072,8.9072,8.9072,8.9072,8.9072,8.9072,8.9072,8.9072,8.9072,8.9072,8.9072,8.9072,8.9072,8.9072,8.9072,8.9072,8.9072,8.9072,8.9072,8.9072,8.9072,8.9072,8.9072,8.9072,8.9072,8.9072,8.9072,8.9072,8.9072,8.8801,8.8226,8.8192,8.7666,8.6836,8.6724,8.6499,8.6045,8.593,8.5911,7.1577,0.0,0.0,7.2792,7.2636,7.2745,0.0,0.0,7.5567,7.6927,7.8483,7.9431,7.8957,8.0547,8.1765,8.1257,8.1224,8.1494,8.2069,8.1731,8.1596,8.2103,8.2238,8.2543,8.3186,8.2746,8.2678,8.3321,8.3389,8.3693,8.4471,8.5148,8.5554,8.5655,8.6298,8.6704,8.6771,8.6771,8.6839,8.6907,8.6907,8.7245,8.7888,8.7888,8.8226,8.8835,8.8835,8.8835,8.8835,8.8835,8.8869,8.897,8.897,8.8903,8.8835,8.8835,8.8835,8.8835,8.8835,8.8835,8.8835,8.8835,8.8835,8.8835,8.8835,8.8835,8.8869,8.8937,8.897,8.897,8.9072,8.9072,8.9072,8.9072,8.9072,8.9072,8.9072,8.9072,8.9072,8.9072,8.9072,8.9072,8.9072,8.9072,8.9072,8.9072,8.9072,8.9072,8.9072,8.9072,8.9072,8.9072,8.9072,8.9072,8.9072,8.9072,8.9072,8.9072,8.9072,8.9072,8.9072,8.9072,8.9038,8.897,8.8712,8.8451,8.835,8.8156,8.796,8.796,8.7579,8.668,7.63,0.0,0.0,0.0,7.6314,7.6074,7.734,7.7716,7.7904,7.8514,7.9803,8.075,8.0445,8.1494,8.2306,0.0,8.2306,8.2543,8.2441,8.2509,8.2847,8.3592,8.3321,8.3152,8.3456,8.3219,8.3355,8.4099,8.4573,8.4979,8.5283,8.6027,8.6433,8.6433,8.6738,8.711,8.755,8.755,8.7753,8.8158,8.8158,8.8328,8.8632,8.8632,8.9211,8.9996,8.9996,9.0632,9.1611,9.1611,9.1888,9.2269,9.2269,9.1878,9.1193,8.9712,8.9072,8.9072,8.9072,8.9789,9.0577,8.9431,8.99,9.0577,8.9431,8.9072,8.9072,8.9072,8.9072,8.9072,8.9072,8.9072,8.9072,8.9072,8.9072,8.9072,8.9072,8.9072,8.9072,8.9072,8.9444,8.9748,8.9748,9.0087,9.0357,9.0357,8.9647,8.9072,8.9072,8.9478,8.9884,9.0324,9.0357,9.0357,9.0357,9.0357,9.0357,9.0357,9.0357,9.0357,9.0357,9.0357,9.0357,9.0357,9.0243,9.0129,8.9899,8.9783,8.955,8.9231,8.8994,8.8423,8.0358,0.0,0.0,7.9332,7.9228,7.8965,7.8759,7.9274,7.9871,8.0301,8.0885,8.1427,8.1902,8.2377,8.2712,8.2712,8.3152,8.3389,8.305,8.3287,8.3761,8.4539,8.4336,8.4133,8.4133,8.4133,8.437,8.4911,8.5655,8.6095,8.6095,8.6805,8.7211,8.7211,8.7709,8.8048,8.8294,8.8592,8.9049,8.9593,8.9593,8.9703,8.9996,8.9996,9.0391,9.1092,9.1092,9.1882,9.3074,9.3074,9.3425,9.3917,9.3917,9.3513,9.2582,9.0696,8.973,8.9376,8.9376,9.0104,9.0966,8.9814,9.0249,9.0897,8.9542,8.9295,8.9483,8.9184,8.9261,8.9483,8.9184,8.9072,8.914,8.9342,8.9376,8.9444,8.9647,8.9681,8.9681,8.9681,9.0121,9.0493,9.0493,9.0966,9.1305,9.1305,9.0391,8.9681,8.9681,9.0154,9.0729,9.1237,9.1305,9.1305,9.1305,9.1305,9.1305,9.1305,9.1305,9.1305,9.1305,9.1305,9.1305,9.1305,9.1189,9.0958,9.0691,9.0455,9.0219,8.9773,8.9773,8.9652,0.0,0.0,8.0349,7.9648,8.0337,8.1055,8.0242,8.075,8.1766,8.3409,8.2508,8.1766,8.3512,8.3602,8.3456,8.3456,8.349,8.3727,8.4471,8.3964,8.3761,8.4539,8.5283,8.5723,0.0,8.5723,8.5723,8.5757,8.6433,8.6873,8.6873,8.7583,8.7955,8.7955,8.9659,9.0143,8.9038,9.007,9.0674,9.0674,9.0674,9.1195,9.2203,9.2203,9.2203,9.2302,9.2302,9.2302,9.2337,9.2337,9.2337,9.2372,9.2372,9.2372,9.2372,9.2203,9.1368,9.0188,9.0188,8.9715,8.9353,8.9951,8.9681,8.9218,8.9072,8.9779,9.0391,8.9373,8.9887,9.0391,8.9373,8.9072,8.9275,9.0019,9.0188,9.0357,9.1068,9.1237,9.1237,9.1237,9.1237,9.1271,9.1271,9.1271,9.1305,9.1305,9.1271,9.1237,9.1237,9.1237,9.1271,9.1305,9.1305,9.1305,9.1305,9.1305,9.1305,9.1305,9.1305,9.1305,9.1305,9.1305,9.1305,9.1305,9.0724,9.0404,9.0404,8.9773,8.9409,8.9409,8.9409,8.9409,0.0,0.0,8.4485,8.3631,8.3739,8.397,8.3727,8.3866,8.4203,8.4728,8.4785,8.4778,8.4668,8.4961,8.5139,8.5018,8.4573,8.4505,8.5283,8.5182,8.5114,8.5351,8.6061,0.0,0.0,0.0,0.0,8.6643,8.7902,8.8418,8.7617,8.8328,8.8734,8.8734,9.0074,9.0498,9.0177,9.1195,9.1805,9.1805,9.1805,9.2005,9.2302,9.2267,9.2903,9.4137,9.4101,9.5116,9.6796,9.6796,9.7083,9.7585,9.7585,9.7087,9.6374,9.5841,9.4925,9.3694,9.2097,9.2542,9.3606,9.2685,9.3411,9.4343,9.3138,9.2476,9.2192,9.1761,9.1357,9.1057,9.064,9.1169,9.1535,9.1093,9.1544,9.1911,9.1466,9.1305,9.1305,9.1305,9.1711,9.2049,9.2049,9.2455,9.2827,9.2827,9.1947,9.1474,9.1981,9.2049,9.2252,9.2759,9.2827,9.2827,9.2827,9.2827,9.2827,9.2827,9.2827,9.2827,9.2827,9.2827,9.2827,9.2827,9.2592,9.2322,9.1844,9.1602,9.1359,9.0867,9.0867,9.0867,0.0,8.6716,8.6738,8.6418,8.6008,8.5827,8.5827,8.5827,8.5988,8.654,8.6607,8.6452,8.6452,8.6269,8.6263,8.6783,8.6095,8.5852,8.6636,8.6977,8.7045,8.6806,8.7261,8.766,0.0,0.0,0.0,8.7423,8.8974,8.9669,8.8988,8.9431,8.9887,9.0177,9.0884,9.1298,9.1298,9.2267,9.2883,9.2848,9.3546,9.3875,9.3875,9.4124,9.483,9.6006,9.6006,9.6975,9.8585,9.8585,9.8875,9.9346,9.9346,9.892,9.8231,9.7729,9.7109,9.6135,9.4215,9.4446,9.5497,9.4567,9.5187,9.6206,9.4989,9.4347,9.404,9.366,9.3344,9.2916,9.2625,9.2734,9.2912,9.245,9.2518,9.2698,9.228,9.2395,9.2623,9.2232,9.2802,9.3223,9.2944,9.347,9.4079,9.4349,9.3537,9.2895,9.2861,9.2827,9.3131,9.3909,9.3977,9.4079,9.4349,9.4383,9.4383,9.4383,9.4383,9.4383,9.4383,9.4383,9.4383,9.4383,9.4144,9.3749,9.3384,9.3138,9.2767,9.2391,9.2391,9.2391,9.0147,8.886,8.7228,8.7942,8.748,8.6727,8.6798,8.6762,8.7211,8.8877,8.7852,8.7211,0.0,0.0,8.6859,8.8566,8.7958,8.7672,8.8535,8.9191,8.9364,0.0,0.0,0.0,0.0,0.0,0.0,8.8202,0.0,9.0779,9.0674,9.0779,9.1195,9.2168,9.2302,9.24,9.2435,9.3391,9.3979,9.405,9.5801,9.6666,9.6666,9.7427,9.7825,9.7861,9.7861,9.7861,9.7934,9.7934,9.7934,9.7934,9.7934,9.7934,9.7934,9.7934,9.7934,9.7709,9.6393,9.5453,9.4925,9.5629,9.5417,9.4855,9.4855,9.5578,9.6091,9.5053,9.5481,9.5961,9.4954,9.3973,9.3442,9.406,9.3417,9.289,9.3519,9.4511,9.4962,9.384,9.4466,9.4919,9.3908,9.4282,9.4992,9.5702,9.5804,9.5296,9.3876,9.3706,9.3977,9.4687,9.4755,9.506,9.5736,9.5804,9.5804,9.5804,9.5804,9.5804,9.5804,9.5804,9.5804,9.5804,9.5195,9.4824,9.4824,9.4164,9.3782,9.3782,9.3782,9.3782,8.9929,9.0095,9.0547,9.0764,9.0167,8.9857,9.1043,9.0396,8.9688,9.0105,8.9878,8.9438,0.0,0.0,0.0,8.9249,8.8222,0.0,8.9985,9.0434,0.0,0.0,0.0,9.0618,8.9389,8.9381,0.0,0.0,9.0676,9.1603,9.0779,9.1502,9.1949,9.1993,9.2938,9.3733,9.4302,9.5378,9.6177,9.6791,9.7304,9.7499,9.7499,9.7716,9.8115,9.8694,9.8694,9.902,9.96,9.96,9.96,9.96,9.96,9.96,9.96,9.96,9.96,9.9512,9.9208,9.8523,9.7911,9.8091,9.8451,9.8774,9.8774,9.8333,9.7825,9.7597,9.7109,9.6675,9.6371,9.6675,9.6946,9.6308,9.6585,9.6517,9.5047,9.5453,9.5753,9.462,9.5061,9.5553,9.5348,9.5398,9.5567,9.577,9.5804,9.5669,9.5296,9.5229,9.5296,9.5499,9.5533,9.5601,9.577,9.5804,9.5804,9.5804,9.5804,9.5804,9.5804,9.5804,9.5804,9.5804,9.5406,9.5038,9.4824,9.4449,9.4037,9.3782,9.3782,9.3782,9.1378,9.1668,9.1885,9.2247,9.174,9.1269,9.1813,9.1233,9.0581,9.0581,9.0581,0.0,0.0,0.0,0.0,0.0,0.0,0.0,9.2379,9.2472,9.2475,0.0,9.2059,0.0,9.0601,9.0104,8.9996,0.0,9.1603,9.2005,9.14,9.2681,9.3509,9.3387,9.3982,9.4749,9.5701,9.6661,9.7354,9.7789,9.8151,9.8332,9.8332,9.8694,9.9093,9.9527,0.0,9.9781,10.0215,10.0215,10.0215,10.0215,10.0614,10.0722,10.0795,10.1085,10.1302,10.1302,10.1302,10.0976,10.0505,9.9744,9.9853,10.0215,10.0215,9.9786,9.9257,9.9257,9.9098,9.8833,9.8833,9.918,9.9429,9.8803,9.8702,9.8262,9.6601,9.6982,9.7369,9.677,9.6577,9.6637,9.6944,9.6571,9.6379,9.6717,9.6785,9.6785,9.6785,9.621,9.5905,9.6244,9.6277,9.6413,9.6751,9.6785,9.6785,9.6785,9.6785,9.6785,9.6785,9.6785,9.6785,9.6785,9.6383,9.6136,9.6012,9.5509,9.5128,9.5,9.4872,9.4776,9.3153,9.3044,9.2247,9.2863,9.2501,9.1776,9.1088,9.0835,9.0726,9.0618,0.0,0.0,9.1523,0.0,9.1147,9.3543,0.0,9.3193,9.4887,9.495,9.487,9.5071,9.3173,9.2075,9.2185,9.1435,9.1298,9.2203,9.24,9.2497,9.2497,9.4253,9.5413,9.5724,9.5593,9.5988,9.6919,9.7608,9.8006,9.8115,9.8839,9.9165,9.9165,9.9889,10.0215,10.0215,10.0215,10.0288,10.0396,10.0396,10.0396,10.0614,10.1302,10.1592,10.1628,10.228,10.2569,10.2569,10.2569,10.2678,10.2497,10.1012,10.0505,10.0505,10.0505,10.0505,10.0505,10.0505,10.1012,10.1592,10.1592,10.1277,10.1138,10.1138,10.0451,9.9358,9.8214,9.8754,9.9394,9.9499,9.8746,9.8213,9.8607,9.7882,9.7469,9.7901,9.8003,9.8003,9.8003,9.6988,9.648,9.7089,9.7157,9.7428,9.8104,9.807,9.8003,9.8003,9.8003,9.8003,9.8003,9.8003,9.8003,9.8003,9.763,9.7472,9.7472,9.6745,9.6488,9.6488,9.6132,9.6001,9.2247,9.2972,9.366,9.3153,9.2899,9.2754,9.261,9.2066,0.0,0.0,0.0,9.0654,9.0799,9.0638,0.0,9.2637,0.0,0.0,0.0,0.0,9.5841,0.0,0.0,0.0,0.0,0.0,0.0,0.0,0.0,9.3541,9.3541,9.5358,9.6639,9.7354,9.7941,9.8375,9.8585,9.873,9.9129,9.9781,9.9926,9.9998,9.9998,10.0107,10.0215,10.0215,10.0215,0.0,10.1193,10.1193,10.1592,10.2171,10.228,10.2388,10.2388,10.2497,10.2569,10.2569,10.2569,10.3004,10.3402,10.2497,10.2171,10.2171,10.2171,10.2171,10.2171,10.2171,10.228,10.2388,10.2388,10.2334,10.226,10.226,10.2168,10.1723,10.0586,10.0199,10.0377,10.1009,10.0863,10.046,9.9699,9.9388,9.8906,9.8092,9.8003,9.8003,9.8003,9.8307,9.8578,9.8679,9.8713,9.8747,9.8882,9.8341,9.8003,9.8003,9.8003,9.8003,9.8003,9.8003,9.8003,9.8003,9.738,9.7127,9.7127,9.6359,9.6132,9.6132,9.6001,9.6001,9.2935,9.3624,9.4131,9.3732,9.3624,9.3406,9.2573,0.0,0.0,0.0,0.0,9.0726,9.1161,0.0,0.0,0.0,0.0,0.0,0.0,0.0,0.0,0.0,0.0,0.0,0.0,0.0,0.0,0.0,0.0,9.5468,9.4459,9.6182,9.7571,9.8404,9.8803,9.8984,9.8984,9.9419,9.9817,10.0215,10.0215,10.0215,10.0215,10.0215,10.0396,10.0795,10.0795,0.0,10.199,10.199,10.228,10.2606,10.3004,10.3185,10.3185,10.3584,10.3801,10.3801,10.3801,10.4018,10.4308,10.4417,10.3873,10.3185,10.3185,10.2895,10.2569,10.2569,10.2895,10.3185,10.3185,10.3475,10.3801,10.3801,10.3323,10.2754,10.2159,10.1979,10.2027,10.2243,10.1928,10.1248,10.0663,9.9629,9.8633,9.8126,9.8003,9.8003,9.8003,9.8984,9.9525,9.9153,9.8747,9.8679,9.9051,9.8409,9.8003,9.8003,9.8375,9.8578,9.8578,9.895,9.9153,9.9153,9.8776,9.8523,9.8395,9.7914,9.7523,9.7392,9.726,9.7128,9.3298,9.395,9.4167,9.3986,9.4094,9.3805,9.2175,9.1813,0.0,0.0,0.0,0.0,0.0,0.0,0.0,0.0,0.0,0.0,0.0,0.0,0.0,0.0,0.0,0.0,0.0,0.0,0.0,0.0,0.0,0.0,9.6184,9.746,9.8585,9.9237,9.9274,9.9274,9.9274,9.9889,10.0215,10.0215,10.0215,10.0215,10.0215,10.0396,10.0795,10.141,10.1592,0.0,0.0,10.2787,10.2895,10.3185,10.3692,10.3982,10.4018,10.4706,10.4924,10.4924,10.4924,10.4996,10.5322,10.6119,10.5394,10.4199,10.4417,10.4091,10.3584,10.3402,10.3801,10.4199,10.4018,10.4417,10.4924,10.4924,10.4252,10.3635,10.3635,10.3635,10.35,10.323,10.2695,10.2034,10.1248,9.9745,9.8614,9.8329,9.824,9.8307,9.8476,9.9627,10.0202,9.966,9.9085,9.895,9.9525,9.8916,9.8476,9.8476,9.9018,9.9322,9.9322,9.9897,10.0235,10.0235,10.0109,9.9855,9.9598,9.921,9.8818,9.8587,9.8288,9.8188,9.1776,9.3117,9.4022,9.3298,9.366,9.3805,9.2175,0.0,0.0,0.0,9.0581,9.0618,0.0,0.0,0.0,0.0,0.0,0.0,0.0,0.0,0.0,0.0,0.0,0.0,0.0,0.0,0.0,0.0,0.0,0.0,9.9765,9.9837,9.9998,10.0107,10.0107,10.0107,10.0107,10.0215,10.0215,10.0215,10.0215,10.0215,10.0215,10.1012,10.1302,10.141,10.2171,0.0,0.0,10.3584,10.4018,10.4706,10.4815,10.4815,10.4815,10.4887,10.4924,10.4924,10.4924,10.5394,10.6119,10.6916,10.6626,10.601,10.6735,10.6916,10.6698,10.601,10.5829,10.572,10.4996,10.4815,10.4924,10.4924,10.4795,10.4665,10.4665,10.4665,10.4441,10.3401,10.3963,10.3635,10.0439,10.0621,10.0639,9.922,9.8984,9.9254,9.9931,10.0777,10.1284,10.1183,10.1081,10.1081,10.1183,10.0506,10.0032,10.0032,10.01,10.0134,10.0134,10.0202,10.0235,10.0235,9.9565,9.934,9.921,9.8554,9.8288,9.8321,9.8155,9.8188,9.232,9.3696,9.4746,9.3913,9.3986,9.3805,9.2175,0.0,0.0,9.0762,9.0581,9.0581,9.0581,0.0,0.0,0.0,0.0,0.0,0.0,0.0,0.0,0.0,0.0,0.0,0.0,0.0,0.0,0.0,0.0,0.0,10.1592,10.1193,10.0722,10.0215,10.0215,10.0215,10.0215,10.0215,10.0215,10.0215,10.0722,10.0903,10.0903,10.1809,10.2388,10.2823,10.3113,0.0,0.0,10.4417,10.4598,10.4924,10.4924,10.4924,10.4924,10.4924,10.4924,10.4924,10.4924,10.5394,10.6227,10.7024,10.7423,10.7604,10.7894,10.7712,10.7205,10.6916,10.6807,10.6626,10.5829,10.5286,10.4924,10.4924,10.4924,10.4924,10.4924,10.5322,10.5518,10.4972,10.5103,10.4932,10.3517,10.3123,10.2644,10.2087,10.1371,10.1029,10.1337,10.1791,10.2096,10.2096,10.169,10.1386,10.1386,10.0709,10.0235,10.0235,10.0709,10.0912,10.0912,10.1318,10.1622,10.1622,10.1332,10.0976,10.0483,10.0285,9.9851,9.9447,9.9447,9.9447,9.2066,9.3298,9.4203,9.3624,9.3515,9.3189,0.0,0.0,0.0,9.0726,9.0581,9.0581,9.0581,0.0,0.0,0.0,0.0,0.0,0.0,0.0,0.0,0.0,0.0,0.0,0.0,0.0,0.0,0.0,0.0,0.0,10.2569,10.2099,10.1302,10.0215,10.0215,10.0215,10.0215,10.0215,10.0324,10.0614,10.1121,10.1519,10.1809,10.2606,10.3185,10.3692,10.3982,10.4417,0.0,10.4924,10.4924,10.4924,10.4924,10.4924,10.4924,10.4924,10.4924,10.4924,10.4924,10.5394,10.63,10.7314,10.8002,10.8582,10.9306,10.8799,10.8002,10.7712,10.7712,10.7495,10.6988,10.6191,10.5612,10.5612,10.5612,10.5612,10.5612,10.6119,10.6387,10.6029,10.6038,10.5898,10.5212,10.4685,10.4182,10.3834,10.2954,10.2385,10.2231,10.2631,10.2705,10.2502,10.2198,10.2062,10.2062,10.1318,10.0912,10.0912,10.1419,10.169,10.169,10.2198,10.2502,10.2502,10.2373,10.2079,10.1486,10.1353,10.1019,10.0478,10.0341,10.0308,9.04,9.1233,9.1849,9.1849,9.1813,9.1813,0.0,0.0,0.0,9.0581,9.0581,9.0581,9.0581,9.0581,9.1125,0.0,0.0,0.0,0.0,0.0,0.0,0.0,0.0,0.0,0.0,0.0,0.0,0.0,0.0,0.0,10.2606,10.2569,10.1881,10.0288,10.0215,10.0215,10.0215,10.0215,10.0614,10.141,10.141,10.1809,10.2569,10.3402,10.3692,10.3692,10.4525,10.4924,0.0,10.4924,10.4924,10.4924,10.4924,10.4924,10.4924,10.4924,10.4924,10.4924,10.4924,10.5394,10.6409,10.8002,10.8473,10.8908,11.1298,11.09,10.9487,10.869,10.8473,10.8473,10.8473,10.7894,10.7314,10.7314,10.7314,10.7314,10.7314,10.7314,10.7028,10.5862,10.6531,10.6567,10.4255,10.4756,10.5004,10.3461,10.316,10.2952,10.2657,10.3111,10.3314,10.2603,10.3111,10.3585,10.3585,10.2908,10.2502,10.2502,10.2502,10.2502,10.2502,10.2502,10.2502,10.2502,10.2045,10.1881,10.1881,10.1253,10.0884,10.0884,10.0478,10.0308,9.1052,9.203,9.2501,9.1958,9.1813,9.1668,9.1125,0.0,0.0,0.0,9.0581,9.0581,9.0581,9.0581,9.1125,9.2754,9.4131,0.0,0.0,0.0,0.0,0.0,0.0,0.0,0.0,0.0,0.0,0.0,0.0,0.0,10.2678,10.2569,10.1881,10.0288,10.0215,10.0215,10.0215,10.0722,10.1121,10.141,10.2497,10.3113,10.3402,10.4199,10.4489,0.0,10.4815,10.4924,0.0,10.4924,10.4924,10.4924,10.4924,10.4924,10.4924,10.4924,10.4924,10.5105,10.6191,10.6698,10.7205,10.8799,10.9704,11.0175,11.0393,11.0501,11.061,11.09,11.0175,10.9378,10.9994,10.9089,10.8111,10.8111,10.8111,10.8002,10.7423,10.7712,10.7979,10.7726,10.8317,10.8715,10.7951,10.8187,10.7886,10.6562,10.5713,10.4785,10.3879,10.3754,10.3483,10.328,10.3483,10.3382,10.2908,10.2603,10.2502,10.2502,10.2502,10.2502,10.2502,10.2502,10.2502,10.2502,10.2373,10.2209,10.1881,10.1553,10.1019,10.0478,10.0341,10.0308,9.0364,9.1487,9.1958,9.1487,9.1342,0.0,0.0,0.0,0.0,0.0,0.0,0.0,0.0,9.0581,9.1125,9.2754,9.3841,0.0,0.0,0.0,0.0,0.0,0.0,0.0,0.0,0.0,0.0,0.0,0.0,0.0,10.2678,10.228,10.17,10.0722,10.0686,10.0686,10.0686,10.1483,10.199,10.2316,10.3221,10.391,10.4199,10.4706,10.4924,10.4924,10.4924,10.4924,0.0,10.4924,10.4924,10.4924,10.4924,10.4924,10.4924,10.5213,10.5394,10.5503,10.6807,10.7712,10.8401,10.9704,11.1117,11.2095,11.1298,11.1189,11.1515,11.2312,11.1805,11.1189,11.1696,11.061,10.9378,10.9378,10.9197,10.8799,10.8292,10.8582,10.898,10.898,10.9378,10.9704,10.9704,10.934,10.8568,10.7418,10.6212,10.498,10.3755,10.3388,10.3179,10.3179,10.3179,10.3009,10.2502,10.2502,10.2502,10.2502,10.2502,10.2502,10.2502,10.2502,10.2502,10.2502,10.2406,10.2243,10.1881,10.1353,10.0851,10.0308,10.0308,10.0308,0.0,8.9821,9.0545,9.0581,9.0581,9.0581,0.0,0.0,0.0,0.0,0.0,0.0,0.0,9.0654,9.1197,9.2827,0.0,0.0,0.0,0.0,0.0,0.0,0.0,0.0,0.0,0.0,0.0,0.0,0.0,0.0,10.2606,10.1918,10.1519,10.141,10.1519,10.1519,10.1519,10.228,10.3004,10.3692,10.3801,10.4199,10.4924,10.4924,10.4924,0.0,0.0,0.0,0.0,10.4924,10.4924,10.4924,10.4996,10.4996,10.5105,10.5902,10.6227,10.6409,10.7314,10.8509,10.9886,11.0791,11.2602,11.4304,11.3616,11.2892,11.2421,11.3218,11.3326,11.329,11.329,11.2095,11.1008,11.09,11.0284,10.9777,10.9704,10.9704,10.9704,10.9704,10.9704,10.9704,10.9704,10.8669,10.756,10.6324,10.5098,10.3879,10.2665,10.2502,10.2502,10.2502,10.2502,10.2502,10.2502,10.2502,10.2502,10.2502,10.2502,10.2502,10.2502,10.2502,10.2502,10.2502,10.2045,10.1914,10.175,10.1253,10.0749,10.0308,10.0308,10.0308,8.6561,0.0,8.9821,9.0436,9.0581,9.0581,0.0,0.0,0.0,0.0,0.0,0.0,0.0,0.0,0.0,0.0,0.0,0.0,0.0,0.0,0.0,0.0,0.0,0.0,0.0,0.0,0.0,0.0,0.0,10.4018,10.2678,10.3004,10.2606,10.141,10.2497,10.2895,10.228,10.3077,10.3511,10.3692,10.4308,10.4706,10.4924,10.4924,10.4924,0.0,0.0,0.0,10.4924,10.4924,10.4924,10.4996,10.5612,10.5829,10.5902,10.6735,10.7423,10.8111,10.9596,11.0284,11.09,11.2312,11.3109,11.3688,11.4123,11.4123,11.4014,11.4195,11.3797,11.329,11.329,11.2602,11.1696,11.1008,11.0791,11.0393,10.9813,10.9704,10.9704,10.9704,10.9704,10.9704,10.9704,10.8669,10.756,10.6324,10.5098,10.3879,10.2665,10.2502,10.2502,10.2502,10.2502,10.2502,10.2502,10.2502,10.2502,10.2502,10.2502,10.2502,10.2502,10.2502,10.2502,10.2502,10.2045,10.1618,10.112,10.1019,10.0749,10.0308,10.0308,10.0308,8.5692,8.7611,8.9495,8.9929,9.0328,9.0581,9.0581,0.0,0.0,0.0,0.0,0.0,0.0,0.0,0.0,0.0,0.0,0.0,0.0,0.0,0.0,0.0,0.0,0.0,0.0,0.0,0.0,0.0,0.0,10.3982,10.3113,10.3185,10.3004,10.2497,10.3294,10.3511,10.3077,10.391,10.4308,10.4308,10.4706,10.4924,10.4924,10.4924,10.4924,0.0,0.0,0.0,10.4924,10.4924,10.5105,10.5503,10.5902,10.63,10.6735,10.7604,10.8401,10.9197,11.0501,11.1407,11.2203,11.3399,11.3906,11.3906,11.4413,11.4521,11.4521,11.4521,11.3906,11.3399,11.3797,11.3,11.1986,11.1588,11.1189,11.0682,10.9886,10.9704,10.9704,10.9704,10.9704,10.9704,10.9704,10.8189,10.6913,10.6212,10.4624,10.3166,10.2631,10.2502,10.2502,10.2502,10.2502,10.2502,10.2502,10.2502,10.2502,10.2502,10.2502,10.2502,10.2502,10.2502,10.2339,10.1948,10.1651,10.1153,10.058,10.058,10.0444,10.0308,10.0308,10.0308,8.5293,8.7503,8.9386,8.9386,9.0002,9.0581,9.0581,0.0,0.0,0.0,0.0,0.0,0.0,0.0,0.0,0.0,0.0,0.0,0.0,0.0,0.0,0.0,0.0,0.0,0.0,0.0,0.0,0.0,0.0,10.3801,10.3692,10.3185,10.3185,10.3692,10.3801,10.391,10.391,10.4598,10.4924,10.4924,10.4924,10.4924,10.4924,10.4924,10.4924,10.4924,0.0,0.0,10.4924,10.4996,10.5503,10.6119,10.6409,10.6916,10.7604,10.8509,10.9378,11.0211,11.1117,11.2312,11.3399,11.4232,11.4521,11.4521,11.4521,11.4521,11.4521,11.4521,11.4014,11.3616,11.4014,11.3109,11.2022,11.1805,11.1189,11.0501,10.9813,10.9704,10.9704,10.9704,10.9704,10.9704,10.9704,10.7666,10.6064,10.6064,10.4055,10.2502,10.2502,10.2502,10.2502,10.2502,10.2631,10.2759,10.2759,10.2759,10.2759,10.2759,10.2631,10.2502,10.2502,10.2339,10.2079,10.1387,10.1153,10.0749,10.0308,10.0308,10.0308,10.0308,10.0308,10.0308,8.4605,8.7068,8.9386,8.9386,9.0002,9.0581,0.0,0.0,0.0,0.0,0.0,0.0,0.0,0.0,0.0,0.0,0.0,0.0,0.0,0.0,0.0,0.0,0.0,0.0,0.0,0.0,0.0,0.0,0.0,10.4417,10.3692,10.4199,10.4308,10.3692,10.4417,10.4706,10.4706,10.4815,10.4924,10.4924,10.4924,10.4924,10.4924,10.4924,10.4924,10.4924,0.0,10.4924,10.4996,10.5612,10.601,10.6227,10.7604,10.8183,10.8473,10.9994,11.1008,11.1914,11.3399,11.3688,11.3399,11.4232,11.4521,11.4521,11.4521,11.4521,11.4521,11.4521,11.4413,11.4014,11.2819,11.2312,11.1805,11.0393,10.9994,10.9886,10.9704,10.9704,10.9704,10.9704,10.9704,10.9704,10.9704,10.7666,10.6064,10.6064,10.4055,10.2502,10.2502,10.2502,10.2502,10.2502,10.3417,10.3967,10.3967,10.3967,10.3967,10.3967,10.3107,10.2502,10.2502,10.2209,10.1783,10.1387,10.1153,10.0749,10.0308,10.0308,10.0308,10.0308,10.0308,10.0308,8.446,8.667,8.8879,8.9277,9.0654,9.203,0.0,0.0,0.0,0.0,0.0,0.0,0.0,0.0,0.0,0.0,0.0,0.0,0.0,0.0,0.0,0.0,0.0,0.0,0.0,0.0,0.0,0.0,0.0,0.0,10.4417,10.4706,10.4706,10.4417,10.4706,10.4924,10.4924,10.4924,10.4924,10.4924,10.4924,10.4924,10.4924,10.4924,10.4924,10.4924,0.0,10.5503,10.5612,10.6409,10.7024,10.7495,10.8183,10.8799,10.9306,11.0501,11.1696,11.2892,11.3616,11.3906,11.4014,11.4413,11.4521,11.4521,11.4521,11.4521,11.4521,11.4521,11.4195,11.3797,11.3507,11.2783,11.1914,11.1189,11.0682,11.0211,10.9777,10.9704,10.9704,10.9704,10.9704,10.9704,10.9704,10.8189,10.7131,10.7131,10.5564,10.4384,10.4384,10.4384,10.4384,10.4384,10.4945,10.5332,10.5332,10.5332,10.4743,10.3417,10.2853,10.2502,10.2502,10.1914,10.1553,10.1387,10.0884,10.0478,10.0308,10.0308,10.0308,10.0308,10.0308,10.0308,8.4931,8.6851,8.877,8.9966,0.0,0.0,0.0,0.0,0.0,0.0,0.0,0.0,0.0,0.0,0.0,0.0,0.0,0.0,0.0,0.0,0.0,0.0,0.0,0.0,0.0,0.0,0.0,0.0,0.0,0.0,10.5213,10.5213,10.5105,10.4924,10.4924,10.4924,10.4924,10.4924,10.4924,10.4924,10.4924,10.4924,10.4924,10.4924,10.4996,10.5213,10.5829,10.6227,10.6409,10.7205,10.7894,10.8473,10.869,10.9378,11.0284,11.0719,11.1805,11.3,11.3218,11.3616,11.4014,11.4413,11.4521,11.4521,11.4521,11.4521,11.4521,11.4521,11.4123,11.3616,11.3906,11.3218,11.2203,11.1696,11.1189,11.0682,10.9886,10.9704,10.9704,10.9704,10.9704,10.9704,10.9704,10.8669,10.7877,10.7877,10.6877,10.6064,10.6064,10.6064,10.6064,10.6064,10.636,10.6512,10.6512,10.6324,10.5215,10.3107,10.2665,10.2502,10.2502,10.1948,10.1519,10.1387,10.0849,10.0743,10.0606,10.0705,10.0805,10.0805,10.0805,10.0805,8.6235,8.8046,8.9857,9.2175,9.232,0.0,0.0,0.0,0.0,0.0,0.0,0.0,0.0,0.0,0.0,0.0,0.0,0.0,0.0,0.0,0.0,0.0,0.0,0.0,0.0,0.0,0.0,0.0,0.0,0.0,10.601,10.601,10.572,10.4924,10.4924,10.4924,10.4924,10.4924,10.4924,10.4924,10.4924,10.4924,10.4924,10.4924,10.5322,10.601,10.6119,10.6517,10.7314,10.8111,10.8401,10.8582,10.9306,11.0574,11.1805,11.1189,11.1407,11.2312,11.3,11.2819,11.2493,11.4014,11.4521,11.4521,11.4521,11.4521,11.4521,11.4521,11.4521,11.4123,11.2602,11.2711,11.2602,11.0393,11.0393,11.0682,10.9886,10.9704,10.9704,10.9704,10.9704,10.9704,10.9704,10.8669,10.7877,10.7877,10.6877,10.6064,10.6064,10.6064,10.6064,10.6064,10.7095,10.7807,10.7807,10.6733,10.5494,10.4367,10.3039,10.2502,10.2502,10.2079,10.175,10.1387,10.1686,10.1643,10.1335,10.2031,10.2329,10.2329,10.2329,10.2329,8.6561,8.8589,0.0,9.1885,9.3153,0.0,0.0,9.5616,9.605,0.0,0.0,0.0,0.0,0.0,0.0,0.0,0.0,0.0,0.0,0.0,0.0,0.0,0.0,0.0,0.0,0.0,0.0,0.0,0.0,0.0,10.6119,10.5612,10.5213,10.4924,10.4924,10.4924,10.4924,10.4924,10.4924,10.4924,10.4924,10.4924,10.4924,10.5394,10.5829,10.6191,10.7205,10.7785,10.8111,10.8908,10.9197,10.9306,11.0103,11.0791,11.1407,11.1588,11.2203,11.2892,11.3218,11.3399,11.3725,11.4304,11.4521,11.4521,11.4521,11.4521,11.4521,11.4521,11.4521,11.4413,11.3797,11.3399,11.2928,11.1515,11.1008,11.0682,10.9886,10.9704,10.9704,10.9704,10.9704,10.9704,10.9704,10.934,10.9007,10.9007,10.8633,10.8292,10.8292,10.8292,10.8292,10.8292,10.9238,10.9799,10.9799,10.9054,10.8252,10.6961,10.4556,10.3179,10.3179,10.3356,10.3195,10.2793,10.2653,10.2545,10.213,10.2395,10.2527,10.2527,10.2527,10.2527,8.7322,8.9386,0.0,0.0,0.0,0.0,9.7752,9.7752,9.7752,9.9093,0.0,0.0,0.0,0.0,0.0,0.0,0.0,0.0,0.0,0.0,0.0,0.0,0.0,0.0,0.0,0.0,0.0,0.0,0.0,0.0,0.0,10.572,10.5213,10.4924,10.4924,10.4924,10.4924,10.4924,10.4924,10.4924,10.5213,10.5322,10.5322,10.5829,10.6409,10.6916,10.8002,10.8582,10.8908,10.9487,10.9704,10.9777,11.0284,11.0682,11.1008,11.1515,11.2203,11.3,11.3218,11.3688,11.4195,11.4413,11.4521,11.4521,11.4521,11.4703,11.492,11.492,11.5101,11.521,11.492,11.4087,11.3109,11.2312,11.1696,11.1117,11.061,11.0501,11.0501,11.0501,11.0501,11.0501,11.0501,11.0501,11.0501,11.0501,11.0501,11.0501,11.0501,11.0501,11.0501,11.0501,11.1008,11.1298,11.1298,11.0649,10.9835,10.8532,10.6175,10.4646,10.3957,10.4132,10.4169,10.3766,10.3728,10.3382,10.2966,10.3057,10.3223,10.3223,10.3223,10.3223,8.8734,9.0581,0.0,0.0,0.0,0.0,0.0,9.902,9.9237,9.9998,0.0,0.0,0.0,0.0,0.0,0.0,0.0,0.0,0.0,0.0,0.0,0.0,0.0,0.0,0.0,0.0,0.0,0.0,0.0,0.0,0.0,10.6517,10.572,10.4924,10.4924,10.4924,10.4924,10.4924,10.4924,10.4924,10.572,10.6119,10.6119,10.6119,10.6988,10.8473,10.8473,10.898,10.9704,10.9704,10.9704,10.9704,10.9704,11.0211,11.09,11.09,11.1407,11.2203,11.3,11.329,11.3399,11.4232,11.4521,11.4521,11.4521,11.5101,11.568,11.568,11.6296,11.6695,11.5898,11.4485,11.3109,11.2312,11.2095,11.2095,11.2095,11.2095,11.2095,11.2095,11.2095,11.2095,11.2095,11.2095,11.2095,11.2095,11.2095,11.2095,11.2095,11.2095,11.2095,11.2095,11.2095,11.2095,11.2095,11.0937,10.9835,10.8532,10.8001,10.6738,10.4866,10.4667,10.4603,10.4169,10.4436,10.453,10.4182,10.4458,10.4681,10.4681,10.4681,10.4681,8.8082,0.0,0.0,0.0,0.0,0.0,0.0,9.9817,0.0,0.0,0.0,0.0,0.0,0.0,0.0,0.0,0.0,0.0,0.0,0.0,0.0,0.0,0.0,0.0,0.0,0.0,0.0,0.0,0.0,0.0,0.0,10.601,10.5105,10.4924,10.4924,10.4924,10.4924,10.4924,10.5213,10.572,10.601,10.6119,10.6119,10.7278,10.8002,10.8473,10.9089,10.9487,10.9704,10.9704,10.9704,10.9777,11.0284,11.0682,11.1008,11.2203,11.2711,11.3109,11.3906,11.4123,11.4195,11.4413,11.4521,11.4521,11.4521,11.5101,11.568,11.568,11.6296,11.6803,11.6586,11.5789,11.4594,11.329,11.3797,11.4195,11.2493,11.2529,11.2928,11.2928,11.2493,11.2312,11.2819,11.2493,11.2095,11.2095,11.2095,11.2312,11.2892,11.2928,11.2928,11.2928,11.2928,11.2928,11.2928,11.3096,11.2233,11.0184,10.9888,10.8466,10.5645,10.5986,10.6123,10.5785,10.5542,10.5333,10.4981,10.4757,10.4681,10.4681,10.4681,10.4681,8.9531,0.0,0.0,0.0,0.0,0.0,0.0,0.0,0.0,0.0,0.0,0.0,0.0,0.0,0.0,0.0,0.0,0.0,0.0,0.0,0.0,0.0,0.0,0.0,0.0,0.0,0.0,0.0,0.0,0.0,0.0,10.5793,10.4924,10.4924,10.4924,10.4924,10.4924,10.5213,10.5612,10.6119,10.6698,10.7097,10.7097,10.8075,10.869,10.898,10.9487,10.9704,10.9704,10.9704,10.9886,11.0211,11.0393,11.061,11.1081,11.2312,11.2819,11.3,11.4123,11.4703,11.492,11.4594,11.4703,11.4992,11.4992,11.5499,11.6187,11.6586,11.7202,11.7709,11.7491,11.7202,11.6695,11.5101,11.521,11.5391,11.4304,11.4413,11.4703,11.4703,11.4304,11.4087,11.4195,11.4087,11.3906,11.358,11.3797,11.4087,11.4195,11.4304,11.4123,11.3797,11.4087,11.4087,11.3797,11.4521,11.4017,11.1546,11.0969,10.9566,10.7113,10.6863,10.6765,10.6663,10.6116,10.5667,10.5561,10.4998,10.4681,10.4681,10.4681,10.4681,0.0,0.0,0.0,0.0,0.0,0.0,0.0,0.0,0.0,0.0,0.0,0.0,0.0,0.0,0.0,0.0,0.0,0.0,0.0,0.0,0.0,0.0,0.0,0.0,0.0,0.0,0.0,0.0,0.0,0.0,0.0,10.5829,10.4996,10.4924,10.4924,10.4924,10.4996,10.572,10.6191,10.63,10.7785,10.8509,10.8582,10.8582,10.898,10.9704,10.9704,10.9704,10.9704,10.9777,11.0211,11.0719,11.0103,11.0284,11.1081,11.1805,11.2203,11.2493,11.4123,11.5101,11.5572,11.4811,11.521,11.5789,11.568,11.6296,11.7202,11.789,11.8614,11.9012,11.8397,11.8687,11.8831,11.7419,11.6586,11.6187,11.6803,11.6984,11.6984,11.6984,11.6984,11.6695,11.5898,11.6369,11.6477,11.568,11.6296,11.6586,11.5898,11.568,11.5499,11.492,11.5282,11.5282,11.4703,11.521,11.4763,11.2732,11.1396,11.0103,10.8851,10.763,10.69,10.6934,10.6254,10.584,10.584,10.4932,10.4681,10.4681,10.4681,10.4681,0.0,0.0,0.0,0.0,0.0,0.0,0.0,0.0,0.0,0.0,0.0,0.0,0.0,0.0,0.0,0.0,0.0,0.0,0.0,0.0,0.0,0.0,0.0,0.0,0.0,0.0,0.0,0.0,0.0,0.0,10.7314,10.6409,10.5612,10.4924,10.4924,10.5213,10.5829,10.601,10.6698,0.0,10.8292,10.8799,10.9378,10.9378,10.9487,10.9704,10.9704,10.9704,10.9704,11.0393,11.0393,10.9994,11.0501,11.1117,11.1914,11.2022,11.2892,11.4123,11.5101,11.5572,11.568,11.5499,11.597,11.6477,11.5898,11.6695,11.789,11.8071,11.8614,11.9194,11.9012,11.9121,11.9121,11.8795,11.8614,11.8216,11.7093,11.7383,11.7781,11.7781,11.731,11.6803,11.6695,11.6296,11.568,11.492,11.5391,11.6079,11.6586,11.6079,11.6079,11.7202,11.5789,11.492,11.5391,11.4992,11.4046,11.2732,11.1396,11.0103,10.8851,10.763,10.6799,10.6527,10.6083,10.5701,10.5421,10.4965,10.4681,10.4681,10.4681,10.4681,0.0,0.0,0.0,0.0,0.0,0.0,0.0,0.0,0.0,0.0,0.0,0.0,0.0,0.0,0.0,0.0,0.0,0.0,0.0,0.0,0.0,0.0,0.0,0.0,0.0,0.0,0.0,0.0,0.0,10.7712,10.7314,10.6191,10.5322,10.4924,10.5322,10.572,10.6119,10.6916,10.7676,10.8473,10.8871,10.9306,10.9704,10.9704,10.9704,10.9704,11.0103,11.0103,10.9777,11.1008,11.1189,11.09,11.1298,11.1986,11.2711,11.2711,11.3218,11.4123,11.5282,11.597,11.6296,11.6296,11.6803,11.7383,11.6984,11.7383,11.8179,11.8505,11.8904,11.923,11.923,11.923,11.923,11.923,11.923,11.9012,11.8216,11.8324,11.8614,11.8614,11.8288,11.789,11.7491,11.7093,11.6803,11.6803,11.7093,11.7383,11.7491,11.7093,11.6984,11.7491,11.6695,11.6115,11.568,11.568,11.5042,11.3589,11.1738,11.0553,11.0262,10.8029,10.6765,10.6629,10.6116,10.5667,10.5528,10.4998,10.4681,10.4681,10.4681,10.4681,0.0,0.0,0.0,0.0,0.0,0.0,0.0,0.0,0.0,0.0,0.0,0.0,0.0,0.0,0.0,0.0,0.0,0.0,0.0,0.0,0.0,0.0,0.0,0.0,0.0,0.0,0.0,0.0,0.0,10.7604,10.7314,10.601,10.5286,10.5105,10.5793,10.6227,10.6517,10.7785,10.8582,10.869,10.9378,10.9704,10.9704,10.9813,10.9813,10.9704,11.0574,11.0393,10.9813,11.1407,11.1914,11.1696,11.2095,11.2602,11.3109,11.3218,11.3399,11.3725,11.5282,11.6296,11.6876,11.7093,11.76,11.8288,11.8107,11.8179,11.8397,11.9012,11.923,11.923,11.923,11.923,11.923,11.923,11.923,11.923,11.923,11.923,11.923,11.923,11.9121,11.8795,11.8216,11.7998,11.8107,11.8723,11.8795,11.8614,11.8179,11.7998,11.7709,11.731,11.7672,11.7383,11.6187,11.6586,11.6296,11.4992,11.2536,11.1401,11.2033,10.8933,10.7204,10.6968,10.615,10.5634,10.5667,10.4965,10.4681,10.4681,10.4681,10.4681,0.0,0.0,0.0,0.0,0.0,0.0,0.0,0.0,0.0,0.0,0.0,0.0,0.0,0.0,0.0,0.0,0.0,0.0,0.0,0.0,0.0,0.0,0.0,0.0,0.0,0.0,0.0,0.0,10.9487,10.8799,10.7423,10.7133,10.6698,10.601,10.601,10.6807,10.8183,10.8401,10.8799,10.9487,10.9596,10.9704,10.9704,11.0393,11.0393,10.9704,11.0574,11.0393,10.9813,11.1407,11.1298,11.0211,11.2312,11.2819,11.2312,11.3,11.3725,11.4594,11.6187,11.6803,11.6984,11.7709,11.8397,11.8904,11.8288,11.8505,11.9121,11.9194,11.923,11.923,11.923,11.923,11.923,11.923,11.923,11.923,11.923,11.923,11.923,11.923,11.8687,11.8216,11.8107,11.7491,11.7093,11.7202,11.7202,11.7383,11.7998,11.7491,11.7491,11.8795,11.7781,11.7274,11.7709,11.7202,11.6803,11.6586,11.41,11.27,11.2805,11.0236,10.842,10.7471,10.6452,10.5528,10.479,10.4648,10.4681,10.4681,10.4681,10.4681,0.0,0.0,0.0,0.0,0.0,0.0,0.0,0.0,0.0,0.0,0.0,0.0,0.0,0.0,0.0,0.0,0.0,0.0,0.0,0.0,0.0,0.0,0.0,0.0,0.0,0.0,0.0,0.0,10.9306,10.869,10.8002,10.7531,10.7133,10.6807,10.7205,10.7785,10.8473,10.9378,11.0211,11.1008,11.0103,10.9886,11.0393,11.1189,11.1117,11.0393,11.1189,11.1407,11.1117,11.2312,11.2385,11.1914,11.3906,11.4195,11.3507,11.4304,11.4884,11.5318,11.6477,11.7202,11.7709,11.8505,11.8904,11.9121,11.8795,11.8904,11.923,11.923,11.923,11.923,11.923,11.923,11.923,11.923,11.923,11.923,11.923,11.923,11.923,11.923,11.8904,11.8723,11.8723,11.8397,11.8216,11.8216,11.8216,11.8288,11.8687,11.8397,11.8397,11.9121,11.8614,11.8179,11.8107,11.7781,11.7383,11.6876,11.5236,11.4289,11.4714,11.2529,11.0662,10.8863,10.73,10.5962,10.4965,10.4823,10.4681,10.4681,10.4681,10.4681,0.0,0.0,0.0,0.0,0.0,0.0,0.0,0.0,0.0,0.0,0.0,0.0,0.0,0.0,0.0,0.0,0.0,0.0,0.0,0.0,0.0,0.0,0.0,0.0,0.0,0.0,0.0,0.0,10.9089,10.869,10.8473,10.8111,10.7821,10.7604,10.8401,10.8799,10.8799,10.9994,11.09,11.1479,11.0284,11.0103,11.09,11.1696,11.1914,11.1515,11.2095,11.2312,11.2203,11.3,11.329,11.3507,11.5101,11.521,11.463,11.5608,11.5898,11.5789,11.6876,11.76,11.8216,11.9012,11.923,11.923,11.923,11.923,11.923,11.923,11.923,11.923,11.923,11.923,11.923,11.923,11.923,11.923,11.923,11.923,11.923,11.923,11.923,11.923,11.923,11.923,11.923,11.923,11.923,11.923,11.923,11.923,11.923,11.923,11.923,11.9012,11.8397,11.8397,11.8107,11.7491,11.6284,11.5799,11.6405,11.4564,11.2489,11.0349,10.8524,10.685,10.5107,10.479,10.4681,10.4681,10.4681,10.4681,0.0,0.0,0.0,0.0,0.0,0.0,0.0,0.0,0.0,0.0,0.0,0.0,0.0,0.0,0.0,0.0,0.0,0.0,0.0,0.0,0.0,0.0,0.0,0.0,0.0,0.0,0.0,0.0,10.9668,10.9306,10.8509,10.9197,10.9197,10.8473,10.9197,10.9596,10.9596,10.9704,10.9777,10.9813,10.9704,11.0103,11.09,11.1696,11.2493,11.3218,11.3218,11.2819,11.2203,11.3,11.329,11.3507,11.5101,11.521,11.4703,11.6296,11.6369,11.5898,11.7491,11.8107,11.8216,11.9012,11.923,11.923,11.923,11.923,11.923,11.923,11.923,11.923,11.923,11.923,11.923,11.923,11.923,11.923,11.923,11.923,11.923,11.923,11.923,11.923,11.923,11.923,11.923,11.923,11.923,11.923,11.923,11.923,11.923,11.923,11.923,11.9194,11.9121,11.9121,11.9121,11.9121,11.7899,11.719,11.719,11.5664,11.3593,11.1169,10.9949,10.7842,10.4681,10.4681,10.4681,10.4681,10.4681,10.4681,0.0,0.0,0.0,0.0,0.0,0.0,0.0,0.0,0.0,0.0,0.0,0.0,0.0,0.0,0.0,0.0,0.0,0.0,0.0,0.0,0.0,0.0,0.0,0.0,0.0,0.0,0.0,0.0,0.0,10.9596,10.9306,10.9994,11.0284,10.9994,11.0284,11.0501,11.0501,11.0501,11.0719,11.1189,11.1189,11.1407,11.1696,11.2493,11.3,11.3326,11.3833,11.3906,11.3688,11.4014,11.4413,11.4992,11.6586,11.6695,11.6187,11.7274,11.7491,11.731,11.789,11.8397,11.8831,11.9121,11.923,11.923,11.923,11.923,11.923,11.923,11.923,11.923,11.923,11.923,11.923,11.923,11.923,11.923,11.923,11.923,11.923,11.923,11.923,11.923,11.923,11.923,11.923,11.923,11.923,11.923,11.923,11.923,11.923,11.923,11.923,11.923,11.923,11.923,11.923,11.923,11.8769,11.8481,11.8481,11.7785,11.6143,11.3738,11.2331,10.9541,10.5409,10.4913,10.4681,10.4681,10.4681,10.4681,8.8626,0.0,0.0,0.0,0.0,0.0,0.0,0.0,0.0,0.0,0.0,0.0,0.0,0.0,0.0,0.0,0.0,0.0,0.0,0.0,0.0,0.0,0.0,0.0,0.0,0.0,0.0,0.0,0.0,0.0,10.9704,11.0682,11.1407,11.1696,11.1189,11.1008,11.1298,11.1008,11.1298,11.2095,11.2095,11.2203,11.2493,11.3109,11.3399,11.3725,11.4594,11.492,11.492,11.492,11.5499,11.6586,11.7709,11.7781,11.7383,11.8179,11.8288,11.8107,11.8397,11.8795,11.923,11.923,11.923,11.923,11.923,11.923,11.923,11.923,11.923,11.923,11.923,11.923,11.923,11.923,11.923,11.923,11.923,11.923,11.923,11.923,11.923,11.923,11.923,11.923,11.923,11.923,11.923,11.923,11.923,11.923,11.923,11.923,11.923,11.923,11.923,11.923,11.923,11.923,11.923,11.923,11.923,11.8948,11.7681,11.5636,11.3436,11.0656,10.7122,10.5829,10.4913,10.4681,10.4979,10.5078,0.0,0.0,0.0,0.0,0.0,0.0,0.0,0.0,0.0,0.0,0.0,0.0,0.0,0.0,0.0,0.0,0.0,0.0,0.0,0.0,0.0,0.0,0.0,0.0,0.0,0.0,0.0,0.0,10.9704,10.9704,10.9704,11.1189,11.2493,11.329,11.1805,11.1298,11.2095,11.1298,11.1298,11.2095,11.2095,11.2602,11.329,11.3326,11.3797,11.4594,11.5391,11.568,11.5789,11.5789,11.6695,11.8107,11.8107,11.8107,11.8216,11.8904,11.8723,11.8216,11.9012,11.923,11.923,11.923,11.923,11.923,11.923,11.923,11.923,11.923,11.923,11.923,11.923,11.923,11.923,11.923,11.923,11.923,11.923,11.923,11.923,11.923,11.923,11.923,11.923,11.923,11.923,11.923,11.923,11.923,11.923,11.923,11.923,11.923,11.923,11.923,11.923,11.923,11.923,11.923,11.923,11.923,11.923,11.8697,11.7708,11.6297,11.3659,11.1504,11.008,10.7156,10.5409,10.4714,10.5409,10.5774,8.7177,0.0,0.0,0.0,0.0,0.0,0.0,0.0,0.0,0.0,0.0,0.0,0.0,0.0,0.0,0.0,0.0,0.0,0.0,0.0,0.0,0.0,0.0,0.0,0.0,0.0,0.0,0.0,10.9704,10.9704,10.9704,11.1189,11.2493,11.329,11.2312,11.1914,11.2095,11.1914,11.1588,11.1298,11.3,11.3326,11.2493,11.3616,11.4594,11.5391,11.5572,11.6369,11.7383,11.7383,11.7709,11.8179,11.8687,11.8904,11.8904,11.9121,11.9121,11.8904,11.9121,11.923,11.923,11.923,11.923,11.923,11.923,11.923,11.923,11.923,11.923,11.923,11.923,11.923,11.923,11.923,11.923,11.923,11.923,11.923,11.923,11.923,11.923,11.923,11.923,11.923,11.923,11.923,11.923,11.923,11.923,11.923,11.923,11.923,11.923,11.923,11.923,11.923,11.923,11.923,11.923,11.9088,11.8876,11.8589,11.7596,11.606,11.3963,11.2019,11.008,10.7156,10.5708,10.5476,10.5178,10.4979,8.7177,8.8522,8.9863,0.0,0.0,0.0,0.0,0.0,0.0,0.0,0.0,0.0,0.0,0.0,0.0,0.0,0.0,0.0,0.0,0.0,0.0,0.0,0.0,0.0,0.0,10.9704,10.9704,10.9704,10.9704,10.9994,11.0682,11.1588,11.2602,11.3797,11.3,11.2819,11.3109,11.2819,11.2493,11.2421,11.3797,11.4014,11.3109,11.3725,11.4594,11.568,11.568,11.6586,11.8107,11.8397,11.8614,11.8614,11.9012,11.923,11.923,11.923,11.923,11.923,11.923,11.923,11.923,11.923,11.923,11.923,11.923,11.923,11.923,11.923,11.923,11.923,11.923,11.923,11.923,11.923,11.923,11.923,11.923,11.923,11.923,11.923,11.923,11.923,11.923,11.923,11.923,11.923,11.923,11.923,11.923,11.923,11.923,11.923,11.923,11.923,11.923,11.923,11.923,11.923,11.923,11.9124,11.8769,11.8553,11.7892,11.6721,11.4461,11.1819,10.8869,10.7069,10.6105,10.5774,10.5012,10.4879,8.8268,8.9076,9.0061,9.135,0.0,0.0,0.0,0.0,0.0,0.0,0.0,0.0,0.0,0.0,0.0,0.0,0.0,0.0,0.0,0.0,0.0,0.0,0.0,0.0,10.9487,10.9596,10.9596,10.9704,10.9704,11.0393,11.1914,11.2095,11.2819,11.4304,11.3725,11.3725,11.4521,11.3725,11.3688,11.4413,11.4521,11.4521,11.4304,11.3797,11.4413,11.5789,11.5898,11.6803,11.8288,11.8904,11.923,11.923,11.923,11.923,11.923,11.923,11.923,11.923,11.923,11.923,11.923,11.923,11.923,11.923,11.923,11.923,11.923,11.923,11.923,11.923,11.923,11.923,11.923,11.923,11.923,11.923,11.923,11.923,11.923,11.923,11.923,11.923,11.923,11.923,11.923,11.923,11.923,11.923,11.923,11.923,11.923,11.923,11.923,11.923,11.923,11.923,11.923,11.923,11.923,11.8982,11.8841,11.848,11.8115,11.7632,11.4448,11.0834,10.69,10.6801,10.6403,10.5674,10.4979,10.5078,0.0,0.0,0.0,0.0,0.0,0.0,0.0,0.0,0.0,0.0,0.0,0.0,0.0,0.0,0.0,0.0,0.0,0.0,0.0,0.0,0.0,0.0,0.0,0.0,10.869,10.869,10.898,10.9668,10.9704,11.0103,11.1081,11.1696,11.2493,11.3507,11.3399,11.3725,11.4521,11.3725,11.3399,11.3507,11.4195,11.4195,11.3616,11.4703,11.5789,11.6695,11.7383,11.8107,11.9012,11.9121,11.923,11.923,11.923,11.923,11.923,11.923,11.923,11.923,11.923,11.923,11.923,11.923,11.923,11.923,11.923,11.923,11.923,11.923,11.923,11.923,11.923,11.923,11.923,11.923,11.923,11.923,11.923,11.923,11.923,11.923,11.923,11.923,11.923,11.923,11.923,11.923,11.923,11.923,11.923,11.923,11.923,11.923,11.923,11.923,11.923,11.923,11.923,11.923,11.9018,11.8841,11.848,11.8186,11.7255,11.589,11.2548,10.9493,10.69,10.6304,10.5608,10.4879,10.478,10.478,0.0,0.0,0.0,9.0793,0.0,0.0,0.0,0.0,0.0,0.0,0.0,0.0,0.0,0.0,0.0,0.0,0.0,0.0,0.0,0.0,0.0,0.0,0.0,0.0,10.7278,10.7712,10.8219,10.898,10.9487,11.0103,11.09,11.1696,11.2493,11.329,11.3725,11.4123,11.4521,11.4123,11.3906,11.3906,11.4304,11.4304,11.3906,11.4703,11.5789,11.6876,11.731,11.8107,11.923,11.923,11.923,11.923,11.923,11.923,11.923,11.923,11.923,11.923,11.923,11.923,11.923,11.923,11.923,11.923,11.923,11.923,11.923,11.923,11.923,11.923,11.923,11.923,11.923,11.923,11.923,11.923,11.923,11.923,11.923,11.923,11.923,11.923,11.923,11.923,11.923,11.923,11.923,11.923,11.923,11.923,11.923,11.923,11.923,11.923,11.923,11.923,11.923,11.923,11.8876,11.8697,11.8371,11.804,11.6792,11.4334,11.1272,10.8708,10.69,10.5774,10.5078,10.4681,10.4681,10.4681,0.0,0.0,0.0,0.0,0.0,9.1655,0.0,0.0,0.0,0.0,0.0,0.0,0.0,0.0,0.0,0.0,0.0,0.0,0.0,0.0,0.0,0.0,0.0,0.0,0.0,10.6517,10.7495,10.8401,10.9089,10.9813,11.061,11.1588,11.2385,11.3,11.4014,11.4521,11.4521,11.4521,11.4521,11.4521,11.4521,11.4594,11.4703,11.492,11.5789,11.7093,11.7274,11.7998,11.923,11.923,11.923,11.923,11.923,11.923,11.923,11.923,11.923,11.923,11.923,11.923,11.923,11.923,11.923,11.923,11.923,11.923,11.923,11.923,11.923,11.923,11.923,11.923,11.923,11.923,11.923,11.923,11.923,11.923,11.923,11.923,11.923,11.923,11.923,11.923,11.923,11.923,11.923,11.923,11.923,11.923,11.923,11.923,11.923,11.923,11.923,11.923,11.923,11.923,11.8912,11.8553,11.8371,11.7816,11.6011,11.307,11.0324,10.8304,10.69,10.5409,10.4681,10.4681,10.4681,10.4681,0.0,0.0,0.0,0.0,9.2132,0.0,0.0,0.0,0.0,0.0,0.0,0.0,0.0,0.0,0.0,0.0,0.0,0.0,0.0,0.0,0.0,0.0,0.0,0.0,0.0,10.5322,10.6916,10.8401,10.8582,10.898,10.9777,11.1298,11.2095,11.2203,11.3725,11.4521,11.4521,11.4521,11.4521,11.4521,11.4521,11.4884,11.5572,11.6296,11.7093,11.7998,11.8687,11.9012,11.923,11.923,11.923,11.923,11.923,11.923,11.923,11.923,11.923,11.923,11.923,11.923,11.923,11.923,11.923,11.923,11.923,11.923,11.923,11.923,11.923,11.923,11.923,11.923,11.923,11.923,11.923,11.923,11.923,11.923,11.923,11.923,11.923,11.923,11.923,11.923,11.923,11.923,11.923,11.923,11.923,11.923,11.923,11.923,11.923,11.923,11.923,11.923,11.923,11.923,11.8661,11.8335,11.8371,11.6675,11.4299,11.1475,10.9812,10.8304,10.69,10.5409,10.4681,10.4681,10.4681,10.4681,0.0,0.0,0.0,0.0,0.0,0.0,9.0557,0.0,9.081,0.0,0.0,0.0,0.0,0.0,0.0,0.0,9.4276,0.0,0.0,0.0,9.9237,0.0,0.0,0.0,0.0,0.0,0.0,0.0,10.8002,10.8582,10.898,11.1008,11.2095,11.2095,11.3688,11.4521,11.4521,11.4521,11.4521,11.4521,11.4521,11.492,11.568,11.6477,11.731,11.8107,11.8904,11.923,11.923,11.923,11.923,11.923,11.923,11.923,11.923,11.923,11.923,11.923,11.923,11.923,11.923,11.923,11.923,11.923,11.923,11.923,11.923,11.923,11.923,11.923,11.923,11.923,11.923,11.923,11.923,11.923,11.923,11.923,11.923,11.923,11.923,11.923,11.923,11.923,11.923,11.923,11.923,11.923,11.923,11.923,11.923,11.923,11.923,11.923,11.923,11.923,11.9088,11.9018,11.8444,11.7667,11.6639,11.4736,11.2645,11.0553,10.8298,10.6922,10.6271,10.5178,10.4681,10.4681,10.4681,10.4681,9.5725,0.0,0.0,0.0,0.0,0.0,0.0,0.0,0.0,0.0,0.0,0.0,0.0,0.0,0.0,0.0,0.0,9.2655,0.0,0.0,0.0,0.0,0.0,0.0,0.0,0.0,0.0,0.0,0.0,10.8111,10.8799,11.0682,11.1914,11.2095,11.3399,11.4304,11.4521,11.4521,11.4521,11.4521,11.4521,11.4992,11.6006,11.6586,11.7383,11.8397,11.9012,11.923,11.923,11.923,11.923,11.923,11.923,11.923,11.923,11.923,11.923,11.923,11.923,11.923,11.923,11.923,11.923,11.923,11.923,11.923,11.923,11.923,11.923,11.923,11.923,11.923,11.923,11.923,11.923,11.923,11.923,11.923,11.923,11.923,11.923,11.923,11.923,11.923,11.923,11.923,11.923,11.923,11.923,11.923,11.923,11.923,11.923,11.923,11.923,11.923,11.9161,11.8697,11.8261,11.706,11.4873,11.3059,11.144,10.9588,10.7079,10.5807,10.5807,10.5078,10.4681,10.4681,10.4681,10.4681,0.0,0.0,0.0,9.5804,0.0,0.0,0.0,0.0,9.4143,0.0,0.0,0.0,0.0,0.0,0.0,0.0,0.0,0.0,0.0,0.0,0.0,0.0,0.0,0.0,0.0,0.0,0.0,0.0,0.0,0.0,10.9487,11.0501,11.1298,11.2095,11.2892,11.3725,11.4521,11.4521,11.4521,11.4521,11.4521,11.5318,11.6876,11.6876,11.7709,11.9194,11.923,11.923,11.923,11.923,11.923,11.923,11.923,11.923,11.923,11.923,11.923,11.923,11.923,11.923,11.923,11.923,11.923,11.923,11.923,11.923,11.923,11.923,11.923,11.923,11.923,11.923,11.923,11.923,11.923,11.923,11.923,11.923,11.923,11.923,11.923,11.923,11.923,11.923,11.923,11.923,11.923,11.923,11.923,11.923,11.923,11.923,11.923,11.923,11.923,11.923,11.9018,11.8444,11.8151,11.6486,11.3562,11.2541,11.0868,10.8107,10.6569,10.5807,10.5807,10.5078,10.4681,10.4681,10.4681,10.4681,0.0,0.0,10.0319,9.7089,0.0,0.0,0.0,0.0,0.0,0.0,0.0,0.0,0.0,0.0,0.0,0.0,0.0,0.0,0.0,0.0,0.0,0.0,0.0,0.0,0.0,0.0,0.0,0.0,0.0,0.0,0.0,10.9704,11.1008,11.2819,11.3218,11.3725,11.4521,11.4521,11.4521,11.4521,11.4521,11.5318,11.6876,11.6876,11.7709,11.923,11.923,11.923,11.923,11.923,11.923,11.923,11.923,11.923,11.923,11.923,11.923,11.923,11.923,11.923,11.923,11.923,11.923,11.923,11.923,11.923,11.923,11.923,11.923,11.923,11.923,11.923,11.923,11.923,11.923,11.923,11.923,11.923,11.923,11.923,11.923,11.923,11.923,11.923,11.923,11.923,11.923,11.923,11.923,11.923,11.923,11.923,11.923,11.923,11.923,11.8912,11.8589,11.8371,11.7928,11.6037,11.2671,11.1851,10.988,10.6536,10.5575,10.5078,10.5078,10.4813,10.4681,10.4681,10.4681,10.4681,10.1677,10.2118,0.0,9.9145,9.9585,0.0,9.7456,0.0,0.0,0.0,0.0,0.0,0.0,0.0,0.0,0.0,0.0,0.0,0.0,0.0,0.0,0.0,0.0,0.0,0.0,0.0,0.0,0.0,0.0,0.0,0.0,0.0,11.0682,11.1986,11.2892,11.3507,11.4123,11.4413,11.4521,11.4521,11.4521,11.5318,11.6876,11.6876,11.7709,11.923,11.923,11.923,11.923,11.923,11.923,11.923,11.923,11.923,11.923,11.923,11.923,11.923,11.923,11.923,11.923,11.923,11.923,11.923,11.923,11.923,11.923,11.923,11.923,11.923,11.923,11.923,11.923,11.923,11.923,11.923,11.923,11.923,11.923,11.923,11.923,11.923,11.923,11.923,11.923,11.923,11.923,11.923,11.923,11.923,11.923,11.923,11.923,11.9266,11.9124,11.8733,11.8335,11.8225,11.7852,11.5931,11.2257,11.1566,10.9368,10.5984,10.5078,10.4681,10.4681,10.4681,10.4813,10.5078,10.5078,10.5211]},{"header":{"parameterUnit":"m.s-1","parameterCategory":1,"la1":30.6,"la2":29.2853,"lo1":-89.7004,"lo2":-87.6739,"dx":0.0162,"dy":0.0183,"nx":112,"ny":82,"refTime":"2023-01-09T06:00:00:Z","depth":0,"parameterNumber":3,"parameterNumberName":"V-component_of_WINDS"},"data":[0.0,0.0,0.0,0.0,0.0,0.0,0.0,0.0,0.0,0.0,0.0,0.0,0.0,0.0,0.0,0.0,0.0,0.0,0.0,0.0,0.0,0.0,0.0,0.0,0.0,0.0,0.0,0.0,0.0,0.0,0.0,0.0,0.0,0.0,0.0,0.0,0.0,0.0,0.0,0.0,0.0,0.0,0.0,0.0,0.0,0.0,0.0,0.0,0.0,0.0,0.0,0.0,0.0,0.0,0.0,0.0,0.0,0.0,0.0,0.0,0.0,0.0,0.0,0.0,0.0,0.0,0.0,0.0,0.0,0.0,0.0,0.0,0.0,0.0,0.0,0.0,0.0,0.0,0.0,0.0,0.0,0.0,0.0,0.0,0.0,0.0,0.0,0.0,0.0,0.0,-3.8535,-3.8926,-3.9707,-4.0,-3.9551,-3.9512,-3.875,-3.6973,0.0,0.0,0.0,0.0,0.0,0.0,0.0,0.0,0.0,0.0,0.0,0.0,0.0,0.0,0.0,0.0,0.0,0.0,0.0,0.0,0.0,0.0,0.0,0.0,0.0,0.0,0.0,0.0,0.0,0.0,0.0,0.0,0.0,0.0,0.0,0.0,0.0,0.0,0.0,0.0,0.0,0.0,0.0,0.0,0.0,0.0,0.0,0.0,0.0,0.0,0.0,0.0,0.0,0.0,0.0,0.0,0.0,0.0,0.0,0.0,0.0,0.0,0.0,0.0,0.0,0.0,0.0,0.0,0.0,0.0,0.0,0.0,0.0,0.0,0.0,0.0,0.0,0.0,0.0,0.0,0.0,0.0,0.0,0.0,0.0,0.0,0.0,0.0,0.0,0.0,0.0,0.0,0.0,0.0,0.0,0.0,0.0,0.0,0.0,0.0,0.0,0.0,0.0,0.0,-3.834,-4.0547,-4.1211,-4.1348,-4.0918,-4.0879,-3.998,-3.7871,0.0,0.0,0.0,0.0,0.0,0.0,0.0,0.0,0.0,0.0,0.0,0.0,0.0,0.0,0.0,0.0,0.0,0.0,0.0,0.0,0.0,0.0,0.0,0.0,0.0,0.0,0.0,0.0,0.0,0.0,0.0,0.0,0.0,0.0,0.0,0.0,0.0,0.0,0.0,0.0,0.0,0.0,0.0,0.0,0.0,0.0,0.0,0.0,0.0,0.0,0.0,0.0,0.0,0.0,0.0,0.0,0.0,0.0,0.0,0.0,0.0,0.0,0.0,0.0,0.0,0.0,0.0,0.0,0.0,0.0,0.0,0.0,0.0,0.0,0.0,0.0,0.0,0.0,0.0,0.0,0.0,0.0,0.0,0.0,0.0,0.0,0.0,0.0,0.0,0.0,0.0,0.0,0.0,0.0,0.0,0.0,0.0,0.0,0.0,0.0,0.0,0.0,0.0,-3.9082,-4.0469,-4.2344,-4.2519,-4.2324,-4.1894,-4.1426,-4.0254,-3.8066,-3.6992,0.0,0.0,0.0,0.0,0.0,0.0,0.0,0.0,0.0,0.0,0.0,0.0,0.0,0.0,0.0,0.0,0.0,0.0,0.0,0.0,0.0,0.0,0.0,0.0,0.0,0.0,0.0,0.0,0.0,0.0,0.0,0.0,0.0,0.0,0.0,0.0,0.0,0.0,0.0,0.0,0.0,0.0,0.0,0.0,0.0,0.0,0.0,0.0,0.0,0.0,0.0,0.0,0.0,0.0,0.0,0.0,0.0,0.0,0.0,0.0,0.0,0.0,0.0,0.0,0.0,0.0,0.0,0.0,0.0,0.0,0.0,0.0,0.0,0.0,0.0,0.0,0.0,0.0,0.0,0.0,0.0,0.0,0.0,0.0,0.0,0.0,0.0,0.0,0.0,0.0,0.0,0.0,0.0,0.0,0.0,0.0,0.0,0.0,0.0,0.0,0.0,0.0,-4.1172,-4.2363,-4.3437,-4.3359,-4.3086,-4.2754,-4.1953,-4.0547,-3.8359,-3.7832,0.0,0.0,0.0,0.0,0.0,0.0,0.0,0.0,0.0,0.0,0.0,0.0,0.0,0.0,0.0,0.0,0.0,0.0,0.0,0.0,0.0,0.0,0.0,0.0,0.0,0.0,0.0,0.0,0.0,0.0,0.0,0.0,0.0,0.0,0.0,0.0,0.0,0.0,0.0,0.0,0.0,0.0,0.0,0.0,0.0,0.0,0.0,0.0,0.0,0.0,0.0,0.0,0.0,0.0,0.0,0.0,0.0,0.0,0.0,0.0,0.0,0.0,0.0,0.0,0.0,0.0,0.0,0.0,0.0,0.0,0.0,0.0,0.0,0.0,0.0,0.0,0.0,0.0,0.0,0.0,0.0,0.0,0.0,0.0,0.0,0.0,0.0,0.0,0.0,0.0,0.0,0.0,0.0,0.0,0.0,0.0,0.0,0.0,0.0,0.0,0.0,0.0,-4.0859,-4.2578,-4.3066,-4.3437,-4.3652,-4.3613,-4.2832,-4.1406,-3.9238,-3.8711,0.0,0.0,0.0,0.0,0.0,0.0,0.0,0.0,0.0,0.0,0.0,0.0,0.0,0.0,0.0,0.0,0.0,0.0,0.0,0.0,0.0,0.0,0.0,0.0,0.0,0.0,0.0,0.0,0.0,0.0,0.0,0.0,0.0,0.0,0.0,0.0,0.0,0.0,0.0,0.0,0.0,0.0,0.0,0.0,0.0,0.0,0.0,0.0,0.0,0.0,0.0,0.0,0.0,0.0,0.0,0.0,0.0,0.0,0.0,0.0,0.0,0.0,0.0,0.0,0.0,0.0,0.0,0.0,0.0,0.0,0.0,0.0,0.0,0.0,0.0,0.0,0.0,0.0,0.0,0.0,0.0,0.0,0.0,0.0,0.0,0.0,0.0,0.0,0.0,0.0,0.0,0.0,0.0,0.0,0.0,0.0,0.0,0.0,0.0,0.0,0.0,0.0,-4.1465,-4.3398,0.0,-4.4531,-4.4726,-4.418,-4.3574,-4.2187,-3.9785,0.0,0.0,0.0,0.0,0.0,0.0,0.0,0.0,0.0,0.0,0.0,0.0,0.0,0.0,0.0,0.0,0.0,0.0,0.0,0.0,0.0,0.0,0.0,0.0,0.0,0.0,0.0,0.0,0.0,0.0,0.0,0.0,0.0,0.0,0.0,0.0,0.0,0.0,0.0,0.0,0.0,0.0,0.0,0.0,0.0,0.0,0.0,0.0,0.0,0.0,0.0,0.0,0.0,0.0,0.0,0.0,0.0,0.0,0.0,0.0,0.0,0.0,0.0,0.0,0.0,0.0,0.0,0.0,0.0,0.0,0.0,0.0,0.0,0.0,0.0,0.0,0.0,0.0,0.0,0.0,0.0,0.0,0.0,0.0,0.0,0.0,0.0,0.0,0.0,0.0,0.0,0.0,0.0,0.0,0.0,0.0,0.0,0.0,0.0,0.0,0.0,0.0,-3.9316,-4.1816,-4.3789,0.0,-4.5117,-4.5234,-4.4648,-4.4043,-4.2734,-4.0449,0.0,0.0,0.0,0.0,0.0,0.0,0.0,0.0,0.0,0.0,0.0,0.0,0.0,0.0,0.0,0.0,0.0,0.0,0.0,0.0,0.0,0.0,0.0,0.0,0.0,0.0,0.0,0.0,0.0,0.0,0.0,0.0,0.0,0.0,0.0,0.0,0.0,0.0,0.0,0.0,0.0,0.0,0.0,0.0,0.0,0.0,0.0,0.0,0.0,0.0,0.0,0.0,0.0,0.0,0.0,0.0,0.0,0.0,0.0,0.0,0.0,0.0,0.0,0.0,0.0,0.0,0.0,0.0,0.0,0.0,0.0,0.0,0.0,0.0,0.0,0.0,0.0,0.0,0.0,0.0,0.0,0.0,0.0,0.0,0.0,0.0,0.0,0.0,0.0,0.0,0.0,0.0,0.0,0.0,0.0,0.0,0.0,0.0,0.0,0.0,0.0,0.0,-3.9785,-4.1777,-4.3594,-4.4883,-4.5039,-4.5039,-4.5039,-4.4219,-4.3008,0.0,0.0,0.0,0.0,0.0,0.0,0.0,0.0,0.0,0.0,0.0,0.0,0.0,0.0,0.0,0.0,0.0,0.0,0.0,0.0,0.0,0.0,0.0,0.0,0.0,0.0,0.0,0.0,0.0,0.0,0.0,0.0,0.0,0.0,0.0,0.0,0.0,0.0,0.0,0.0,0.0,0.0,0.0,0.0,0.0,0.0,0.0,0.0,0.0,0.0,0.0,0.0,0.0,0.0,0.0,0.0,0.0,0.0,0.0,0.0,0.0,0.0,0.0,0.0,0.0,0.0,0.0,0.0,0.0,0.0,0.0,0.0,0.0,0.0,0.0,0.0,0.0,0.0,0.0,0.0,0.0,0.0,0.0,0.0,0.0,0.0,0.0,0.0,0.0,0.0,0.0,0.0,0.0,0.0,0.0,0.0,0.0,0.0,0.0,0.0,0.0,0.0,0.0,-4.0234,-4.248,-4.4277,-4.4961,-4.5566,-4.5801,-4.5508,-4.5254,-4.4355,-4.2637,0.0,0.0,0.0,0.0,0.0,0.0,0.0,0.0,0.0,0.0,0.0,0.0,0.0,0.0,0.0,0.0,0.0,0.0,0.0,0.0,0.0,0.0,0.0,0.0,0.0,0.0,0.0,0.0,0.0,0.0,0.0,0.0,0.0,0.0,0.0,0.0,0.0,0.0,0.0,0.0,0.0,0.0,0.0,0.0,0.0,0.0,0.0,0.0,0.0,0.0,0.0,0.0,0.0,0.0,0.0,0.0,0.0,0.0,0.0,0.0,0.0,0.0,0.0,0.0,0.0,0.0,0.0,0.0,0.0,0.0,0.0,0.0,0.0,0.0,0.0,0.0,0.0,0.0,0.0,0.0,0.0,0.0,0.0,0.0,0.0,0.0,0.0,0.0,0.0,0.0,0.0,0.0,0.0,0.0,0.0,0.0,0.0,0.0,0.0,0.0,0.0,0.0,-4.0898,-4.3008,-4.4746,-4.5683,-4.5937,-4.6016,-4.5937,-4.5605,-4.4961,-4.3926,0.0,0.0,0.0,0.0,0.0,0.0,0.0,0.0,0.0,0.0,0.0,0.0,0.0,0.0,0.0,0.0,0.0,0.0,0.0,0.0,0.0,0.0,0.0,0.0,0.0,0.0,0.0,0.0,0.0,0.0,0.0,0.0,0.0,0.0,0.0,0.0,0.0,0.0,0.0,0.0,0.0,0.0,0.0,0.0,0.0,0.0,0.0,0.0,0.0,0.0,0.0,0.0,0.0,0.0,0.0,0.0,0.0,0.0,0.0,0.0,0.0,0.0,0.0,0.0,0.0,0.0,0.0,0.0,0.0,0.0,0.0,0.0,0.0,0.0,0.0,0.0,0.0,0.0,0.0,0.0,0.0,0.0,0.0,0.0,0.0,0.0,0.0,0.0,0.0,0.0,0.0,0.0,0.0,0.0,0.0,0.0,0.0,0.0,0.0,0.0,0.0,0.0,-4.1758,-4.3437,-4.5117,-4.6699,-4.6191,-4.5879,-4.6211,-4.5566,-4.5117,-4.5039,0.0,0.0,0.0,0.0,0.0,0.0,0.0,0.0,0.0,0.0,0.0,0.0,0.0,0.0,0.0,0.0,0.0,0.0,0.0,0.0,0.0,0.0,0.0,0.0,0.0,0.0,0.0,0.0,0.0,0.0,0.0,0.0,0.0,0.0,0.0,0.0,0.0,0.0,0.0,0.0,0.0,0.0,0.0,0.0,0.0,0.0,0.0,0.0,0.0,0.0,0.0,0.0,0.0,0.0,0.0,0.0,0.0,0.0,0.0,0.0,-3.5176,0.0,0.0,0.0,0.0,0.0,0.0,0.0,0.0,0.0,0.0,0.0,0.0,0.0,0.0,0.0,0.0,0.0,0.0,0.0,0.0,0.0,0.0,0.0,0.0,0.0,0.0,0.0,0.0,0.0,0.0,0.0,0.0,0.0,0.0,0.0,0.0,0.0,0.0,0.0,0.0,0.0,-4.2676,-4.4316,-4.5664,-4.6367,-4.6269,-4.6074,-4.584,-4.5937,-4.5742,-4.5058,-4.4844,0.0,0.0,0.0,0.0,0.0,0.0,0.0,0.0,0.0,0.0,0.0,0.0,0.0,0.0,0.0,0.0,0.0,0.0,0.0,0.0,0.0,0.0,0.0,0.0,0.0,0.0,0.0,0.0,0.0,0.0,0.0,0.0,0.0,0.0,0.0,0.0,0.0,0.0,0.0,0.0,0.0,0.0,0.0,0.0,0.0,0.0,0.0,0.0,0.0,0.0,0.0,0.0,0.0,0.0,0.0,0.0,0.0,0.0,0.0,0.0,-3.6113,0.0,0.0,0.0,0.0,0.0,0.0,0.0,0.0,0.0,0.0,0.0,0.0,0.0,0.0,0.0,0.0,0.0,0.0,0.0,0.0,0.0,0.0,0.0,0.0,0.0,0.0,0.0,0.0,0.0,0.0,0.0,0.0,0.0,0.0,0.0,0.0,0.0,0.0,0.0,0.0,-4.332,-4.4726,-4.5918,-4.6543,-4.623,-4.6074,-4.6269,-4.6113,-4.5976,-4.5937,-4.5742,0.0,0.0,0.0,0.0,0.0,0.0,0.0,0.0,0.0,0.0,0.0,0.0,0.0,0.0,0.0,0.0,0.0,0.0,0.0,0.0,0.0,0.0,0.0,0.0,0.0,0.0,0.0,0.0,0.0,0.0,0.0,0.0,0.0,0.0,0.0,0.0,0.0,0.0,0.0,0.0,0.0,0.0,0.0,0.0,0.0,0.0,0.0,0.0,0.0,0.0,0.0,0.0,0.0,-3.9766,-3.9883,-3.9883,-4.0351,-4.0742,-4.1016,-3.9941,-3.9219,-3.873,-3.7676,0.0,0.0,0.0,0.0,0.0,0.0,0.0,0.0,0.0,0.0,0.0,0.0,0.0,0.0,0.0,0.0,0.0,0.0,0.0,0.0,0.0,0.0,0.0,0.0,-4.0937,-4.1562,-4.0937,0.0,0.0,0.0,0.0,0.0,0.0,0.0,0.0,0.0,0.0,0.0,-4.3828,-4.498,-4.6016,-4.6641,-4.6152,-4.6035,-4.666,-4.6152,-4.6055,-4.668,-4.6445,-4.5976,0.0,0.0,0.0,0.0,0.0,0.0,0.0,0.0,0.0,0.0,0.0,0.0,0.0,0.0,0.0,0.0,0.0,0.0,0.0,0.0,0.0,0.0,0.0,0.0,0.0,0.0,0.0,0.0,0.0,0.0,0.0,0.0,-3.2461,-3.293,0.0,0.0,0.0,0.0,0.0,0.0,0.0,0.0,0.0,0.0,0.0,0.0,0.0,-3.8809,-3.8867,-3.9746,-4.043,-4.0918,-4.2031,-4.2578,-4.2578,-4.3008,-4.3223,-4.3281,-4.3105,0.0,-3.9707,-3.9531,0.0,0.0,0.0,0.0,0.0,0.0,0.0,0.0,0.0,0.0,0.0,0.0,0.0,0.0,0.0,0.0,0.0,0.0,0.0,0.0,0.0,0.0,-4.291,-4.3555,-4.3848,-4.4043,0.0,-4.2539,-4.0898,-4.084,-4.1426,0.0,0.0,0.0,0.0,0.0,0.0,0.0,-4.4355,-4.543,-4.6113,-4.5859,-4.6074,-4.6113,-4.5859,-4.6074,-4.6113,-4.5859,-4.6133,-4.625,-4.6133,-4.5078,0.0,0.0,0.0,0.0,0.0,0.0,0.0,0.0,0.0,0.0,0.0,0.0,0.0,0.0,0.0,0.0,0.0,0.0,0.0,0.0,0.0,0.0,0.0,0.0,0.0,0.0,0.0,0.0,0.0,-3.2519,-3.3398,-3.4062,-3.457,-3.4883,0.0,0.0,0.0,0.0,0.0,0.0,0.0,0.0,0.0,-4.0,-4.0449,-4.0898,-4.1387,-4.1992,-4.2402,-4.2598,-4.3164,-4.3574,-4.3828,-4.4004,-4.4219,-4.4453,-4.4453,-4.3672,-4.2383,-4.1894,-4.1445,-4.1035,0.0,0.0,0.0,0.0,-3.9199,-3.9336,-4.0293,-4.0625,-4.0684,-4.1172,0.0,0.0,0.0,0.0,0.0,0.0,0.0,0.0,0.0,0.0,-4.3594,-4.4238,-4.4394,-4.4512,-4.4941,-4.4141,-4.3262,0.0,-4.3066,-4.3398,-4.4199,0.0,0.0,0.0,0.0,-4.5586,-4.5176,-4.5605,-4.5976,-4.6016,-4.6406,-4.6582,-4.6387,-4.6543,-4.6582,-4.6387,-4.6113,-4.6055,-4.6289,-4.5293,-4.457,0.0,0.0,0.0,0.0,0.0,0.0,0.0,0.0,0.0,0.0,0.0,0.0,0.0,0.0,0.0,0.0,0.0,0.0,0.0,0.0,0.0,0.0,0.0,0.0,0.0,0.0,0.0,0.0,-3.4023,-3.4844,-3.5605,-3.6269,-3.6719,0.0,0.0,0.0,0.0,0.0,0.0,-4.0332,-4.0254,-4.0703,-4.1797,-4.2246,-4.2773,-4.3418,-4.373,-4.3926,-4.4043,-4.416,-4.4453,-4.4883,-4.5,-4.5273,-4.5683,-4.5683,-4.5508,-4.5117,-4.3906,-4.334,-4.3144,-4.2187,-4.1816,-4.1719,-4.084,-4.0527,-4.0684,-4.1777,-4.2148,-4.2266,-4.2891,-4.3301,-4.3437,-4.2695,0.0,0.0,0.0,0.0,-4.3711,-4.373,-4.3887,-4.418,-4.4746,-4.4883,-4.4961,-4.5273,-4.5273,-4.5058,0.0,-4.4375,-4.4609,-4.5918,0.0,0.0,0.0,0.0,-4.6152,-4.5723,-4.5859,-4.6074,-4.6289,-4.6777,-4.709,-4.709,-4.709,-4.709,-4.709,-4.6406,-4.6191,-4.6621,-4.5801,-4.5351,-4.5351,0.0,0.0,0.0,0.0,0.0,0.0,0.0,0.0,0.0,0.0,0.0,0.0,0.0,0.0,0.0,0.0,0.0,0.0,0.0,0.0,0.0,0.0,0.0,0.0,0.0,0.0,0.0,0.0,0.0,-3.832,-3.8418,0.0,0.0,0.0,0.0,-3.916,-3.9941,-4.0801,-4.166,-4.2461,-4.3105,-4.3555,-4.4023,-4.4297,-4.4336,-4.4355,-4.457,-4.4961,-4.5371,-4.5801,-4.623,-4.6621,-4.7031,-4.7461,-4.7461,-4.7441,-4.7266,-4.5176,-4.4062,-4.3672,-4.3594,-4.3574,-4.3633,-4.4004,-4.4141,-4.4199,-4.4668,-4.4824,-4.4844,-4.4883,-4.4902,-4.4844,-4.4394,-4.4297,0.0,0.0,-4.4004,-4.3984,-4.5215,-4.5254,-4.5176,-4.6016,-4.6211,-4.6211,-4.623,-4.5918,-4.5508,0.0,-4.5312,-4.5605,-4.5703,0.0,-4.6308,-4.6328,-4.6308,-4.6152,-4.5723,-4.6367,-4.6719,-4.6348,-4.7051,-4.7539,-4.7539,-4.7539,-4.7539,-4.7539,-4.7129,-4.707,-4.75,-4.6699,-4.623,-4.623,-4.6191,0.0,0.0,0.0,0.0,0.0,0.0,0.0,0.0,0.0,0.0,0.0,0.0,0.0,0.0,0.0,0.0,0.0,0.0,0.0,0.0,0.0,0.0,0.0,0.0,0.0,0.0,0.0,0.0,-3.8965,-3.9473,0.0,-4.0801,-4.1113,-4.1504,-4.2051,-4.2383,-4.2949,-4.3828,-4.3906,-4.4121,-4.4551,-4.5254,-4.5625,-4.5625,-4.6172,-4.6523,-4.666,-4.6543,-4.6699,-4.7129,-4.6992,-4.7168,-4.7558,-4.7285,-4.7168,-4.707,-4.6055,-4.5683,-4.5781,-4.5781,-4.5449,-4.5,-4.5156,-4.5039,-4.4863,-4.5293,-4.5449,-4.5527,-4.6074,-4.6074,-4.5879,-4.5996,-4.584,-4.5625,-4.5625,-4.5508,-4.543,-4.5625,-4.5762,-4.5918,-4.623,-4.6504,-4.6777,-4.707,-4.6797,-4.6523,-4.6641,-4.6348,-4.625,-4.6816,-4.7246,-4.7519,-4.7519,-4.7305,-4.707,-4.6914,-4.6914,-4.6973,-4.7109,-4.7637,-4.7988,-4.7988,-4.7988,-4.7988,-4.7988,-4.7324,-4.7129,-4.7558,-4.7012,-4.6836,-4.7129,-4.7129,-4.6758,0.0,0.0,0.0,0.0,0.0,0.0,0.0,0.0,0.0,0.0,0.0,0.0,0.0,0.0,0.0,0.0,0.0,0.0,0.0,0.0,0.0,0.0,0.0,0.0,0.0,0.0,-3.9746,-4.0039,-4.0723,-4.1504,-4.2363,-4.2832,-4.332,-4.3887,-4.4199,-4.4687,-4.541,-4.5332,-4.5449,-4.5879,-4.6289,-4.6504,-4.6504,-4.6933,-4.7148,-4.7148,-4.6855,-4.6953,-4.7363,-4.7207,-4.7383,-4.7793,-4.7637,-4.7578,-4.7558,-4.7285,-4.7324,-4.7519,-4.6953,-4.6367,-4.5879,-4.5879,-4.5801,-4.5723,-4.6172,-4.6308,-4.6406,-4.6973,-4.6953,-4.6777,-4.707,-4.6953,-4.6738,-4.6738,-4.6621,-4.6484,-4.6348,-4.6406,-4.6543,-4.6699,-4.6953,-4.7226,-4.7519,-4.7363,-4.7246,-4.7519,-4.7012,-4.6738,-4.7461,-4.7812,-4.8047,-4.8183,-4.7851,-4.7637,-4.7773,-4.7539,-4.748,-4.7754,-4.8164,-4.8418,-4.8418,-4.8711,-4.875,-4.8437,-4.8027,-4.7793,-4.7793,-4.7656,-4.7793,-4.8223,-4.8242,-4.8209,-4.8116,0.0,0.0,0.0,0.0,0.0,0.0,0.0,0.0,0.0,0.0,0.0,0.0,0.0,0.0,0.0,0.0,0.0,0.0,0.0,0.0,0.0,0.0,0.0,-3.9394,-4.0039,-4.0918,-4.1777,-4.2246,-4.2832,-4.3691,-4.418,-4.4453,-4.4453,-4.5254,-4.5898,-4.6289,-4.6699,-4.7109,-4.7519,-4.7148,-4.6953,-4.6953,-4.6562,-4.6387,-4.6387,-4.6387,-4.6601,-4.7012,-4.7422,-4.7851,-4.8242,-4.8672,-4.8848,-4.8828,-4.8828,-4.8808,-4.8652,-4.7031,-4.6367,-4.6367,-4.6367,-4.6621,-4.7012,-4.7441,-4.7598,-4.7598,-4.7598,-4.7598,-4.7598,-4.7598,-4.7598,-4.7578,-4.7578,-4.7285,-4.7051,-4.7461,-4.7285,-4.707,-4.75,-4.7617,-4.7617,-4.7637,-4.7637,-4.7637,-4.7656,-4.7324,-4.7148,-4.7539,-4.7617,-4.7773,-4.8183,-4.791,0.0,-4.8223,-4.8262,-4.8281,-4.8281,-4.8672,-4.8926,-4.8926,-4.9707,-4.9824,-4.8945,-4.9316,-4.916,-4.8301,-4.8652,-4.9062,-4.9473,-4.9492,-4.9669,-5.0357,0.0,0.0,0.0,0.0,0.0,0.0,0.0,0.0,0.0,0.0,0.0,0.0,0.0,0.0,0.0,0.0,0.0,0.0,0.0,0.0,0.0,0.0,-4.1719,-4.1172,-4.1836,-4.2695,-4.3574,-4.3789,-4.4199,-4.5058,-4.5527,-4.5781,-4.5781,-4.6582,-4.6836,-4.6328,-4.6699,-4.6855,-4.666,-4.7148,-4.7402,-4.7402,-4.791,-4.8164,-4.8164,-4.8164,-4.8223,-4.834,-4.8457,-4.8574,-4.8672,-4.8476,-4.8379,-4.8359,-4.8066,-4.793,-4.7949,-4.8105,-4.7969,-4.7676,-4.7676,-4.7558,-4.7422,-4.7539,-4.7773,-4.8027,-4.8027,-4.8027,-4.8027,-4.8027,-4.7812,-4.7578,-4.7578,-4.75,-4.7422,-4.7558,-4.7715,-4.7891,-4.8008,-4.8281,-4.8594,-4.8926,-4.9004,-4.9082,-4.9394,-4.9375,-4.9023,-4.8183,-4.8301,-4.8652,-4.9101,-4.9336,0.0,-4.9629,-4.9629,-4.9746,-5.0058,-5.0195,-5.0273,-5.0273,-5.0488,-5.0391,-4.9844,-4.9941,-4.9883,-4.9648,-4.9141,-4.8769,-4.8574,-4.9256,-4.9697,0.0,0.0,0.0,0.0,0.0,0.0,0.0,0.0,0.0,0.0,0.0,0.0,0.0,0.0,0.0,0.0,0.0,0.0,0.0,0.0,0.0,0.0,-4.2363,-4.3301,-4.3418,-4.3691,-4.416,-4.4844,-4.5078,-4.5391,-4.5898,-4.6328,-4.6484,-4.6308,-4.6758,-4.6973,-4.6836,-4.707,-4.7246,-4.7363,-4.7676,-4.7851,-4.7851,-4.8164,-4.832,-4.832,-4.832,-4.832,-4.832,-4.8496,-4.8594,-4.8574,-4.8516,-4.8476,-4.8457,-4.8223,-4.8105,0.0,0.0,0.0,0.0,0.0,-4.8047,-4.7871,-4.8047,-4.8281,-4.8476,-4.8476,-4.8476,-4.8476,-4.8476,-4.8301,-4.8144,-4.834,-4.8398,-4.8437,-4.8613,-4.8848,-4.9023,-4.9023,-4.9219,-4.9473,-4.9746,-4.9805,-4.9883,-5.0137,-5.0176,0.0,-4.9394,-4.9355,-4.9551,-5.0,-5.0117,-5.0234,-5.041,-5.0293,-5.0273,-5.0508,-5.0547,-5.0547,-5.0547,-5.0859,0.0,0.0,0.0,-5.0703,-5.0703,-5.0215,0.0,0.0,0.0,0.0,0.0,0.0,0.0,0.0,-5.0208,-4.9826,0.0,0.0,0.0,0.0,0.0,0.0,0.0,0.0,0.0,0.0,0.0,0.0,0.0,0.0,0.0,0.0,-4.3926,-4.4805,-4.5566,-4.5391,-4.5312,-4.5703,-4.6113,-4.6348,-4.6308,-4.668,-4.6777,-4.6406,-4.6465,-4.6836,-4.7539,0.0,0.0,0.0,0.0,-4.8203,-4.8203,-4.7891,-4.7734,-4.7734,-4.7734,-4.7754,-4.7812,-4.8183,-4.8379,-4.8457,-4.8848,-4.9004,-4.9004,-4.9004,-4.9004,-4.8926,-4.8125,-4.7832,-4.793,-4.8281,-4.8437,-4.8496,-4.8867,0.0,0.0,-4.9004,-4.9004,-4.9004,-4.9004,-4.9004,-4.9082,-4.9492,-4.959,-4.9687,-5.0078,-5.0176,-5.0176,-5.0176,-5.0176,-5.0195,-5.0234,-5.0254,-5.0273,-5.0312,-5.0312,-5.0449,-5.082,-5.0527,-5.0391,-5.082,-5.0566,-5.0449,-5.082,-5.0547,-5.0332,-5.0391,0.0,0.0,-5.0391,-5.1074,-5.1172,-5.0371,-5.1016,-5.1406,-5.1367,-5.1367,-5.1172,-5.0742,-5.0312,-5.0309,-5.0314,-4.9873,-5.0418,-5.1594,-5.1289,-5.1022,0.0,0.0,0.0,0.0,0.0,0.0,0.0,0.0,0.0,0.0,0.0,0.0,0.0,0.0,0.0,-4.3613,-4.4629,-4.5488,-4.5644,-4.5898,-4.6094,-4.6172,-4.6562,-4.668,-4.6328,-4.668,-4.6894,-4.6816,-4.7441,-4.7754,-4.7598,-4.7891,-4.8008,-4.7832,-4.8066,-4.8203,-4.8203,-4.8476,-4.8613,-4.8613,0.0,0.0,-4.916,-4.9238,-4.9473,-4.9805,-4.9883,-4.9922,-4.9922,-4.9922,-4.9922,-4.9863,-4.9355,-4.9375,-4.9687,-4.9766,-4.9805,-4.9805,-4.9902,-4.9922,-4.9922,-4.9922,-4.9922,-4.9922,-4.9922,-4.9922,0.0,-5.0019,-5.0058,-5.0078,-5.0156,-5.0176,-5.0176,-5.0176,-5.0176,-5.0273,-5.0605,-5.0683,-5.0781,-5.1113,-5.1191,-5.1211,-5.1289,-5.0957,-5.082,-5.125,-5.125,-5.123,-5.1308,-5.123,-5.1328,-5.168,-5.1719,-5.1719,-5.1719,-5.1855,-5.1738,-5.123,-5.1348,-5.1269,-5.0937,-5.0918,-5.0723,-5.0312,-5.022,-5.0289,-5.0299,-5.0218,-5.0218,-5.0467,-5.123,-5.1569,0.0,0.0,0.0,0.0,0.0,0.0,0.0,0.0,0.0,0.0,0.0,-4.25,0.0,0.0,-4.4785,-4.498,-4.5742,-4.623,-4.6016,-4.6543,-4.6777,-4.6348,-4.668,-4.6855,-4.6641,-4.7012,-4.7246,-4.7246,-4.7656,-4.7891,-4.7891,-4.8086,-4.8203,-4.8223,-4.8418,-4.8633,-4.8867,-4.9082,-4.9297,-4.9512,-4.9512,-4.9629,-4.9844,-4.9844,-4.998,-5.0176,-5.0176,-5.0176,-5.0176,-5.0176,-5.0312,-5.0469,-5.0254,-5.0176,-5.0176,-5.0176,-5.0176,-5.0176,-5.0176,-5.0176,-5.0176,-5.0176,-5.0176,-5.0176,-5.0176,-5.0176,-5.0215,-5.043,-5.0488,-5.0547,-5.0762,-5.0801,-5.0801,-5.0801,-5.0801,-5.0859,-5.1074,-5.1113,-5.1172,-5.1387,-5.1426,-5.1426,-5.1426,-5.125,-5.1191,-5.1406,-5.1426,-5.1426,-5.1426,-5.1426,-5.1523,-5.1738,-5.1758,-5.1758,-5.1758,-5.1758,-5.166,-5.1445,-5.1426,-5.1328,-5.1133,-5.1113,-5.0918,-5.0508,-5.0444,-5.0535,-5.0535,-5.0487,-5.0862,-5.1269,-5.1759,-5.1924,0.0,0.0,0.0,0.0,0.0,0.0,0.0,0.0,-3.9644,-4.1481,-4.2871,-4.3887,-4.4531,-4.5117,-4.5723,-4.6328,-4.6699,-4.6836,-4.6582,-4.707,-4.7226,-4.6621,-4.6855,-4.709,-4.7168,-4.7422,-4.7617,-4.7695,-4.7695,-4.7891,-4.8301,-4.8418,-4.8633,-4.8965,-4.9062,-4.9297,-4.9648,-4.9648,-4.9824,-5.0176,-5.0176,-5.0215,-5.0293,-5.0293,-5.0351,-5.043,-5.043,-5.043,-5.043,-5.043,-5.0625,-5.0918,-5.0918,-5.0723,-5.043,-5.043,-5.043,-5.043,-5.043,-5.043,-5.043,-5.043,-5.043,-5.043,-5.043,-5.043,-5.0488,-5.084,-5.0918,-5.0996,-5.1348,-5.1426,-5.1426,-5.1426,-5.1426,-5.1426,-5.1426,-5.1426,-5.1426,-5.1426,-5.1426,-5.1426,-5.1426,-5.1426,-5.1426,-5.1426,-5.1426,-5.1426,-5.1426,-5.1426,-5.1426,-5.1426,-5.1426,-5.1426,-5.1426,-5.1426,-5.1426,-5.1426,-5.1426,-5.1426,-5.1426,-5.1426,-5.1269,-5.0937,-5.0918,-5.1125,-5.115,-5.134,-5.1717,-5.247,-5.2658,-5.2389,-3.1308,0.0,0.0,-3.6095,-3.8621,-4.1577,0.0,0.0,-4.3409,-4.4414,-4.5312,-4.5859,-4.5586,-4.6504,-4.7207,-4.6914,-4.6894,-4.7051,-4.7383,-4.7187,-4.7109,-4.7402,-4.748,-4.7656,-4.8027,-4.7773,-4.7734,-4.8105,-4.8144,-4.832,-4.8769,-4.916,-4.9394,-4.9453,-4.9824,-5.0058,-5.0098,-5.0098,-5.0137,-5.0176,-5.0176,-5.0371,-5.0742,-5.0742,-5.0937,-5.1289,-5.1289,-5.1289,-5.1289,-5.1289,-5.1308,-5.1367,-5.1367,-5.1328,-5.1289,-5.1289,-5.1289,-5.1289,-5.1289,-5.1289,-5.1289,-5.1289,-5.1289,-5.1289,-5.1289,-5.1289,-5.1308,-5.1348,-5.1367,-5.1367,-5.1426,-5.1426,-5.1426,-5.1426,-5.1426,-5.1426,-5.1426,-5.1426,-5.1426,-5.1426,-5.1426,-5.1426,-5.1426,-5.1426,-5.1426,-5.1426,-5.1426,-5.1426,-5.1426,-5.1426,-5.1426,-5.1426,-5.1426,-5.1426,-5.1426,-5.1426,-5.1426,-5.1426,-5.1426,-5.1426,-5.1426,-5.1426,-5.1406,-5.1367,-5.1735,-5.2102,-5.2042,-5.2447,-5.2852,-5.2852,-5.3406,-5.3378,-3.3573,0.0,0.0,0.0,-3.9938,-4.1952,-4.265,-4.2857,-4.3405,-4.5102,-4.6074,-4.6621,-4.6445,-4.7051,-4.7519,0.0,-4.7519,-4.7656,-4.7598,-4.7637,-4.7832,-4.8262,-4.8105,-4.8008,-4.8183,-4.8047,-4.8125,-4.8555,-4.8828,-4.9062,-4.9238,-4.9668,-4.9902,-4.9902,-5.0078,-5.0293,-5.0547,-5.0547,-5.0664,-5.0898,-5.0898,-5.0996,-5.1172,-5.1172,-5.0473,-4.9629,-4.9629,-4.8953,-4.7944,-4.7944,-4.8089,-4.8288,-4.8288,-4.911,-5.0289,-5.1015,-5.1426,-5.1426,-5.1426,-5.08,-4.995,-5.1114,-5.0604,-4.995,-5.1114,-5.1426,-5.1426,-5.1426,-5.1426,-5.1426,-5.1426,-5.1426,-5.1426,-5.1426,-5.1426,-5.1426,-5.1426,-5.1426,-5.1426,-5.1426,-5.1641,-5.1816,-5.1816,-5.2012,-5.2168,-5.2168,-5.1758,-5.1426,-5.1426,-5.166,-5.1894,-5.2148,-5.2168,-5.2168,-5.2168,-5.2168,-5.2168,-5.2168,-5.2168,-5.2168,-5.2168,-5.2168,-5.2168,-5.2168,-5.2365,-5.2562,-5.2954,-5.315,-5.3542,-5.4147,-5.4536,-5.4718,-3.4525,0.0,0.0,-3.8907,-4.1024,-4.3098,-4.2986,-4.3266,-4.4046,-4.5201,-4.6229,-4.6775,-4.6338,-4.7082,-4.7754,-4.7754,-4.8008,-4.8144,-4.7949,-4.8086,-4.8359,-4.8808,-4.8691,-4.8574,-4.8574,-4.8574,-4.8711,-4.9023,-4.9453,-4.9707,-4.9707,-5.0117,-5.0351,-5.0351,-4.9876,-5.0069,-5.0976,-5.0378,-5.0125,-5.0432,-5.0432,-5.0236,-4.9629,-4.9629,-4.8823,-4.7419,-4.7419,-4.6564,-4.5395,-4.5395,-4.5567,-4.5806,-4.5806,-4.6624,-4.8195,-4.9244,-5.0508,-5.1601,-5.1601,-5.0719,-4.9648,-5.1073,-5.0542,-4.961,-5.0919,-5.1037,-5.0627,-5.1231,-5.1017,-5.0627,-5.1231,-5.1426,-5.1465,-5.1582,-5.1601,-5.1641,-5.1758,-5.1777,-5.1777,-5.1777,-5.2031,-5.2246,-5.2246,-5.2519,-5.2715,-5.2715,-5.2187,-5.1777,-5.1777,-5.2051,-5.2383,-5.2676,-5.2715,-5.2715,-5.2715,-5.2715,-5.2715,-5.2715,-5.2715,-5.2715,-5.2715,-5.2715,-5.2715,-5.2715,-5.2914,-5.3311,-5.3688,-5.4083,-5.4477,-5.5283,-5.5283,-5.5478,0.0,0.0,-3.9406,-3.9062,-4.2941,-4.6561,-4.6328,-4.6386,-4.6261,-4.4817,-4.5735,-4.6497,-4.4873,-4.658,-4.8183,-4.8183,-4.8203,-4.834,-4.8769,-4.8476,-4.8359,-4.8808,-4.9238,-4.9492,0.0,-4.9492,-4.9492,-4.9512,-4.9902,-5.0156,-5.0156,-5.0566,-5.0781,-5.0781,-4.9189,-4.9199,-5.1406,-4.9414,-4.8212,-4.8212,-4.8212,-4.722,-4.522,-4.522,-4.522,-4.5019,-4.5019,-4.5019,-4.5036,-4.5036,-4.5036,-4.5053,-4.5053,-4.5053,-4.5053,-4.522,-4.8071,-5.207,-5.207,-5.1797,-5.1329,-5.1933,-5.1777,-5.1251,-5.1426,-5.0021,-4.8823,-5.0822,-4.9825,-4.8823,-5.0822,-5.1426,-5.1543,-5.1973,-5.207,-5.2168,-5.2578,-5.2676,-5.2676,-5.2676,-5.2676,-5.2695,-5.2695,-5.2695,-5.2715,-5.2715,-5.2695,-5.2676,-5.2676,-5.2676,-5.2695,-5.2715,-5.2715,-5.2715,-5.2715,-5.2715,-5.2715,-5.2715,-5.2715,-5.2715,-5.2715,-5.2715,-5.2715,-5.2715,-5.3708,-5.432,-5.432,-5.5283,-5.5869,-5.5869,-5.5869,-5.5869,0.0,0.0,-3.9172,-4.0339,-4.1979,-4.3248,-4.3122,-4.3194,-4.3135,-4.2707,-4.32,-4.3898,-4.4782,-4.589,-4.7193,-4.8838,-4.8828,-4.8789,-4.9238,-4.918,-4.9141,-4.9277,-4.9687,0.0,0.0,0.0,0.0,-4.9772,-4.8976,-4.9011,-5.0586,-5.0996,-5.123,-5.123,-4.9161,-4.8626,-4.9217,-4.722,-4.6023,-4.6023,-4.6023,-4.5622,-4.5019,-4.5001,-4.4312,-4.3149,-4.3133,-4.2597,-4.1587,-4.1587,-4.171,-4.1926,-4.1926,-4.2972,-4.4174,-4.393,-4.5786,-4.8256,-4.7687,-4.6645,-4.5908,-4.7226,-4.6828,-4.6269,-4.7456,-4.8397,-4.9019,-4.9822,-5.064,-5.1256,-5.2068,-5.1057,-5.0478,-5.2064,-5.1267,-5.0686,-5.2277,-5.2715,-5.2715,-5.2715,-5.2949,-5.3144,-5.3144,-5.3379,-5.3594,-5.3594,-5.3086,-5.2812,-5.3105,-5.3144,-5.3262,-5.3555,-5.3594,-5.3594,-5.3594,-5.3594,-5.3594,-5.3594,-5.3594,-5.3594,-5.3594,-5.3594,-5.3594,-5.3594,-5.3998,-5.4382,-5.5185,-5.5586,-5.5985,-5.678,-5.678,-5.678,0.0,-3.793,-3.8845,-4.0297,-4.1254,-4.1629,-4.1629,-4.1629,-4.1476,-4.1046,-4.1542,-4.2399,-4.3103,-4.467,-4.6108,-4.7119,-4.7723,-4.8079,-4.8518,-4.8709,-4.8747,-4.8614,-4.9874,-5.0356,0.0,0.0,0.0,-5.0219,-4.8813,-4.8434,-4.9835,-5.0084,-4.9825,-4.9217,-4.7816,-4.7021,-4.7021,-4.5001,-4.3807,-4.379,-4.3125,-4.2781,-4.2781,-4.2895,-4.2469,-4.1248,-4.1248,-4.0665,-3.9831,-3.9831,-3.9948,-4.0138,-4.0138,-4.0974,-4.2204,-4.1988,-4.2729,-4.4319,-4.5191,-4.4796,-4.4025,-4.536,-4.5147,-4.4352,-4.5562,-4.6527,-4.7143,-4.798,-4.8592,-4.9404,-5.003,-4.9828,-4.9662,-5.1246,-5.1284,-5.1119,-5.2742,-5.2541,-5.2137,-5.2982,-5.2773,-5.2743,-5.3391,-5.3965,-5.4316,-5.4473,-5.4004,-5.3633,-5.3613,-5.3594,-5.3769,-5.4219,-5.4258,-5.4316,-5.4473,-5.4492,-5.4492,-5.4492,-5.4492,-5.4492,-5.4492,-5.4492,-5.4492,-5.4492,-5.4903,-5.5498,-5.6111,-5.6518,-5.7126,-5.7732,-5.7732,-5.7732,-3.6422,-3.749,-3.8609,-3.8925,-4.0329,-4.1832,-4.1866,-4.1849,-4.1364,-3.9803,-4.0733,-4.1364,0.0,0.0,-4.4975,-4.3676,-4.5059,-4.6371,-4.6827,-4.7424,-4.7516,0.0,0.0,0.0,0.0,0.0,0.0,-5.0667,0.0,-4.8014,-4.8212,-4.8014,-4.722,-4.5203,-4.5019,-4.4817,-4.4834,-4.2807,-4.1597,-4.1628,-3.9927,-3.9056,-3.9056,-3.9363,-3.9524,-3.9538,-3.9538,-3.9538,-3.9568,-3.9568,-3.9568,-3.9568,-3.9568,-3.9568,-3.9568,-3.9568,-3.9568,-4.0223,-4.4693,-4.6041,-4.5786,-4.6126,-4.6024,-4.5752,-4.5752,-4.4315,-4.3286,-4.5338,-4.4523,-4.3479,-4.5545,-4.7624,-4.9162,-4.975,-5.1516,-5.3091,-5.3722,-5.2119,-5.1292,-5.3634,-5.2363,-5.1537,-5.3673,-5.4433,-5.4844,-5.5254,-5.5312,-5.5019,-5.4199,-5.4101,-5.4258,-5.4668,-5.4707,-5.4883,-5.5273,-5.5312,-5.5312,-5.5312,-5.5312,-5.5312,-5.5312,-5.5312,-5.5312,-5.5312,-5.6354,-5.6976,-5.6976,-5.7986,-5.8601,-5.8601,-5.8601,-5.8601,-3.6334,-3.6859,-3.7506,-3.7596,-3.781,-3.8142,-3.8646,-3.8371,-3.784,-3.7553,-3.7689,-3.8426,0.0,0.0,0.0,-4.5966,-4.6416,0.0,-4.7594,-4.7832,0.0,0.0,0.0,-4.9715,-5.0317,-5.0569,0.0,0.0,-4.796,-4.6423,-4.8014,-4.6623,-4.6346,-4.7634,-4.4329,-4.2717,-4.2976,-4.0731,-3.9838,-4.0092,-3.9561,-3.9392,-3.9392,-3.948,-3.9641,-3.9875,-3.9875,-4.0007,-4.0241,-4.0241,-4.0241,-4.0241,-4.0241,-4.0241,-4.0241,-4.0241,-4.0241,-4.0458,-4.1602,-4.182,-4.1561,-4.1637,-4.179,-4.1927,-4.1927,-4.2756,-4.3811,-4.4221,-4.5283,-4.6112,-4.6743,-4.6112,-4.5723,-4.7494,-4.7108,-4.7335,-5.0804,-5.1289,-5.1719,-5.408,-5.4332,-5.4337,-5.4772,-5.5078,-5.5176,-5.5293,-5.5312,-5.5234,-5.5019,-5.498,-5.5019,-5.5137,-5.5156,-5.5195,-5.5293,-5.5312,-5.5312,-5.5312,-5.5312,-5.5312,-5.5312,-5.5312,-5.5312,-5.5312,-5.5918,-5.6542,-5.6976,-5.7595,-5.8192,-5.8601,-5.8601,-5.8601,-3.6919,-3.7036,-3.7124,-3.727,-3.7065,-3.6875,-3.7095,-3.6861,-3.6597,-3.6597,-3.6597,0.0,0.0,0.0,0.0,0.0,0.0,0.0,-4.5306,-4.661,-4.6864,0.0,-4.8435,0.0,-4.8682,-4.9433,-4.9629,0.0,-4.6423,-4.5622,-4.6822,-4.4953,-4.3853,-4.4294,-4.283,-4.169,-4.0869,-3.9791,-3.9334,-3.9509,-3.9656,-3.9729,-3.9729,-3.9875,-4.0036,-4.0212,0.0,-4.0314,-4.049,-4.049,-4.049,-4.049,-4.0651,-4.0694,-4.0724,-4.0841,-4.0929,-4.0929,-4.0929,-4.0797,-4.0607,-4.0299,-4.0343,-4.049,-4.049,-4.1333,-4.2388,-4.2388,-4.3347,-4.4521,-4.4521,-4.4417,-4.4529,-4.581,-4.6026,-4.6868,-5.0287,-5.0486,-5.0418,-5.1725,-5.2984,-5.3843,-5.4014,-5.4916,-5.5644,-5.584,-5.5879,-5.5879,-5.5879,-5.5547,-5.5371,-5.5566,-5.5586,-5.5664,-5.5859,-5.5879,-5.5879,-5.5879,-5.5879,-5.5879,-5.5879,-5.5879,-5.5879,-5.5879,-5.6491,-5.6911,-5.7121,-5.7957,-5.858,-5.8788,-5.8995,-5.9222,-3.7636,-3.7592,-3.727,-3.7519,-3.7373,-3.708,-3.6802,-3.67,-3.6656,-3.6612,0.0,0.0,-3.6978,0.0,-3.9396,-3.8747,0.0,-4.1249,-4.2246,-4.4276,-4.4997,-4.3076,-4.7987,-4.9733,-4.5962,-4.684,-4.7021,-4.522,-4.4817,-4.4615,-4.4615,-4.2705,-4.0747,-3.8675,-4.0823,-4.0992,-3.9158,-3.9436,-3.9597,-3.9641,-3.9934,-4.0065,-4.0065,-4.0358,-4.049,-4.049,-4.049,-4.0519,-4.0563,-4.0563,-4.0563,-4.0651,-4.0929,-4.1046,-4.106,-4.1324,-4.1441,-4.1441,-4.1441,-4.1485,-4.1411,-4.0812,-4.0607,-4.0607,-4.0607,-4.0607,-4.0607,-4.0607,-4.0812,-4.1046,-4.1046,-4.2729,-4.4239,-4.4239,-4.5778,-4.7925,-5.0313,-4.9506,-4.8478,-4.8529,-5.0043,-5.1672,-5.243,-5.4257,-5.5708,-5.6523,-5.6582,-5.6582,-5.6582,-5.5996,-5.5703,-5.6055,-5.6094,-5.625,-5.664,-5.6621,-5.6582,-5.6582,-5.6582,-5.6582,-5.6582,-5.6582,-5.6582,-5.6582,-5.7222,-5.7415,-5.7415,-5.8706,-5.9128,-5.9128,-5.9779,-5.9988,-3.727,-3.7563,-3.7841,-3.7636,-3.7534,-3.7475,-3.7417,-3.7197,0.0,0.0,0.0,-3.6626,-3.6685,-3.7081,0.0,-4.028,0.0,0.0,0.0,0.0,-4.393,0.0,0.0,0.0,0.0,0.0,0.0,0.0,0.0,-4.2383,-4.2383,-4.0477,-3.9536,-3.9334,-4.0069,-4.0246,-3.9831,-3.989,-4.0051,-4.0314,-4.0373,-4.0402,-4.0402,-4.0446,-4.049,-4.049,-4.049,0.0,-4.0885,-4.0885,-4.1046,-4.128,-4.1324,-4.1368,-4.1368,-4.1411,-4.1441,-4.1441,-4.1441,-4.1616,-4.1777,-4.1411,-4.128,-4.128,-4.128,-4.128,-4.128,-4.128,-4.1324,-4.1368,-4.1368,-4.1606,-4.2096,-4.2096,-4.2319,-4.3179,-4.5575,-4.7524,-4.8957,-4.9265,-4.974,-5.0636,-5.2454,-5.3124,-5.4261,-5.6348,-5.6582,-5.6582,-5.6582,-5.6758,-5.6914,-5.6973,-5.6992,-5.7012,-5.709,-5.6777,-5.6582,-5.6582,-5.6582,-5.6582,-5.6582,-5.6582,-5.6582,-5.6582,-5.7648,-5.8072,-5.8072,-5.9338,-5.9779,-5.9779,-5.9988,-5.9988,-3.7548,-3.7826,-3.8031,-3.787,-3.7826,-3.7739,-3.7402,0.0,0.0,0.0,0.0,-3.6656,-3.6831,0.0,0.0,0.0,0.0,0.0,0.0,0.0,0.0,0.0,0.0,0.0,0.0,0.0,0.0,0.0,0.0,-4.1016,-4.2056,-4.0333,-3.9421,-3.9758,-3.9919,-3.9992,-3.9992,-4.0168,-4.0329,-4.049,-4.049,-4.049,-4.049,-4.049,-4.0563,-4.0724,-4.0724,0.0,-4.1207,-4.1207,-4.1324,-4.1455,-4.1616,-4.169,-4.169,-4.185,-4.1938,-4.1938,-4.1938,-4.2026,-4.2143,-4.2187,-4.1968,-4.169,-4.169,-4.1572,-4.1441,-4.1441,-4.1572,-4.169,-4.169,-4.1807,-4.1938,-4.1938,-4.2798,-4.4146,-4.5217,-4.6475,-4.7305,-4.7677,-4.8617,-4.993,-5.1014,-5.3253,-5.5237,-5.6368,-5.6582,-5.6582,-5.6582,-5.7148,-5.7461,-5.7246,-5.7012,-5.6973,-5.7187,-5.6816,-5.6582,-5.6582,-5.6797,-5.6914,-5.6914,-5.7129,-5.7246,-5.7246,-5.7894,-5.8324,-5.8539,-5.9416,-6.0055,-6.0268,-6.048,-6.0692,-3.7695,-3.7958,-3.8046,-3.7973,-3.8017,-3.79,-3.7241,-3.7095,0.0,0.0,0.0,0.0,0.0,0.0,0.0,0.0,0.0,0.0,0.0,0.0,0.0,0.0,0.0,0.0,0.0,0.0,0.0,0.0,0.0,0.0,-4.1822,-4.0619,-3.9831,-4.0095,-4.0109,-4.0109,-4.0109,-4.0358,-4.049,-4.049,-4.049,-4.049,-4.049,-4.0563,-4.0724,-4.0973,-4.1046,0.0,0.0,-4.1529,-4.1572,-4.169,-4.1894,-4.2011,-4.2026,-4.2304,-4.2392,-4.2392,-4.2392,-4.2421,-4.2553,-4.2875,-4.2582,-4.2099,-4.2187,-4.2055,-4.185,-4.1777,-4.1938,-4.2099,-4.2026,-4.2187,-4.2392,-4.2392,-4.3716,-4.5062,-4.5062,-4.5062,-4.5272,-4.5692,-4.7071,-4.8395,-4.993,-5.3035,-5.551,-5.6485,-5.6719,-5.6758,-5.6855,-5.7519,-5.7851,-5.7539,-5.7207,-5.7129,-5.7461,-5.7109,-5.6855,-5.6855,-5.7168,-5.7344,-5.7344,-5.7676,-5.7871,-5.7871,-5.809,-5.8526,-5.8961,-5.9611,-6.026,-6.0711,-6.112,-6.1355,-3.708,-3.7622,-3.7987,-3.7695,-3.7841,-3.79,-3.7241,0.0,0.0,0.0,-3.6597,-3.6612,0.0,0.0,0.0,0.0,0.0,0.0,0.0,0.0,0.0,0.0,0.0,0.0,0.0,0.0,0.0,0.0,0.0,0.0,-4.0561,-4.059,-4.0402,-4.0446,-4.0446,-4.0446,-4.0446,-4.049,-4.049,-4.049,-4.049,-4.049,-4.049,-4.0812,-4.0929,-4.0973,-4.128,0.0,0.0,-4.185,-4.2026,-4.2304,-4.2348,-4.2348,-4.2348,-4.2377,-4.2392,-4.2392,-4.2392,-4.2582,-4.2875,-4.3197,-4.308,-4.2831,-4.3124,-4.3197,-4.3109,-4.2831,-4.2758,-4.2714,-4.2421,-4.2348,-4.2392,-4.2392,-4.2606,-4.282,-4.282,-4.282,-4.3261,-4.5498,-4.4398,-4.5062,-5.1453,-5.1269,-5.1833,-5.6422,-5.7148,-5.7305,-5.7695,-5.8183,-5.8476,-5.8418,-5.8359,-5.8359,-5.8418,-5.8027,-5.7754,-5.7754,-5.7793,-5.7812,-5.7812,-5.7851,-5.7871,-5.7871,-5.8941,-5.9395,-5.9611,-6.069,-6.112,-6.114,-6.1334,-6.1355,-3.73,-3.7856,-3.828,-3.7943,-3.7973,-3.79,-3.7241,0.0,0.0,-3.667,-3.6597,-3.6597,-3.6597,0.0,0.0,0.0,0.0,0.0,0.0,0.0,0.0,0.0,0.0,0.0,0.0,0.0,0.0,0.0,0.0,0.0,-4.1046,-4.0885,-4.0694,-4.049,-4.049,-4.049,-4.049,-4.049,-4.049,-4.049,-4.0694,-4.0768,-4.0768,-4.1133,-4.1368,-4.1543,-4.166,0.0,0.0,-4.2187,-4.226,-4.2392,-4.2392,-4.2392,-4.2392,-4.2392,-4.2392,-4.2392,-4.2392,-4.2582,-4.2919,-4.3241,-4.3402,-4.3475,-4.3592,-4.3519,-4.3314,-4.3197,-4.3153,-4.308,-4.2758,-4.2538,-4.2392,-4.2392,-4.2392,-4.2392,-4.2392,-4.2553,-4.29,-4.4018,-4.4613,-4.5898,-4.8822,-4.974,-5.0897,-5.286,-5.4469,-5.5426,-5.5595,-5.759,-5.8945,-5.8945,-5.8711,-5.8535,-5.8535,-5.8144,-5.7871,-5.7871,-5.8144,-5.8262,-5.8262,-5.8496,-5.8672,-5.8672,-5.9095,-5.9777,-6.0376,-6.0854,-6.1489,-6.2141,-6.2141,-6.2141,-3.7197,-3.7695,-3.8061,-3.7826,-3.7782,-3.7651,0.0,0.0,0.0,-3.6656,-3.6597,-3.6597,-3.6597,0.0,0.0,0.0,0.0,0.0,0.0,0.0,0.0,0.0,0.0,0.0,0.0,0.0,0.0,0.0,0.0,0.0,-4.1441,-4.1251,-4.0929,-4.049,-4.049,-4.049,-4.049,-4.049,-4.0534,-4.0651,-4.0855,-4.1016,-4.1133,-4.1455,-4.169,-4.1894,-4.2011,-4.2187,0.0,-4.2392,-4.2392,-4.2392,-4.2392,-4.2392,-4.2392,-4.2392,-4.2392,-4.2392,-4.2392,-4.2582,-4.2948,-4.3358,-4.3636,-4.387,-4.4163,-4.3958,-4.3636,-4.3519,-4.3519,-4.3431,-4.3226,-4.2904,-4.267,-4.267,-4.267,-4.267,-4.267,-4.2875,-4.3253,-4.3919,-4.501,-4.6321,-4.7671,-4.8816,-4.9972,-5.1487,-5.3309,-5.4726,-5.5507,-5.7771,-5.9297,-5.918,-5.9004,-5.8926,-5.8926,-5.8496,-5.8262,-5.8262,-5.8555,-5.8711,-5.8711,-5.9004,-5.918,-5.918,-5.9403,-5.9829,-6.0678,-6.0899,-6.1602,-6.2481,-6.27,-6.2679,-3.6524,-3.6861,-3.7109,-3.7109,-3.7095,-3.7095,0.0,0.0,0.0,-3.6597,-3.6597,-3.6597,-3.6597,-3.6597,-3.6817,0.0,0.0,0.0,0.0,0.0,0.0,0.0,0.0,0.0,0.0,0.0,0.0,0.0,0.0,0.0,-4.1455,-4.1441,-4.1163,-4.0519,-4.049,-4.049,-4.049,-4.049,-4.0651,-4.0973,-4.0973,-4.1133,-4.1441,-4.1777,-4.1894,-4.1894,-4.2231,-4.2392,0.0,-4.2392,-4.2392,-4.2392,-4.2392,-4.2392,-4.2392,-4.2392,-4.2392,-4.2392,-4.2392,-4.2582,-4.2992,-4.3636,-4.3826,-4.4002,-4.4967,-4.4806,-4.4236,-4.3914,-4.3826,-4.3826,-4.3826,-4.3592,-4.3358,-4.3358,-4.3358,-4.3358,-4.3358,-4.3358,-4.4059,-4.6305,-4.4946,-4.4961,-4.9727,-4.8571,-4.8686,-5.3859,-5.4851,-5.5898,-5.8674,-5.9531,-5.9648,-5.9238,-5.9531,-5.9805,-5.9805,-5.9414,-5.918,-5.918,-5.918,-5.918,-5.918,-5.918,-5.918,-5.918,-5.981,-6.0012,-6.0012,-6.114,-6.1822,-6.1822,-6.2481,-6.2679,-3.6787,-3.7183,-3.7373,-3.7153,-3.7095,-3.7036,-3.6817,0.0,0.0,0.0,-3.6597,-3.6597,-3.6597,-3.6597,-3.6817,-3.7475,-3.8031,0.0,0.0,0.0,0.0,0.0,0.0,0.0,0.0,0.0,0.0,0.0,0.0,0.0,-4.1485,-4.1441,-4.1163,-4.0519,-4.049,-4.049,-4.049,-4.0694,-4.0855,-4.0973,-4.1411,-4.166,-4.1777,-4.2099,-4.2216,0.0,-4.2348,-4.2392,0.0,-4.2392,-4.2392,-4.2392,-4.2392,-4.2392,-4.2392,-4.2392,-4.2392,-4.2465,-4.2904,-4.3109,-4.3314,-4.3958,-4.4323,-4.4514,-4.4601,-4.4645,-4.4689,-4.4806,-4.4514,-4.4192,-4.4441,-4.4075,-4.368,-4.368,-4.368,-4.3636,-4.3402,-4.3519,-4.3901,-4.4621,-4.4314,-4.4476,-4.6101,-4.5644,-4.6351,-4.9691,-5.156,-5.3679,-5.6402,-5.8403,-5.9746,-5.9629,-5.9746,-5.9687,-5.9414,-5.9238,-5.918,-5.918,-5.918,-5.918,-5.918,-5.918,-5.918,-5.918,-5.9403,-5.9607,-6.0012,-6.0718,-6.1602,-6.2481,-6.27,-6.2679,-3.6509,-3.6963,-3.7153,-3.6963,-3.6905,0.0,0.0,0.0,0.0,0.0,0.0,0.0,0.0,-3.6597,-3.6817,-3.7475,-3.7914,0.0,0.0,0.0,0.0,0.0,0.0,0.0,0.0,0.0,0.0,0.0,0.0,0.0,-4.1485,-4.1324,-4.109,-4.0694,-4.068,-4.068,-4.068,-4.1002,-4.1207,-4.1338,-4.1704,-4.1982,-4.2099,-4.2304,-4.2392,-4.2392,-4.2392,-4.2392,0.0,-4.2392,-4.2392,-4.2392,-4.2392,-4.2392,-4.2392,-4.2509,-4.2582,-4.2626,-4.3153,-4.3519,-4.3797,-4.4323,-4.4894,-4.5289,-4.4967,-4.4923,-4.5055,-4.5377,-4.5172,-4.4923,-4.5128,-4.4689,-4.4192,-4.4192,-4.4119,-4.3958,-4.3753,-4.387,-4.4031,-4.4031,-4.4192,-4.4323,-4.4323,-4.5011,-4.6644,-4.8953,-5.1517,-5.4068,-5.6628,-5.8494,-5.957,-5.957,-5.957,-5.9473,-5.918,-5.918,-5.918,-5.918,-5.918,-5.918,-5.918,-5.918,-5.918,-5.918,-5.9423,-5.9626,-6.0012,-6.0899,-6.1802,-6.2679,-6.2679,-6.2679,0.0,-3.629,-3.6583,-3.6597,-3.6597,-3.6597,0.0,0.0,0.0,0.0,0.0,0.0,0.0,-3.6626,-3.6846,-3.7504,0.0,0.0,0.0,0.0,0.0,0.0,0.0,0.0,0.0,0.0,0.0,0.0,0.0,0.0,-4.1455,-4.1177,-4.1016,-4.0973,-4.1016,-4.1016,-4.1016,-4.1324,-4.1616,-4.1894,-4.1938,-4.2099,-4.2392,-4.2392,-4.2392,0.0,0.0,0.0,0.0,-4.2392,-4.2392,-4.2392,-4.2421,-4.2421,-4.2465,-4.2787,-4.2919,-4.2992,-4.3358,-4.3841,-4.4397,-4.4762,-4.5494,-4.6182,-4.5904,-4.5611,-4.5421,-4.5743,-4.5787,-4.5772,-4.5772,-4.5289,-4.485,-4.4806,-4.4558,-4.4353,-4.4323,-4.4323,-4.4323,-4.4323,-4.4323,-4.4323,-4.4323,-4.6407,-4.8735,-5.1285,-5.3839,-5.6402,-5.8975,-5.918,-5.918,-5.918,-5.918,-5.918,-5.918,-5.918,-5.918,-5.918,-5.918,-5.918,-5.918,-5.918,-5.918,-5.918,-5.981,-6.0032,-6.0234,-6.114,-6.2042,-6.2679,-6.2679,-6.2679,-3.4973,0.0,-3.629,-3.6539,-3.6597,-3.6597,0.0,0.0,0.0,0.0,0.0,0.0,0.0,0.0,0.0,0.0,0.0,0.0,0.0,0.0,0.0,0.0,0.0,0.0,0.0,0.0,0.0,0.0,0.0,-4.2026,-4.1485,-4.1616,-4.1455,-4.0973,-4.1411,-4.1572,-4.1324,-4.1646,-4.1821,-4.1894,-4.2143,-4.2304,-4.2392,-4.2392,-4.2392,0.0,0.0,0.0,-4.2392,-4.2392,-4.2392,-4.2421,-4.267,-4.2758,-4.2787,-4.3124,-4.3402,-4.368,-4.428,-4.4558,-4.4806,-4.5377,-4.5699,-4.5933,-4.6109,-4.6109,-4.6065,-4.6138,-4.5977,-4.5772,-4.5772,-4.5494,-4.5128,-4.485,-4.4762,-4.4601,-4.4367,-4.4323,-4.4323,-4.4323,-4.4323,-4.4323,-4.4323,-4.6407,-4.8735,-5.1285,-5.3839,-5.6402,-5.8975,-5.918,-5.918,-5.918,-5.918,-5.918,-5.918,-5.918,-5.918,-5.918,-5.918,-5.918,-5.918,-5.918,-5.918,-5.918,-5.981,-6.0456,-6.1361,-6.1602,-6.2042,-6.2679,-6.2679,-6.2679,-3.4622,-3.5397,-3.6158,-3.6334,-3.6495,-3.6597,-3.6597,0.0,0.0,0.0,0.0,0.0,0.0,0.0,0.0,0.0,0.0,0.0,0.0,0.0,0.0,0.0,0.0,0.0,0.0,0.0,0.0,0.0,0.0,-4.2011,-4.166,-4.169,-4.1616,-4.1411,-4.1733,-4.1821,-4.1646,-4.1982,-4.2143,-4.2143,-4.2304,-4.2392,-4.2392,-4.2392,-4.2392,0.0,0.0,0.0,-4.2392,-4.2392,-4.2465,-4.2626,-4.2787,-4.2948,-4.3124,-4.3475,-4.3797,-4.4119,-4.4645,-4.5011,-4.5333,-4.5816,-4.6021,-4.6021,-4.6226,-4.627,-4.627,-4.627,-4.6021,-4.5816,-4.5977,-4.5655,-4.5245,-4.5084,-4.4923,-4.4719,-4.4397,-4.4323,-4.4323,-4.4323,-4.4323,-4.4323,-4.4323,-4.7323,-5.0139,-5.1517,-5.4754,-5.7776,-5.8956,-5.918,-5.918,-5.918,-5.918,-5.918,-5.918,-5.918,-5.918,-5.918,-5.918,-5.918,-5.918,-5.918,-5.9383,-6.0052,-6.0476,-6.1381,-6.2241,-6.2241,-6.246,-6.2679,-6.2679,-6.2679,-3.4461,-3.5353,-3.6114,-3.6114,-3.6363,-3.6597,-3.6597,0.0,0.0,0.0,0.0,0.0,0.0,0.0,0.0,0.0,0.0,0.0,0.0,0.0,0.0,0.0,0.0,0.0,0.0,0.0,0.0,0.0,0.0,-4.1938,-4.1894,-4.169,-4.169,-4.1894,-4.1938,-4.1982,-4.1982,-4.226,-4.2392,-4.2392,-4.2392,-4.2392,-4.2392,-4.2392,-4.2392,-4.2392,0.0,0.0,-4.2392,-4.2421,-4.2626,-4.2875,-4.2992,-4.3197,-4.3475,-4.3841,-4.4192,-4.4528,-4.4894,-4.5377,-4.5816,-4.6153,-4.627,-4.627,-4.627,-4.627,-4.627,-4.627,-4.6065,-4.5904,-4.6065,-4.5699,-4.526,-4.5172,-4.4923,-4.4645,-4.4367,-4.4323,-4.4323,-4.4323,-4.4323,-4.4323,-4.4323,-4.85,-5.1731,-5.1731,-5.5911,-5.918,-5.918,-5.918,-5.918,-5.918,-5.8956,-5.8732,-5.8732,-5.8732,-5.8732,-5.8732,-5.8956,-5.918,-5.918,-5.9383,-5.9829,-6.0919,-6.1381,-6.2042,-6.2679,-6.2679,-6.2679,-6.2679,-6.2679,-6.2679,-3.4183,-3.5178,-3.6114,-3.6114,-3.6363,-3.6597,0.0,0.0,0.0,0.0,0.0,0.0,0.0,0.0,0.0,0.0,0.0,0.0,0.0,0.0,0.0,0.0,0.0,0.0,0.0,0.0,0.0,0.0,0.0,-4.2187,-4.1894,-4.2099,-4.2143,-4.1894,-4.2187,-4.2304,-4.2304,-4.2348,-4.2392,-4.2392,-4.2392,-4.2392,-4.2392,-4.2392,-4.2392,-4.2392,0.0,-4.2392,-4.2421,-4.267,-4.2831,-4.2919,-4.3475,-4.3709,-4.3826,-4.4441,-4.485,-4.5216,-4.5816,-4.5933,-4.5816,-4.6153,-4.627,-4.627,-4.627,-4.627,-4.627,-4.627,-4.6226,-4.6065,-4.5582,-4.5377,-4.5172,-4.4601,-4.4441,-4.4397,-4.4323,-4.4323,-4.4323,-4.4323,-4.4323,-4.4323,-4.4323,-4.85,-5.1731,-5.1731,-5.5911,-5.918,-5.918,-5.918,-5.918,-5.918,-5.7325,-5.6156,-5.6156,-5.6156,-5.6156,-5.6156,-5.8039,-5.918,-5.918,-5.9607,-6.0254,-6.0919,-6.1381,-6.2042,-6.2679,-6.2679,-6.2679,-6.2679,-6.2679,-6.2679,-3.4124,-3.5017,-3.5909,-3.607,-3.6626,-3.7183,0.0,0.0,0.0,0.0,0.0,0.0,0.0,0.0,0.0,0.0,0.0,0.0,0.0,0.0,0.0,0.0,0.0,0.0,0.0,0.0,0.0,0.0,0.0,0.0,-4.2187,-4.2304,-4.2304,-4.2187,-4.2304,-4.2392,-4.2392,-4.2392,-4.2392,-4.2392,-4.2392,-4.2392,-4.2392,-4.2392,-4.2392,-4.2392,0.0,-4.2626,-4.267,-4.2992,-4.3241,-4.3431,-4.3709,-4.3958,-4.4163,-4.4645,-4.5128,-4.5611,-4.5904,-4.6021,-4.6065,-4.6226,-4.627,-4.627,-4.627,-4.627,-4.627,-4.627,-4.6138,-4.5977,-4.586,-4.5567,-4.5216,-4.4923,-4.4719,-4.4528,-4.4353,-4.4323,-4.4323,-4.4323,-4.4323,-4.4323,-4.4323,-4.7323,-4.9672,-4.9672,-5.292,-5.521,-5.521,-5.521,-5.521,-5.521,-5.405,-5.338,-5.338,-5.338,-5.4526,-5.7325,-5.8488,-5.918,-5.918,-6.0032,-6.0718,-6.0919,-6.1822,-6.2481,-6.2679,-6.2679,-6.2679,-6.2679,-6.2679,-6.2679,-3.4314,-3.509,-3.5866,-3.6348,0.0,0.0,0.0,0.0,0.0,0.0,0.0,0.0,0.0,0.0,0.0,0.0,0.0,0.0,0.0,0.0,0.0,0.0,0.0,0.0,0.0,0.0,0.0,0.0,0.0,0.0,-4.2509,-4.2509,-4.2465,-4.2392,-4.2392,-4.2392,-4.2392,-4.2392,-4.2392,-4.2392,-4.2392,-4.2392,-4.2392,-4.2392,-4.2421,-4.2509,-4.2758,-4.2919,-4.2992,-4.3314,-4.3592,-4.3826,-4.3914,-4.4192,-4.4558,-4.4733,-4.5172,-4.5655,-4.5743,-4.5904,-4.6065,-4.6226,-4.627,-4.627,-4.627,-4.627,-4.627,-4.627,-4.6109,-4.5904,-4.6021,-4.5743,-4.5333,-4.5128,-4.4923,-4.4719,-4.4397,-4.4323,-4.4323,-4.4323,-4.4323,-4.4323,-4.4323,-4.6407,-4.803,-4.803,-5.0122,-5.1731,-5.1731,-5.1731,-5.1731,-5.1731,-5.1302,-5.0804,-5.0804,-5.1285,-5.361,-5.8039,-5.8975,-5.918,-5.918,-6.0052,-6.0698,-6.0919,-6.2103,-6.2646,-6.2866,-6.2928,-6.299,-6.299,-6.299,-6.299,-3.4841,-3.5573,-3.6305,-3.7241,-3.73,0.0,0.0,0.0,0.0,0.0,0.0,0.0,0.0,0.0,0.0,0.0,0.0,0.0,0.0,0.0,0.0,0.0,0.0,0.0,0.0,0.0,0.0,0.0,0.0,0.0,-4.2831,-4.2831,-4.2714,-4.2392,-4.2392,-4.2392,-4.2392,-4.2392,-4.2392,-4.2392,-4.2392,-4.2392,-4.2392,-4.2392,-4.2553,-4.2831,-4.2875,-4.3036,-4.3358,-4.368,-4.3797,-4.387,-4.4163,-4.4675,-4.5172,-4.4923,-4.5011,-4.5377,-4.5655,-4.5582,-4.545,-4.6065,-4.627,-4.627,-4.627,-4.627,-4.627,-4.627,-4.627,-4.6109,-4.5494,-4.5538,-4.5494,-4.4601,-4.4601,-4.4719,-4.4397,-4.4323,-4.4323,-4.4323,-4.4323,-4.4323,-4.4323,-4.6407,-4.803,-4.803,-5.0122,-5.1731,-5.1731,-5.1731,-5.1731,-5.1731,-4.9655,-4.8281,-4.8281,-5.0338,-5.2885,-5.5493,-5.8,-5.918,-5.918,-5.9829,-6.0234,-6.0919,-6.2009,-6.2899,-6.3321,-6.3756,-6.3942,-6.3942,-6.3942,-6.3942,-3.4973,-3.5792,0.0,-3.7124,-3.7636,0.0,0.0,-3.8631,-3.8807,0.0,0.0,0.0,0.0,0.0,0.0,0.0,0.0,0.0,0.0,0.0,0.0,0.0,0.0,0.0,0.0,0.0,0.0,0.0,0.0,0.0,-4.2875,-4.267,-4.2509,-4.2392,-4.2392,-4.2392,-4.2392,-4.2392,-4.2392,-4.2392,-4.2392,-4.2392,-4.2392,-4.2582,-4.2758,-4.2904,-4.3314,-4.3548,-4.368,-4.4002,-4.4119,-4.4163,-4.4484,-4.4762,-4.5011,-4.5084,-4.5333,-4.5611,-4.5743,-4.5816,-4.5948,-4.6182,-4.627,-4.627,-4.627,-4.627,-4.627,-4.627,-4.627,-4.6226,-4.5977,-4.5816,-4.5626,-4.5055,-4.485,-4.4719,-4.4397,-4.4323,-4.4323,-4.4323,-4.4323,-4.4323,-4.4323,-4.5011,-4.571,-4.571,-4.6392,-4.7087,-4.7087,-4.7087,-4.7087,-4.7087,-4.6369,-4.6043,-4.6043,-4.8554,-5.1055,-5.362,-5.7362,-5.957,-5.957,-6.0276,-6.109,-6.1764,-6.2598,-6.3148,-6.3818,-6.3983,-6.4066,-6.4066,-6.4066,-6.4066,-3.528,-3.6114,0.0,0.0,0.0,0.0,-3.9495,-3.9495,-3.9495,-4.0036,0.0,0.0,0.0,0.0,0.0,0.0,0.0,0.0,0.0,0.0,0.0,0.0,0.0,0.0,0.0,0.0,0.0,0.0,0.0,0.0,0.0,-4.2714,-4.2509,-4.2392,-4.2392,-4.2392,-4.2392,-4.2392,-4.2392,-4.2392,-4.2509,-4.2553,-4.2553,-4.2758,-4.2992,-4.3197,-4.3636,-4.387,-4.4002,-4.4236,-4.4323,-4.4353,-4.4558,-4.4719,-4.485,-4.5055,-4.5333,-4.5655,-4.5743,-4.5933,-4.6138,-4.6226,-4.627,-4.627,-4.627,-4.6343,-4.6431,-4.6431,-4.6504,-4.6548,-4.6431,-4.6094,-4.5699,-4.5377,-4.5128,-4.4894,-4.4689,-4.4645,-4.4645,-4.4645,-4.4645,-4.4645,-4.4645,-4.4645,-4.4645,-4.4645,-4.4645,-4.4645,-4.4645,-4.4645,-4.4645,-4.4645,-4.485,-4.4967,-4.4967,-4.7539,-5.0055,-5.2642,-5.6752,-5.9206,-6.0019,-6.0728,-6.136,-6.2041,-6.2634,-6.3353,-6.4028,-6.4397,-6.4501,-6.4501,-6.4501,-6.4501,-3.5851,-3.6597,0.0,0.0,0.0,0.0,0.0,-4.0007,-4.0095,-4.0402,0.0,0.0,0.0,0.0,0.0,0.0,0.0,0.0,0.0,0.0,0.0,0.0,0.0,0.0,0.0,0.0,0.0,0.0,0.0,0.0,0.0,-4.3036,-4.2714,-4.2392,-4.2392,-4.2392,-4.2392,-4.2392,-4.2392,-4.2392,-4.2714,-4.2875,-4.2875,-4.2875,-4.3226,-4.3826,-4.3826,-4.4031,-4.4323,-4.4323,-4.4323,-4.4323,-4.4323,-4.4528,-4.4806,-4.4806,-4.5011,-4.5333,-4.5655,-4.5772,-4.5816,-4.6153,-4.627,-4.627,-4.627,-4.6504,-4.6738,-4.6738,-4.6987,-4.7148,-4.6826,-4.6255,-4.5699,-4.5377,-4.5289,-4.5289,-4.5289,-4.5289,-4.5289,-4.5289,-4.5289,-4.5289,-4.5289,-4.5289,-4.5289,-4.5289,-4.5289,-4.5289,-4.5289,-4.5289,-4.5289,-4.5289,-4.5289,-4.5289,-4.5289,-4.7662,-5.0055,-5.2642,-5.5624,-5.8256,-6.024,-6.043,-6.0697,-6.136,-6.2442,-6.3119,-6.3843,-6.4956,-6.5412,-6.5412,-6.5412,-6.5412,-3.5588,0.0,0.0,0.0,0.0,0.0,0.0,-4.0329,0.0,0.0,0.0,0.0,0.0,0.0,0.0,0.0,0.0,0.0,0.0,0.0,0.0,0.0,0.0,0.0,0.0,0.0,0.0,0.0,0.0,0.0,0.0,-4.2831,-4.2465,-4.2392,-4.2392,-4.2392,-4.2392,-4.2392,-4.2509,-4.2714,-4.2831,-4.2875,-4.2875,-4.3343,-4.3636,-4.3826,-4.4075,-4.4236,-4.4323,-4.4323,-4.4323,-4.4353,-4.4558,-4.4719,-4.485,-4.5333,-4.5538,-4.5699,-4.6021,-4.6109,-4.6138,-4.6226,-4.627,-4.627,-4.627,-4.6504,-4.6738,-4.6738,-4.6987,-4.7192,-4.7104,-4.6782,-4.6299,-4.5772,-4.5977,-4.6138,-4.545,-4.5465,-4.5626,-4.5626,-4.545,-4.5377,-4.5582,-4.545,-4.5289,-4.5289,-4.5289,-4.5377,-4.5611,-4.5626,-4.5626,-4.5626,-4.5626,-4.5626,-4.5626,-4.6557,-4.9092,-5.3443,-5.4489,-5.6765,-6.0687,-6.1191,-6.1579,-6.2312,-6.3103,-6.3604,-6.4332,-6.5142,-6.5412,-6.5412,-6.5412,-6.5412,-3.6173,0.0,0.0,0.0,0.0,0.0,0.0,0.0,0.0,0.0,0.0,0.0,0.0,0.0,0.0,0.0,0.0,0.0,0.0,0.0,0.0,0.0,0.0,0.0,0.0,0.0,0.0,0.0,0.0,0.0,0.0,-4.2743,-4.2392,-4.2392,-4.2392,-4.2392,-4.2392,-4.2509,-4.267,-4.2875,-4.3109,-4.327,-4.327,-4.3665,-4.3914,-4.4031,-4.4236,-4.4323,-4.4323,-4.4323,-4.4397,-4.4528,-4.4601,-4.4689,-4.488,-4.5377,-4.5582,-4.5655,-4.6109,-4.6343,-4.6431,-4.6299,-4.6343,-4.646,-4.646,-4.6665,-4.6943,-4.7104,-4.7353,-4.7557,-4.747,-4.7353,-4.7148,-4.6504,-4.6548,-4.6621,-4.6182,-4.6226,-4.6343,-4.6343,-4.6182,-4.6094,-4.6138,-4.6094,-4.6021,-4.5889,-4.5977,-4.6094,-4.6138,-4.6182,-4.6109,-4.5977,-4.6094,-4.6094,-4.5977,-4.627,-4.8104,-5.2311,-5.3525,-5.5827,-5.968,-6.1077,-6.1952,-6.2204,-6.3133,-6.3806,-6.4056,-6.4975,-6.5412,-6.5412,-6.5412,-6.5412,0.0,0.0,0.0,0.0,0.0,0.0,0.0,0.0,0.0,0.0,0.0,0.0,0.0,0.0,0.0,0.0,0.0,0.0,0.0,0.0,0.0,0.0,0.0,0.0,0.0,0.0,0.0,0.0,0.0,0.0,0.0,-4.2758,-4.2421,-4.2392,-4.2392,-4.2392,-4.2421,-4.2714,-4.2904,-4.2948,-4.3548,-4.3841,-4.387,-4.387,-4.4031,-4.4323,-4.4323,-4.4323,-4.4323,-4.4353,-4.4528,-4.4733,-4.4484,-4.4558,-4.488,-4.5172,-4.5333,-4.545,-4.6109,-4.6504,-4.6694,-4.6387,-4.6548,-4.6782,-4.6738,-4.6987,-4.7353,-4.7631,-4.7923,-4.8084,-4.7835,-4.7952,-4.8011,-4.744,-4.7104,-4.6943,-4.7192,-4.7265,-4.7265,-4.7265,-4.7265,-4.7148,-4.6826,-4.7016,-4.706,-4.6738,-4.6987,-4.7104,-4.6826,-4.6738,-4.6665,-4.6431,-4.6577,-4.6577,-4.6343,-4.6548,-4.7536,-4.9897,-5.2538,-5.5196,-5.7877,-6.0276,-6.1719,-6.1738,-6.2901,-6.3595,-6.3595,-6.4934,-6.5412,-6.5412,-6.5412,-6.5412,0.0,0.0,0.0,0.0,0.0,0.0,0.0,0.0,0.0,0.0,0.0,0.0,0.0,0.0,0.0,0.0,0.0,0.0,0.0,0.0,0.0,0.0,0.0,0.0,0.0,0.0,0.0,0.0,0.0,0.0,-4.3358,-4.2992,-4.267,-4.2392,-4.2392,-4.2509,-4.2758,-4.2831,-4.3109,0.0,-4.3753,-4.3958,-4.4192,-4.4192,-4.4236,-4.4323,-4.4323,-4.4323,-4.4323,-4.4601,-4.4601,-4.4441,-4.4645,-4.4894,-4.5216,-4.526,-4.5611,-4.6109,-4.6504,-4.6694,-4.6738,-4.6665,-4.6855,-4.706,-4.6826,-4.7148,-4.7631,-4.7704,-4.7923,-4.8157,-4.8084,-4.8128,-4.8128,-4.7996,-4.7923,-4.7762,-4.7309,-4.7426,-4.7587,-4.7587,-4.7396,-4.7192,-4.7148,-4.6987,-4.6738,-4.6431,-4.6621,-4.6899,-4.7104,-4.6899,-4.6899,-4.7353,-4.6782,-4.6431,-4.6621,-4.646,-4.7531,-4.9897,-5.2538,-5.5196,-5.7877,-6.0276,-6.1971,-6.2437,-6.3113,-6.3826,-6.4286,-6.4954,-6.5412,-6.5412,-6.5412,-6.5412,0.0,0.0,0.0,0.0,0.0,0.0,0.0,0.0,0.0,0.0,0.0,0.0,0.0,0.0,0.0,0.0,0.0,0.0,0.0,0.0,0.0,0.0,0.0,0.0,0.0,0.0,0.0,0.0,0.0,-4.3519,-4.3358,-4.2904,-4.2553,-4.2392,-4.2553,-4.2714,-4.2875,-4.3197,-4.3504,-4.3826,-4.3987,-4.4163,-4.4323,-4.4323,-4.4323,-4.4323,-4.4484,-4.4484,-4.4353,-4.485,-4.4923,-4.4806,-4.4967,-4.5245,-4.5538,-4.5538,-4.5743,-4.6109,-4.6577,-4.6855,-4.6987,-4.6987,-4.7192,-4.7426,-4.7265,-4.7426,-4.7748,-4.7879,-4.804,-4.8172,-4.8172,-4.8172,-4.8172,-4.8172,-4.8172,-4.8084,-4.7762,-4.7806,-4.7923,-4.7923,-4.7791,-4.7631,-4.747,-4.7309,-4.7192,-4.7192,-4.7309,-4.7426,-4.747,-4.7309,-4.7265,-4.747,-4.7148,-4.6914,-4.6738,-4.6738,-4.7065,-4.8215,-5.1808,-5.4819,-5.6181,-5.9881,-6.1952,-6.2184,-6.3133,-6.3806,-6.4036,-6.4975,-6.5412,-6.5412,-6.5412,-6.5412,0.0,0.0,0.0,0.0,0.0,0.0,0.0,0.0,0.0,0.0,0.0,0.0,0.0,0.0,0.0,0.0,0.0,0.0,0.0,0.0,0.0,0.0,0.0,0.0,0.0,0.0,0.0,0.0,0.0,-4.3475,-4.3358,-4.2831,-4.2538,-4.2465,-4.2743,-4.2919,-4.3036,-4.3548,-4.387,-4.3914,-4.4192,-4.4323,-4.4323,-4.4367,-4.4367,-4.4323,-4.4675,-4.4601,-4.4367,-4.5011,-4.5216,-4.5128,-4.5289,-4.5494,-4.5699,-4.5743,-4.5816,-4.5948,-4.6577,-4.6987,-4.7221,-4.7309,-4.7513,-4.7791,-4.7718,-4.7748,-4.7835,-4.8084,-4.8172,-4.8172,-4.8172,-4.8172,-4.8172,-4.8172,-4.8172,-4.8172,-4.8172,-4.8172,-4.8172,-4.8172,-4.8128,-4.7996,-4.7762,-4.7674,-4.7718,-4.7967,-4.7996,-4.7923,-4.7748,-4.7674,-4.7557,-4.7396,-4.7543,-4.7426,-4.6943,-4.7104,-4.6987,-4.646,-5.1286,-5.4334,-5.4642,-5.9454,-6.1894,-6.2069,-6.3153,-6.3785,-6.3806,-6.4954,-6.5412,-6.5412,-6.5412,-6.5412,0.0,0.0,0.0,0.0,0.0,0.0,0.0,0.0,0.0,0.0,0.0,0.0,0.0,0.0,0.0,0.0,0.0,0.0,0.0,0.0,0.0,0.0,0.0,0.0,0.0,0.0,0.0,0.0,-4.4236,-4.3958,-4.3402,-4.3285,-4.3109,-4.2831,-4.2831,-4.3153,-4.3709,-4.3797,-4.3958,-4.4236,-4.428,-4.4323,-4.4323,-4.4601,-4.4601,-4.4323,-4.4675,-4.4601,-4.4367,-4.5011,-4.4967,-4.4528,-4.5377,-4.5582,-4.5377,-4.5655,-4.5948,-4.6299,-4.6943,-4.7192,-4.7265,-4.7557,-4.7835,-4.804,-4.7791,-4.7879,-4.8128,-4.8157,-4.8172,-4.8172,-4.8172,-4.8172,-4.8172,-4.8172,-4.8172,-4.8172,-4.8172,-4.8172,-4.8172,-4.8172,-4.7952,-4.7762,-4.7718,-4.747,-4.7309,-4.7353,-4.7353,-4.7426,-4.7674,-4.747,-4.747,-4.7996,-4.7587,-4.7382,-4.7557,-4.7353,-4.7192,-4.7104,-5.1999,-5.4968,-5.5019,-6.0165,-6.2912,-6.299,-6.3332,-6.4036,-6.5163,-6.5391,-6.5412,-6.5412,-6.5412,-6.5412,0.0,0.0,0.0,0.0,0.0,0.0,0.0,0.0,0.0,0.0,0.0,0.0,0.0,0.0,0.0,0.0,0.0,0.0,0.0,0.0,0.0,0.0,0.0,0.0,0.0,0.0,0.0,0.0,-4.4163,-4.3914,-4.3636,-4.3445,-4.3285,-4.3153,-4.3314,-4.3548,-4.3826,-4.4192,-4.4528,-4.485,-4.4484,-4.4397,-4.4601,-4.4923,-4.4894,-4.4601,-4.4923,-4.5011,-4.4894,-4.5377,-4.5406,-4.5216,-4.6021,-4.6138,-4.586,-4.6182,-4.6416,-4.6592,-4.706,-4.7353,-4.7557,-4.7879,-4.804,-4.8128,-4.7996,-4.804,-4.8172,-4.8172,-4.8172,-4.8172,-4.8172,-4.8172,-4.8172,-4.8172,-4.8172,-4.8172,-4.8172,-4.8172,-4.8172,-4.8172,-4.804,-4.7967,-4.7967,-4.7835,-4.7762,-4.7762,-4.7762,-4.7791,-4.7952,-4.7835,-4.7835,-4.8128,-4.7923,-4.7748,-4.7718,-4.7587,-4.7426,-4.7221,-5.0705,-5.2991,-5.3188,-5.6719,-5.9461,-6.1906,-6.3204,-6.4299,-6.4954,-6.5183,-6.5412,-6.5412,-6.5412,-6.5412,0.0,0.0,0.0,0.0,0.0,0.0,0.0,0.0,0.0,0.0,0.0,0.0,0.0,0.0,0.0,0.0,0.0,0.0,0.0,0.0,0.0,0.0,0.0,0.0,0.0,0.0,0.0,0.0,-4.4075,-4.3914,-4.3826,-4.368,-4.3563,-4.3475,-4.3797,-4.3958,-4.3958,-4.4441,-4.4806,-4.504,-4.4558,-4.4484,-4.4806,-4.5128,-4.5216,-4.5055,-4.5289,-4.5377,-4.5333,-4.5655,-4.5772,-4.586,-4.6504,-4.6548,-4.6314,-4.6709,-4.6826,-4.6782,-4.7221,-4.7513,-4.7762,-4.8084,-4.8172,-4.8172,-4.8172,-4.8172,-4.8172,-4.8172,-4.8172,-4.8172,-4.8172,-4.8172,-4.8172,-4.8172,-4.8172,-4.8172,-4.8172,-4.8172,-4.8172,-4.8172,-4.8172,-4.8172,-4.8172,-4.8172,-4.8172,-4.8172,-4.8172,-4.8172,-4.8172,-4.8172,-4.8172,-4.8172,-4.8172,-4.8084,-4.7835,-4.7835,-4.7718,-4.747,-4.996,-5.1557,-5.1827,-5.4338,-5.7316,-6.0853,-6.2656,-6.3885,-6.4725,-6.5163,-6.5412,-6.5412,-6.5412,-6.5412,0.0,0.0,0.0,0.0,0.0,0.0,0.0,0.0,0.0,0.0,0.0,0.0,0.0,0.0,0.0,0.0,0.0,0.0,0.0,0.0,0.0,0.0,0.0,0.0,0.0,0.0,0.0,0.0,-4.4309,-4.4163,-4.3841,-4.4119,-4.4119,-4.3826,-4.4119,-4.428,-4.428,-4.4323,-4.4353,-4.4367,-4.4323,-4.4484,-4.4806,-4.5128,-4.545,-4.5743,-4.5743,-4.5582,-4.5333,-4.5655,-4.5772,-4.586,-4.6504,-4.6548,-4.6343,-4.6987,-4.7016,-4.6826,-4.747,-4.7718,-4.7762,-4.8084,-4.8172,-4.8172,-4.8172,-4.8172,-4.8172,-4.8172,-4.8172,-4.8172,-4.8172,-4.8172,-4.8172,-4.8172,-4.8172,-4.8172,-4.8172,-4.8172,-4.8172,-4.8172,-4.8172,-4.8172,-4.8172,-4.8172,-4.8172,-4.8172,-4.8172,-4.8172,-4.8172,-4.8172,-4.8172,-4.8172,-4.8172,-4.8157,-4.8128,-4.8128,-4.8128,-4.8128,-5.0654,-5.2177,-5.2177,-5.5479,-5.8504,-6.1306,-6.189,-6.3207,-6.5412,-6.5412,-6.5412,-6.5412,-6.5412,-6.5412,0.0,0.0,0.0,0.0,0.0,0.0,0.0,0.0,0.0,0.0,0.0,0.0,0.0,0.0,0.0,0.0,0.0,0.0,0.0,0.0,0.0,0.0,0.0,0.0,0.0,0.0,0.0,0.0,0.0,-4.428,-4.4163,-4.4441,-4.4558,-4.4441,-4.4558,-4.4645,-4.4645,-4.4645,-4.4733,-4.4923,-4.4923,-4.5011,-4.5128,-4.545,-4.5655,-4.5787,-4.5992,-4.6021,-4.5933,-4.6065,-4.6226,-4.646,-4.7104,-4.7148,-4.6943,-4.7382,-4.747,-4.7396,-4.7631,-4.7835,-4.8011,-4.8128,-4.8172,-4.8172,-4.8172,-4.8172,-4.8172,-4.8172,-4.8172,-4.8172,-4.8172,-4.8172,-4.8172,-4.8172,-4.8172,-4.8172,-4.8172,-4.8172,-4.8172,-4.8172,-4.8172,-4.8172,-4.8172,-4.8172,-4.8172,-4.8172,-4.8172,-4.8172,-4.8172,-4.8172,-4.8172,-4.8172,-4.8172,-4.8172,-4.8172,-4.8172,-4.8172,-4.8172,-4.9196,-4.9683,-4.9683,-5.1214,-5.3543,-5.6398,-5.8476,-6.166,-6.5867,-6.5557,-6.5412,-6.5412,-6.5412,-6.5412,-3.5807,0.0,0.0,0.0,0.0,0.0,0.0,0.0,0.0,0.0,0.0,0.0,0.0,0.0,0.0,0.0,0.0,0.0,0.0,0.0,0.0,0.0,0.0,0.0,0.0,0.0,0.0,0.0,0.0,0.0,-4.4323,-4.4719,-4.5011,-4.5128,-4.4923,-4.485,-4.4967,-4.485,-4.4967,-4.5289,-4.5289,-4.5333,-4.545,-4.5699,-4.5816,-4.5948,-4.6299,-4.6431,-4.6431,-4.6431,-4.6665,-4.7104,-4.7557,-4.7587,-4.7426,-4.7748,-4.7791,-4.7718,-4.7835,-4.7996,-4.8172,-4.8172,-4.8172,-4.8172,-4.8172,-4.8172,-4.8172,-4.8172,-4.8172,-4.8172,-4.8172,-4.8172,-4.8172,-4.8172,-4.8172,-4.8172,-4.8172,-4.8172,-4.8172,-4.8172,-4.8172,-4.8172,-4.8172,-4.8172,-4.8172,-4.8172,-4.8172,-4.8172,-4.8172,-4.8172,-4.8172,-4.8172,-4.8172,-4.8172,-4.8172,-4.8172,-4.8172,-4.8172,-4.8172,-4.8172,-4.8172,-4.8966,-5.0864,-5.3615,-5.7176,-6.1023,-6.5324,-6.5489,-6.5557,-6.5412,-6.5598,-6.566,0.0,0.0,0.0,0.0,0.0,0.0,0.0,0.0,0.0,0.0,0.0,0.0,0.0,0.0,0.0,0.0,0.0,0.0,0.0,0.0,0.0,0.0,0.0,0.0,0.0,0.0,0.0,0.0,-4.4323,-4.4323,-4.4323,-4.4923,-4.545,-4.5772,-4.5172,-4.4967,-4.5289,-4.4967,-4.4967,-4.5289,-4.5289,-4.5494,-4.5772,-4.5787,-4.5977,-4.6299,-4.6621,-4.6738,-4.6782,-4.6782,-4.7148,-4.7718,-4.7718,-4.7718,-4.7762,-4.804,-4.7967,-4.7762,-4.8084,-4.8172,-4.8172,-4.8172,-4.8172,-4.8172,-4.8172,-4.8172,-4.8172,-4.8172,-4.8172,-4.8172,-4.8172,-4.8172,-4.8172,-4.8172,-4.8172,-4.8172,-4.8172,-4.8172,-4.8172,-4.8172,-4.8172,-4.8172,-4.8172,-4.8172,-4.8172,-4.8172,-4.8172,-4.8172,-4.8172,-4.8172,-4.8172,-4.8172,-4.8172,-4.8172,-4.8172,-4.8172,-4.8172,-4.8172,-4.8172,-4.8172,-4.8172,-4.947,-5.1487,-5.423,-5.76,-6.0857,-6.3555,-6.5344,-6.5867,-6.5432,-6.5867,-6.6095,-3.5222,0.0,0.0,0.0,0.0,0.0,0.0,0.0,0.0,0.0,0.0,0.0,0.0,0.0,0.0,0.0,0.0,0.0,0.0,0.0,0.0,0.0,0.0,0.0,0.0,0.0,0.0,0.0,-4.4323,-4.4323,-4.4323,-4.4923,-4.545,-4.5772,-4.5377,-4.5216,-4.5289,-4.5216,-4.5084,-4.4967,-4.5655,-4.5787,-4.545,-4.5904,-4.6299,-4.6621,-4.6694,-4.7016,-4.7426,-4.7426,-4.7557,-4.7748,-4.7952,-4.804,-4.804,-4.8128,-4.8128,-4.804,-4.8128,-4.8172,-4.8172,-4.8172,-4.8172,-4.8172,-4.8172,-4.8172,-4.8172,-4.8172,-4.8172,-4.8172,-4.8172,-4.8172,-4.8172,-4.8172,-4.8172,-4.8172,-4.8172,-4.8172,-4.8172,-4.8172,-4.8172,-4.8172,-4.8172,-4.8172,-4.8172,-4.8172,-4.8172,-4.8172,-4.8172,-4.8172,-4.8172,-4.8172,-4.8172,-4.8172,-4.8172,-4.8172,-4.8172,-4.8172,-4.8172,-4.8417,-4.8936,-4.9728,-5.1743,-5.4737,-5.8381,-6.1138,-6.3555,-6.5344,-6.6053,-6.5909,-6.5722,-6.5598,-3.5222,-3.5541,-3.6079,0.0,0.0,0.0,0.0,0.0,0.0,0.0,0.0,0.0,0.0,0.0,0.0,0.0,0.0,0.0,0.0,0.0,0.0,0.0,0.0,0.0,0.0,-4.4323,-4.4323,-4.4323,-4.4323,-4.4441,-4.4719,-4.5084,-4.5494,-4.5977,-4.5655,-4.5582,-4.5699,-4.5582,-4.545,-4.5421,-4.5977,-4.6065,-4.5699,-4.5948,-4.6299,-4.6738,-4.6738,-4.7104,-4.7718,-4.7835,-4.7923,-4.7923,-4.8084,-4.8172,-4.8172,-4.8172,-4.8172,-4.8172,-4.8172,-4.8172,-4.8172,-4.8172,-4.8172,-4.8172,-4.8172,-4.8172,-4.8172,-4.8172,-4.8172,-4.8172,-4.8172,-4.8172,-4.8172,-4.8172,-4.8172,-4.8172,-4.8172,-4.8172,-4.8172,-4.8172,-4.8172,-4.8172,-4.8172,-4.8172,-4.8172,-4.8172,-4.8172,-4.8172,-4.8172,-4.8172,-4.8172,-4.8172,-4.8172,-4.8172,-4.8172,-4.8172,-4.8172,-4.8172,-4.8172,-4.8432,-4.9196,-4.9713,-5.1261,-5.3501,-5.8006,-6.1664,-6.477,-6.5934,-6.6302,-6.6095,-6.5619,-6.5536,-3.5439,-3.5313,-3.5476,-3.6676,0.0,0.0,0.0,0.0,0.0,0.0,0.0,0.0,0.0,0.0,0.0,0.0,0.0,0.0,0.0,0.0,0.0,0.0,0.0,0.0,-4.4236,-4.428,-4.428,-4.4323,-4.4323,-4.4601,-4.5216,-4.5289,-4.5582,-4.6182,-4.5948,-4.5948,-4.627,-4.5948,-4.5933,-4.6226,-4.627,-4.627,-4.6182,-4.5977,-4.6226,-4.6782,-4.6826,-4.7192,-4.7791,-4.804,-4.8172,-4.8172,-4.8172,-4.8172,-4.8172,-4.8172,-4.8172,-4.8172,-4.8172,-4.8172,-4.8172,-4.8172,-4.8172,-4.8172,-4.8172,-4.8172,-4.8172,-4.8172,-4.8172,-4.8172,-4.8172,-4.8172,-4.8172,-4.8172,-4.8172,-4.8172,-4.8172,-4.8172,-4.8172,-4.8172,-4.8172,-4.8172,-4.8172,-4.8172,-4.8172,-4.8172,-4.8172,-4.8172,-4.8172,-4.8172,-4.8172,-4.8172,-4.8172,-4.8172,-4.8172,-4.8172,-4.8172,-4.8172,-4.8172,-4.8677,-4.9226,-4.9987,-5.0746,-5.1759,-5.7686,-6.2707,-6.6799,-6.6737,-6.6488,-6.6033,-6.5598,-6.566,0.0,0.0,0.0,0.0,0.0,0.0,0.0,0.0,0.0,0.0,0.0,0.0,0.0,0.0,0.0,0.0,0.0,0.0,0.0,0.0,0.0,0.0,0.0,0.0,-4.3914,-4.3914,-4.4031,-4.4309,-4.4323,-4.4484,-4.488,-4.5128,-4.545,-4.586,-4.5816,-4.5948,-4.627,-4.5948,-4.5816,-4.586,-4.6138,-4.6138,-4.5904,-4.6343,-4.6782,-4.7148,-4.7426,-4.7718,-4.8084,-4.8128,-4.8172,-4.8172,-4.8172,-4.8172,-4.8172,-4.8172,-4.8172,-4.8172,-4.8172,-4.8172,-4.8172,-4.8172,-4.8172,-4.8172,-4.8172,-4.8172,-4.8172,-4.8172,-4.8172,-4.8172,-4.8172,-4.8172,-4.8172,-4.8172,-4.8172,-4.8172,-4.8172,-4.8172,-4.8172,-4.8172,-4.8172,-4.8172,-4.8172,-4.8172,-4.8172,-4.8172,-4.8172,-4.8172,-4.8172,-4.8172,-4.8172,-4.8172,-4.8172,-4.8172,-4.8172,-4.8172,-4.8172,-4.8172,-4.8692,-4.9226,-4.9987,-5.0777,-5.2512,-5.5277,-6.0158,-6.4175,-6.6799,-6.6426,-6.5991,-6.5536,-6.5474,-6.5474,0.0,0.0,0.0,-3.5536,0.0,0.0,0.0,0.0,0.0,0.0,0.0,0.0,0.0,0.0,0.0,0.0,0.0,0.0,0.0,0.0,0.0,0.0,0.0,0.0,-4.3343,-4.3519,-4.3724,-4.4031,-4.4236,-4.4484,-4.4806,-4.5128,-4.545,-4.5772,-4.5948,-4.6109,-4.627,-4.6109,-4.6021,-4.6021,-4.6182,-4.6182,-4.6021,-4.6343,-4.6782,-4.7221,-4.7396,-4.7718,-4.8172,-4.8172,-4.8172,-4.8172,-4.8172,-4.8172,-4.8172,-4.8172,-4.8172,-4.8172,-4.8172,-4.8172,-4.8172,-4.8172,-4.8172,-4.8172,-4.8172,-4.8172,-4.8172,-4.8172,-4.8172,-4.8172,-4.8172,-4.8172,-4.8172,-4.8172,-4.8172,-4.8172,-4.8172,-4.8172,-4.8172,-4.8172,-4.8172,-4.8172,-4.8172,-4.8172,-4.8172,-4.8172,-4.8172,-4.8172,-4.8172,-4.8172,-4.8172,-4.8172,-4.8172,-4.8172,-4.8172,-4.8172,-4.8172,-4.8172,-4.8936,-4.947,-5.0245,-5.1019,-5.3533,-5.8256,-6.1362,-6.4354,-6.6799,-6.6095,-6.566,-6.5412,-6.5412,-6.5412,0.0,0.0,0.0,0.0,0.0,-3.4268,0.0,0.0,0.0,0.0,0.0,0.0,0.0,0.0,0.0,0.0,0.0,0.0,0.0,0.0,0.0,0.0,0.0,0.0,0.0,-4.3036,-4.3431,-4.3797,-4.4075,-4.4367,-4.4689,-4.5084,-4.5406,-4.5655,-4.6065,-4.627,-4.627,-4.627,-4.627,-4.627,-4.627,-4.6299,-4.6343,-4.6431,-4.6782,-4.7309,-4.7382,-4.7674,-4.8172,-4.8172,-4.8172,-4.8172,-4.8172,-4.8172,-4.8172,-4.8172,-4.8172,-4.8172,-4.8172,-4.8172,-4.8172,-4.8172,-4.8172,-4.8172,-4.8172,-4.8172,-4.8172,-4.8172,-4.8172,-4.8172,-4.8172,-4.8172,-4.8172,-4.8172,-4.8172,-4.8172,-4.8172,-4.8172,-4.8172,-4.8172,-4.8172,-4.8172,-4.8172,-4.8172,-4.8172,-4.8172,-4.8172,-4.8172,-4.8172,-4.8172,-4.8172,-4.8172,-4.8172,-4.8172,-4.8172,-4.8172,-4.8172,-4.8172,-4.8951,-4.9713,-5.0245,-5.1534,-5.5024,-6.0755,-6.2101,-6.4115,-6.6799,-6.5867,-6.5412,-6.5412,-6.5412,-6.5412,0.0,0.0,0.0,0.0,-3.4218,0.0,0.0,0.0,0.0,0.0,0.0,0.0,0.0,0.0,0.0,0.0,0.0,0.0,0.0,0.0,0.0,0.0,0.0,0.0,0.0,-4.2553,-4.3197,-4.3797,-4.387,-4.4031,-4.4353,-4.4967,-4.5289,-4.5333,-4.5948,-4.627,-4.627,-4.627,-4.627,-4.627,-4.627,-4.6416,-4.6694,-4.6987,-4.7309,-4.7674,-4.7952,-4.8084,-4.8172,-4.8172,-4.8172,-4.8172,-4.8172,-4.8172,-4.8172,-4.8172,-4.8172,-4.8172,-4.8172,-4.8172,-4.8172,-4.8172,-4.8172,-4.8172,-4.8172,-4.8172,-4.8172,-4.8172,-4.8172,-4.8172,-4.8172,-4.8172,-4.8172,-4.8172,-4.8172,-4.8172,-4.8172,-4.8172,-4.8172,-4.8172,-4.8172,-4.8172,-4.8172,-4.8172,-4.8172,-4.8172,-4.8172,-4.8172,-4.8172,-4.8172,-4.8172,-4.8172,-4.8172,-4.8172,-4.8172,-4.8172,-4.8172,-4.8172,-4.9455,-5.023,-5.0245,-5.3788,-5.8238,-6.3713,-6.3081,-6.4115,-6.6799,-6.5867,-6.5412,-6.5412,-6.5412,-6.5412,0.0,0.0,0.0,0.0,0.0,0.0,-3.3858,0.0,-3.4405,0.0,0.0,0.0,0.0,0.0,0.0,0.0,-3.809,0.0,0.0,0.0,-4.0095,0.0,0.0,0.0,0.0,0.0,0.0,0.0,-4.3636,-4.387,-4.4031,-4.485,-4.5289,-4.5289,-4.5933,-4.627,-4.627,-4.627,-4.627,-4.627,-4.627,-4.6431,-4.6738,-4.706,-4.7396,-4.7718,-4.804,-4.8172,-4.8172,-4.8172,-4.8172,-4.8172,-4.8172,-4.8172,-4.8172,-4.8172,-4.8172,-4.8172,-4.8172,-4.8172,-4.8172,-4.8172,-4.8172,-4.8172,-4.8172,-4.8172,-4.8172,-4.8172,-4.8172,-4.8172,-4.8172,-4.8172,-4.8172,-4.8172,-4.8172,-4.8172,-4.8172,-4.8172,-4.8172,-4.8172,-4.8172,-4.8172,-4.8172,-4.8172,-4.8172,-4.8172,-4.8172,-4.8172,-4.8172,-4.8172,-4.8172,-4.8172,-4.8172,-4.8172,-4.8172,-4.8172,-4.8417,-4.8692,-4.9972,-5.1775,-5.3771,-5.6582,-5.9894,-6.3828,-6.4431,-6.5202,-6.6405,-6.5722,-6.5412,-6.5412,-6.5412,-6.5412,-3.5315,0.0,0.0,0.0,0.0,0.0,0.0,0.0,0.0,0.0,0.0,0.0,0.0,0.0,0.0,0.0,0.0,-3.72,0.0,0.0,0.0,0.0,0.0,0.0,0.0,0.0,0.0,0.0,0.0,-4.368,-4.3958,-4.4719,-4.5216,-4.5289,-4.5816,-4.6182,-4.627,-4.627,-4.627,-4.627,-4.627,-4.646,-4.687,-4.7104,-4.7426,-4.7835,-4.8084,-4.8172,-4.8172,-4.8172,-4.8172,-4.8172,-4.8172,-4.8172,-4.8172,-4.8172,-4.8172,-4.8172,-4.8172,-4.8172,-4.8172,-4.8172,-4.8172,-4.8172,-4.8172,-4.8172,-4.8172,-4.8172,-4.8172,-4.8172,-4.8172,-4.8172,-4.8172,-4.8172,-4.8172,-4.8172,-4.8172,-4.8172,-4.8172,-4.8172,-4.8172,-4.8172,-4.8172,-4.8172,-4.8172,-4.8172,-4.8172,-4.8172,-4.8172,-4.8172,-4.8172,-4.8172,-4.8172,-4.8172,-4.8172,-4.8172,-4.8447,-4.947,-5.0504,-5.3039,-5.7274,-5.8855,-6.1138,-6.4552,-6.5618,-6.6116,-6.6116,-6.566,-6.5412,-6.5412,-6.5412,-6.5412,0.0,0.0,0.0,-3.487,0.0,0.0,0.0,0.0,-3.5198,0.0,0.0,0.0,0.0,0.0,0.0,0.0,0.0,0.0,0.0,0.0,0.0,0.0,0.0,0.0,0.0,0.0,0.0,0.0,0.0,0.0,-4.4236,-4.4645,-4.4967,-4.5289,-4.5611,-4.5948,-4.627,-4.627,-4.627,-4.627,-4.627,-4.6592,-4.7221,-4.7221,-4.7557,-4.8157,-4.8172,-4.8172,-4.8172,-4.8172,-4.8172,-4.8172,-4.8172,-4.8172,-4.8172,-4.8172,-4.8172,-4.8172,-4.8172,-4.8172,-4.8172,-4.8172,-4.8172,-4.8172,-4.8172,-4.8172,-4.8172,-4.8172,-4.8172,-4.8172,-4.8172,-4.8172,-4.8172,-4.8172,-4.8172,-4.8172,-4.8172,-4.8172,-4.8172,-4.8172,-4.8172,-4.8172,-4.8172,-4.8172,-4.8172,-4.8172,-4.8172,-4.8172,-4.8172,-4.8172,-4.8172,-4.8172,-4.8172,-4.8172,-4.8172,-4.8172,-4.8692,-4.9972,-5.0761,-5.4009,-5.9748,-5.9839,-6.2089,-6.7225,-6.6592,-6.6116,-6.6116,-6.566,-6.5412,-6.5412,-6.5412,-6.5412,0.0,0.0,-3.6513,-3.5338,0.0,0.0,0.0,0.0,0.0,0.0,0.0,0.0,0.0,0.0,0.0,0.0,0.0,0.0,0.0,0.0,0.0,0.0,0.0,0.0,0.0,0.0,0.0,0.0,0.0,0.0,0.0,-4.4323,-4.485,-4.5582,-4.5743,-4.5948,-4.627,-4.627,-4.627,-4.627,-4.627,-4.6592,-4.7221,-4.7221,-4.7557,-4.8172,-4.8172,-4.8172,-4.8172,-4.8172,-4.8172,-4.8172,-4.8172,-4.8172,-4.8172,-4.8172,-4.8172,-4.8172,-4.8172,-4.8172,-4.8172,-4.8172,-4.8172,-4.8172,-4.8172,-4.8172,-4.8172,-4.8172,-4.8172,-4.8172,-4.8172,-4.8172,-4.8172,-4.8172,-4.8172,-4.8172,-4.8172,-4.8172,-4.8172,-4.8172,-4.8172,-4.8172,-4.8172,-4.8172,-4.8172,-4.8172,-4.8172,-4.8172,-4.8172,-4.8172,-4.8172,-4.8172,-4.8172,-4.8172,-4.8172,-4.8951,-4.9728,-5.0245,-5.1277,-5.4418,-5.9593,-5.9472,-6.1536,-6.6571,-6.5971,-6.566,-6.566,-6.5495,-6.5412,-6.5412,-6.5412,-6.5412,-3.7008,-3.7168,0.0,-3.6086,-3.6246,0.0,-3.5471,0.0,0.0,0.0,0.0,0.0,0.0,0.0,0.0,0.0,0.0,0.0,0.0,0.0,0.0,0.0,0.0,0.0,0.0,0.0,0.0,0.0,0.0,0.0,0.0,0.0,-4.4719,-4.5245,-4.5611,-4.586,-4.6109,-4.6226,-4.627,-4.627,-4.627,-4.6592,-4.7221,-4.7221,-4.7557,-4.8172,-4.8172,-4.8172,-4.8172,-4.8172,-4.8172,-4.8172,-4.8172,-4.8172,-4.8172,-4.8172,-4.8172,-4.8172,-4.8172,-4.8172,-4.8172,-4.8172,-4.8172,-4.8172,-4.8172,-4.8172,-4.8172,-4.8172,-4.8172,-4.8172,-4.8172,-4.8172,-4.8172,-4.8172,-4.8172,-4.8172,-4.8172,-4.8172,-4.8172,-4.8172,-4.8172,-4.8172,-4.8172,-4.8172,-4.8172,-4.8172,-4.8172,-4.8172,-4.8172,-4.8172,-4.8172,-4.8172,-4.8172,-4.8187,-4.8432,-4.9485,-5.023,-5.0488,-5.1549,-5.4368,-5.9374,-5.9009,-6.1249,-6.5905,-6.566,-6.5412,-6.5412,-6.5412,-6.5495,-6.566,-6.566,-6.5743]}]]